ftp/pub/palmer/observations_modified/2019/March/original_files/AR190327_BASE.txt

Download

Sample DateTime	Unit Id	WS Avg 2min	WD Avg 2min	WGS 10min	WGD 10min	Air Temp	Rel Humidity	Dew Point	Pyranometer	Quantum	Air Pressure	Snow Level	Rainfall	PW Current	Visibility	CBase 1	CBase 2	CBase 3	Vert Vis
2019/03/27 00:00:00	BASE	30.57	24	39.61	29	2.3	87	0.5	0	0	975.6	NA	0.0000		9999	4890	0	0	0
2019/03/27 00:01:00	BASE	29.94	26	39.61	29	2.3	87	0.4	0	0	975.7	NA	0.0000		9999	4790	0	0	0
2019/03/27 00:02:00	BASE	29.92	27	39.61	29	2.3	87	0.4	0	0	975.4	NA	0.0000		9999	4950	0	0	0
2019/03/27 00:03:00	BASE	31.23	24	39.61	29	2.3	87	0.4	0	0	975.6	NA	0.0000		9999	4920	0	0	0
2019/03/27 00:04:00	BASE	29.63	23	39.61	29	2.3	87	0.3	0	0	975.5	NA	0.0000		9999	5090	0	0	0
2019/03/27 00:05:00	BASE	31.24	26	37.66	30	2.3	87	0.4	0	0	975.2	NA	0.0000		9999	4990	0	0	0
2019/03/27 00:06:00	BASE	32.95	25	36.83	27	2.3	87	0.4	0	0	975.5	NA	0.0000		9999	5020	0	0	0
2019/03/27 00:07:00	BASE	30.77	25	36.83	27	2.3	87	0.4	0	0	975.5	NA	0.0000		9999	5250	0	0	0
2019/03/27 00:08:00	BASE	29.45	25	36.83	27	2.3	87	0.3	0	0	975.4	NA	0.0000		9999	4530	0	0	0
2019/03/27 00:09:00	BASE	30.55	23	39.41	31	2.3	87	0.3	0	0	975.3	NA	0.0000		9999	4560	0	0	0
2019/03/27 00:10:00	BASE	32.38	26	39.41	31	2.4	87	0.4	0	0	975.3	NA	0.0000		9999	4920	0	0	0
2019/03/27 00:11:00	BASE	32.31	27	39.41	31	2.4	87	0.4	0	0	975.4	NA	0.0000		9999	4590	5090	0	0
2019/03/27 00:12:00	BASE	32.90	26	39.41	31	2.4	87	0.4	0	0	975.3	NA	0.0000		9999	4560	0	0	0
2019/03/27 00:13:00	BASE	33.41	25	39.41	31	2.5	87	0.5	0	0	975.3	NA	0.0000		9999	4530	0	0	0
2019/03/27 00:14:00	BASE	32.92	24	39.41	31	2.5	87	0.5	0	0	975.3	NA	0.0000		9999	4760	0	0	0
2019/03/27 00:15:00	BASE	33.49	25	39.41	31	2.5	87	0.5	0	0	975.2	NA	0.0000		9999	4560	0	0	0
2019/03/27 00:16:00	BASE	33.46	27	39.41	31	2.5	87	0.5	0	0	975.3	NA	0.0000		9999	4530	0	0	0
2019/03/27 00:17:00	BASE	31.89	26	39.41	31	2.5	86	0.4	0	0	975.4	NA	0.0000		9999	4660	0	0	0
2019/03/27 00:18:00	BASE	31.28	25	39.41	31	2.5	86	0.4	0	0	975.3	NA	0.0000		9999	4530	0	0	0
2019/03/27 00:19:00	BASE	30.04	26	37.97	24	2.5	86	0.4	0	0	975.5	NA	0.0000		9999	4490	0	0	0
2019/03/27 00:20:00	BASE	30.21	26	37.97	24	2.5	86	0.4	0	0	975.3	NA	0.0000		9999	4530	0	0	0
2019/03/27 00:21:00	BASE	31.68	23	37.97	24	2.4	86	0.3	0	0	975.3	NA	0.0000		9999	4660	0	0	0
2019/03/27 00:22:00	BASE	30.58	22	37.97	24	2.4	86	0.3	0	0	975.4	NA	0.0000		9999	4760	0	0	0
2019/03/27 00:23:00	BASE	30.25	23	37.55	26	2.4	86	0.3	0	0	975.3	NA	0.0000		9999	4690	0	0	0
2019/03/27 00:24:00	BASE	30.42	25	37.19	22	2.4	87	0.3	0	0	975.3	NA	0.0000		9999	4560	0	0	0
2019/03/27 00:25:00	BASE	31.72	26	36.94	27	2.3	87	0.4	0	0	975.1	NA	0.0000		9999	4790	5870	0	0
2019/03/27 00:26:00	BASE	33.11	24	36.94	27	2.3	87	0.4	0	0	975.2	NA	0.0000		9999	4630	5580	0	0
2019/03/27 00:27:00	BASE	33.03	24	36.94	27	2.3	87	0.4	0	0	975.1	NA	0.0000		9999	4490	0	0	0
2019/03/27 00:28:00	BASE	32.32	26	36.78	25	2.4	87	0.4	0	0	975.2	NA	0.0000		9999	4400	0	0	0
2019/03/27 00:29:00	BASE	33.05	26	36.78	25	2.4	87	0.4	0	0	975.0	NA	0.0000		9999	4630	5250	0	0
2019/03/27 00:30:00	BASE	34.19	24	36.78	25	2.4	86	0.4	0	0	975.0	NA	0.0000		9999	4530	0	0	0
2019/03/27 00:31:00	BASE	34.33	23	36.83	18	2.5	86	0.4	0	0	975.0	NA	0.0000		9999	4590	0	0	0
2019/03/27 00:32:00	BASE	34.23	23	36.83	18	2.5	86	0.4	0	0	975.0	NA	0.0000		9999	4430	0	0	0
2019/03/27 00:33:00	BASE	33.20	23	36.83	18	2.5	86	0.3	0	0	975.0	NA	0.0000		9999	4690	0	0	0
2019/03/27 00:34:00	BASE	31.80	24	36.83	18	2.5	85	0.3	0	0	975.1	NA	0.0000		9999	4590	0	0	0
2019/03/27 00:35:00	BASE	30.85	26	36.83	18	2.5	85	0.2	0	0	975.1	NA	0.0000		9999	4590	0	0	0
2019/03/27 00:36:00	BASE	29.71	27	36.83	18	2.4	85	0.2	0	0	975.2	NA	0.0000		9999	4330	0	0	0
2019/03/27 00:37:00	BASE	27.85	27	36.83	18	2.4	86	0.2	0	0	975.3	NA	0.0000		9999	4630	0	0	0
2019/03/27 00:38:00	BASE	27.82	26	36.83	18	2.4	86	0.3	0	0	975.2	NA	0.0000		9999	4760	6100	0	0
2019/03/27 00:39:00	BASE	28.87	24	36.83	18	2.4	86	0.3	0	0	975.1	NA	0.0000		9999	4890	0	0	0
2019/03/27 00:40:00	BASE	30.24	24	36.83	18	2.4	86	0.4	0	0	975.1	NA	0.0000		9999	4950	0	0	0
2019/03/27 00:41:00	BASE	31.13	26	36.63	25	2.4	86	0.4	0	0	975.0	NA	0.0000		9999	5090	6530	0	0
2019/03/27 00:42:00	BASE	32.01	26	36.37	31	2.4	87	0.4	0	0	974.9	NA	0.0000		9999	4990	0	0	0
2019/03/27 00:43:00	BASE	33.14	25	36.17	24	2.4	87	0.4	0	0	975.0	NA	0.0000		9999	4820	0	0	0
2019/03/27 00:44:00	BASE	31.20	26	36.17	24	2.4	87	0.4	0	0	975.2	NA	0.0000		9999	5090	0	0	0
2019/03/27 00:45:00	BASE	28.90	26	36.17	24	2.4	87	0.4	0	0	975.2	NA	0.0000		9999	5120	5740	0	0
2019/03/27 00:46:00	BASE	28.77	27	36.17	24	2.4	87	0.4	0	0	975.2	NA	0.0000		9999	5540	0	0	0
2019/03/27 00:47:00	BASE	28.59	26	36.17	24	2.4	87	0.4	0	0	975.2	NA	0.0000		9999	5250	0	0	0
2019/03/27 00:48:00	BASE	28.08	25	36.17	24	2.3	87	0.4	0	0	975.2	NA	0.0000		9999	5220	0	0	0
2019/03/27 00:49:00	BASE	27.47	26	36.17	24	2.3	87	0.4	0	0	975.2	NA	0.0000		9999	5020	8010	0	0
2019/03/27 00:50:00	BASE	28.25	26	36.17	24	2.3	87	0.5	0	0	975.2	NA	0.0000		9999	4860	0	0	0
2019/03/27 00:51:00	BASE	30.04	26	36.17	24	2.4	87	0.5	0	0	975.1	NA	0.0000		9999	4860	0	0	0
2019/03/27 00:52:00	BASE	31.09	27	35.70	28	2.4	87	0.5	0	0	975.1	NA	0.0000		9999	4950	8330	0	0
2019/03/27 00:53:00	BASE	30.67	29	34.93	20	2.5	87	0.5	0	0	975.1	NA	0.0000		9999	5320	6040	8270	0
2019/03/27 00:54:00	BASE	29.39	29	34.93	20	2.5	86	0.4	0	0	975.2	NA	0.0000		9999	5940	0	0	0
2019/03/27 00:55:00	BASE	28.72	28	34.93	20	2.5	86	0.3	0	0	975.2	NA	0.0000		9999	5840	0	0	0
2019/03/27 00:56:00	BASE	28.13	28	34.93	20	2.4	85	0.2	0	0	975.3	NA	0.0000		9999	5640	8040	0	0
2019/03/27 00:57:00	BASE	26.55	28	34.93	20	2.4	85	0.2	0	0	975.3	NA	0.0000		9999	6760	8100	0	0
2019/03/27 00:58:00	BASE	25.97	27	34.93	20	2.4	86	0.2	0	0	975.3	NA	0.0000		9999	5640	6960	8100	0
2019/03/27 00:59:00	BASE	27.63	27	34.93	20	2.4	86	0.3	0	0	975.2	NA	0.0000		9999	7450	8200	0	0
2019/03/27 01:00:00	BASE	27.56	27	34.93	20	2.4	87	0.4	0	0	975.3	NA	0.0000		9999	6920	8140	0	0
2019/03/27 01:01:00	BASE	26.72	26	34.67	33	2.5	87	0.5	0	0	975.3	NA	0.0000		9999	6070	6790	0	0
2019/03/27 01:02:00	BASE	27.79	24	33.70	28	2.5	87	0.6	0	0	975.2	NA	0.0000		9999	5870	0	0	0
2019/03/27 01:03:00	BASE	27.73	24	31.74	32	2.6	87	0.6	0	0	975.4	NA	0.0000		9999	5680	0	0	0
2019/03/27 01:04:00	BASE	25.58	25	31.74	32	2.7	86	0.6	0	0	975.5	NA	0.0000		9999	5450	0	0	0
2019/03/27 01:05:00	BASE	26.05	27	31.07	27	2.7	86	0.6	0	0	975.2	NA	0.0000		9999	5320	0	0	0
2019/03/27 01:06:00	BASE	26.64	29	31.07	27	2.7	85	0.5	0	0	975.4	NA	0.0000		9999	5350	6330	0	0
2019/03/27 01:07:00	BASE	24.31	27	31.07	27	2.8	85	0.4	0	0	975.4	NA	0.0000		9999	6200	0	0	0
2019/03/27 01:08:00	BASE	23.59	25	31.07	27	2.8	84	0.4	0	0	975.4	NA	0.0000		9999	5840	0	0	0
2019/03/27 01:09:00	BASE	24.55	24	31.07	27	2.8	84	0.4	0	0	975.4	NA	0.0000		9999	5940	0	0	0
2019/03/27 01:10:00	BASE	26.69	23	31.07	27	2.9	84	0.4	0	0	975.3	NA	0.0000		9999	5450	5940	0	0
2019/03/27 01:11:00	BASE	27.84	25	31.07	27	2.9	83	0.4	0	0	975.4	NA	0.0000		9999	5320	0	0	0
2019/03/27 01:12:00	BASE	27.66	24	31.07	27	3.0	83	0.4	0	0	975.3	NA	0.0000		9999	5280	0	0	0
2019/03/27 01:13:00	BASE	27.96	22	31.07	27	3.0	83	0.4	0	0	975.3	NA	0.0000		9999	5020	0	0	0
2019/03/27 01:14:00	BASE	27.53	24	31.07	27	3.0	82	0.3	0	0	975.4	NA	0.0000		9999	5280	0	0	0
2019/03/27 01:15:00	BASE	26.34	26	30.56	23	3.0	82	0.2	0	0	975.5	NA	0.0000		9999	5120	0	0	0
2019/03/27 01:16:00	BASE	25.41	26	30.56	23	3.0	82	0.3	0	0	975.5	NA	0.0000		9999	5020	0	0	0
2019/03/27 01:17:00	BASE	25.90	26	30.56	23	3.0	82	0.3	0	0	975.5	NA	0.0000		9999	4950	0	0	0
2019/03/27 01:18:00	BASE	26.50	26	30.56	23	3.0	82	0.3	0	0	975.5	NA	0.0000		9999	4860	0	0	0
2019/03/27 01:19:00	BASE	27.16	22	30.56	23	3.1	82	0.3	0	0	975.5	NA	0.0000		9999	4820	0	0	0
2019/03/27 01:20:00	BASE	28.15	22	29.94	22	3.1	82	0.3	0	0	975.5	NA	0.0000		9999	4860	0	0	0
2019/03/27 01:21:00	BASE	28.80	22	30.04	19	3.1	81	0.2	0	0	975.5	NA	0.0000		9999	5120	0	0	0
2019/03/27 01:22:00	BASE	28.16	22	30.04	19	3.1	81	0.2	0	0	975.6	NA	0.0000		9999	5380	0	0	0
2019/03/27 01:23:00	BASE	26.91	23	30.04	19	3.1	81	0.2	0	0	975.6	NA	0.0000		9999	5410	0	0	0
2019/03/27 01:24:00	BASE	26.61	23	30.04	19	3.1	81	0.2	0	0	975.7	NA	0.0000		9999	5640	0	0	0
2019/03/27 01:25:00	BASE	26.95	24	30.04	19	3.1	81	0.2	0	0	975.7	NA	0.0000		9999	5840	8070	0	0
2019/03/27 01:26:00	BASE	27.58	25	30.04	24	3.1	81	0.1	0	0	975.6	NA	0.0000		9999	8010	0	0	0
2019/03/27 01:27:00	BASE	27.47	25	30.04	24	3.1	81	0.1	0	0	975.7	NA	0.0000		9999	8010	0	0	0
2019/03/27 01:28:00	BASE	26.45	26	30.04	24	3.1	80	0.0	0	0	975.8	NA	0.0000		9999	8100	0	0	0
2019/03/27 01:29:00	BASE	25.97	26	30.04	24	3.1	80	-0.1	0	0	975.7	NA	0.0000		9999	8300	0	0	0
2019/03/27 01:30:00	BASE	26.62	25	30.04	24	3.1	79	-0.1	0	0	975.7	NA	0.0000		9999	8530	0	0	0
2019/03/27 01:31:00	BASE	26.63	23	30.04	24	3.1	79	-0.2	0	0	975.7	NA	0.0000		9999	8560	10040	0	0
2019/03/27 01:32:00	BASE	25.98	23	30.04	24	3.0	79	-0.2	0	0	975.7	NA	0.0000		9999	8430	0	0	0
2019/03/27 01:33:00	BASE	25.37	24	30.04	24	3.0	79	-0.2	0	0	975.7	NA	0.0000		9999	8270	0	0	0
2019/03/27 01:34:00	BASE	25.27	25	30.04	24	3.0	80	-0.2	0	0	975.7	NA	0.0000		9999	1350	0	0	0
2019/03/27 01:35:00	BASE	26.77	24	30.04	21	3.0	80	-0.1	0	0	975.6	NA	0.0000		9999	2260	8010	9880	0
2019/03/27 01:36:00	BASE	27.85	23	30.04	21	3.0	80	-0.1	0	0	975.5	NA	0.0000		9999	7940	8560	9940	0
2019/03/27 01:37:00	BASE	27.20	24	30.04	21	3.0	80	-0.0	0	0	975.6	NA	0.0000		9999	7910	8530	9940	0
2019/03/27 01:38:00	BASE	26.50	24	30.04	21	3.0	81	0.0	0	0	975.5	NA	0.0000		9999	7840	8500	0	0
2019/03/27 01:39:00	BASE	26.74	24	30.04	21	3.1	81	0.1	0	0	975.6	NA	0.0000		9999	7680	0	0	0
2019/03/27 01:40:00	BASE	26.54	23	30.04	21	3.1	81	0.1	0	0	975.6	NA	0.0000		9999	7780	0	0	0
2019/03/27 01:41:00	BASE	26.73	23	30.04	21	3.1	81	0.2	0	0	975.5	NA	0.0000		9999	7740	0	0	0
2019/03/27 01:42:00	BASE	26.66	24	30.04	21	3.1	81	0.2	0	0	975.5	NA	0.0000		9999	7780	0	0	0
2019/03/27 01:43:00	BASE	25.96	25	30.04	21	3.1	81	0.2	0	0	975.5	NA	0.0000		9999	7870	0	0	0
2019/03/27 01:44:00	BASE	24.96	24	30.04	21	3.1	81	0.2	0	0	975.6	NA	0.0000		9999	8070	0	0	0
2019/03/27 01:45:00	BASE	24.66	25	29.43	25	3.2	81	0.2	0	0	975.6	NA	0.0000		9999	7710	10300	0	0
2019/03/27 01:46:00	BASE	26.05	25	28.81	23	3.2	81	0.2	0	0	975.5	NA	0.0000		9999	7940	8630	0	0
2019/03/27 01:47:00	BASE	26.58	25	28.81	23	3.2	81	0.2	0	0	975.5	NA	0.0000		9999	7870	8690	0	0
2019/03/27 01:48:00	BASE	26.65	24	28.81	23	3.2	80	0.2	0	0	975.5	NA	0.0000		9999	7840	8830	0	0
2019/03/27 01:49:00	BASE	27.34	23	32.10	22	3.2	80	0.1	0	0	975.5	NA	0.0000		9999	7840	0	0	0
2019/03/27 01:50:00	BASE	27.92	23	32.10	22	3.2	80	0.1	0	0	975.4	NA	0.0000		9999	7840	0	0	0
2019/03/27 01:51:00	BASE	28.38	22	32.10	22	3.2	80	0.1	0	0	975.4	NA	0.0000		9999	7810	0	0	0
2019/03/27 01:52:00	BASE	28.46	21	32.10	22	3.1	80	0.1	0	0	975.4	NA	0.0000		9999	7840	0	0	0
2019/03/27 01:53:00	BASE	27.45	22	32.10	22	3.1	81	0.1	0	0	975.5	NA	0.0000		9999	7940	0	0	0
2019/03/27 01:54:00	BASE	27.76	22	32.10	22	3.1	81	0.1	0	0	975.5	NA	0.0000		9999	7870	0	0	0
2019/03/27 01:55:00	BASE	28.71	22	32.10	22	3.0	81	0.1	0	0	975.5	NA	0.0000		9999	7810	0	0	0
2019/03/27 01:56:00	BASE	28.43	22	32.10	22	3.0	82	0.2	0	0	975.5	NA	0.0000		9999	4400	0	0	0
2019/03/27 01:57:00	BASE	27.26	24	32.10	22	2.9	82	0.2	0	0	975.7	NA	0.0000		9999	4330	0	0	0
2019/03/27 01:58:00	BASE	25.84	25	32.10	22	2.9	83	0.3	0	0	975.7	NA	0.0000		9999	4300	0	0	0
2019/03/27 01:59:00	BASE	25.99	25	31.54	23	2.9	83	0.3	0	0	975.7	NA	0.0000		9999	4270	0	0	0
2019/03/27 02:00:00	BASE	25.31	26	31.54	23	2.8	84	0.3	0	0	975.8	NA	0.0000		9999	4430	0	0	0
2019/03/27 02:01:00	BASE	24.07	25	31.54	23	2.8	84	0.3	0	0	975.7	NA	0.0000		9999	4330	0	0	0
2019/03/27 02:02:00	BASE	25.04	24	30.30	22	2.8	84	0.4	0	0	975.7	NA	0.0000		9999	4330	0	0	0
2019/03/27 02:03:00	BASE	25.67	24	30.30	22	2.8	84	0.4	0	0	975.7	NA	0.0000		9999	4230	0	0	0
2019/03/27 02:04:00	BASE	25.83	26	30.09	24	2.8	85	0.5	0	0	975.7	NA	0.0000		9999	4230	0	0	0
2019/03/27 02:05:00	BASE	25.66	28	30.09	24	2.8	85	0.6	0	0	975.7	NA	0.0000		9999	4270	0	0	0
2019/03/27 02:06:00	BASE	24.64	27	29.84	24	2.8	85	0.6	0	0	975.8	NA	0.0000		9999	4170	0	0	0
2019/03/27 02:07:00	BASE	23.89	24	29.63	29	2.8	85	0.6	0	0	975.8	NA	0.0000		9999	4230	0	0	0
2019/03/27 02:08:00	BASE	22.98	25	29.63	29	2.9	85	0.6	0	0	975.8	NA	0.0000		9999	4200	0	0	0
2019/03/27 02:09:00	BASE	21.93	25	28.96	20	2.9	85	0.6	0	0	975.8	NA	0.0000		9999	4530	0	0	0
2019/03/27 02:10:00	BASE	21.88	24	28.96	20	3.0	84	0.6	0	0	975.8	NA	0.0000		9999	4430	0	0	0
2019/03/27 02:11:00	BASE	21.94	23	28.96	20	3.1	84	0.6	0	0	975.9	NA	0.0000		9999	4490	0	0	0
2019/03/27 02:12:00	BASE	22.01	24	27.99	25	3.1	83	0.5	0	0	975.8	NA	0.0000		9999	4590	5250	0	0
2019/03/27 02:13:00	BASE	22.53	25	27.99	25	3.2	82	0.5	0	0	975.8	NA	0.0000		9999	4560	0	0	0
2019/03/27 02:14:00	BASE	22.23	25	26.44	25	3.2	82	0.4	0	0	975.8	NA	0.0000		9999	4400	0	0	0
2019/03/27 02:15:00	BASE	21.44	27	26.29	23	3.2	82	0.4	0	0	975.8	NA	0.0000		9999	4490	0	0	0
2019/03/27 02:16:00	BASE	20.56	28	25.88	22	3.2	81	0.3	0	0	975.9	NA	0.0000		9999	4300	0	0	0
2019/03/27 02:17:00	BASE	20.44	27	24.28	25	3.2	81	0.3	0	0	975.8	NA	0.0000		9999	4400	0	0	0
2019/03/27 02:18:00	BASE	20.67	26	23.97	28	3.1	81	0.3	0	0	975.8	NA	0.0000		9999	4360	0	0	0
2019/03/27 02:19:00	BASE	20.96	25	23.97	28	3.1	82	0.3	0	0	975.8	NA	0.0000		9999	4230	0	0	0
2019/03/27 02:20:00	BASE	20.71	25	23.97	28	3.1	82	0.3	0	0	975.8	NA	0.0000		9999	4660	0	0	0
2019/03/27 02:21:00	BASE	20.64	25	23.97	28	3.1	82	0.3	0	0	975.8	NA	0.0000		9999	3870	0	0	0
2019/03/27 02:22:00	BASE	21.54	25	23.97	28	3.1	82	0.3	0	0	975.8	NA	0.0000		9999	2460	0	0	0
2019/03/27 02:23:00	BASE	20.99	25	23.82	29	3.1	82	0.4	0	0	975.9	NA	0.0000		9999	720	2130	0	0
2019/03/27 02:24:00	BASE	20.44	27	23.82	29	3.2	82	0.4	0	0	975.8	NA	0.0000	UP	9999	390	4490	0	0
2019/03/27 02:25:00	BASE	20.76	28	23.82	29	3.2	82	0.4	0	0	975.8	NA	0.0000	UP	9999	390	4330	0	0
2019/03/27 02:26:00	BASE	20.87	29	23.82	29	3.2	82	0.4	0	0	975.8	NA	0.0000	UP	9999	620	4300	0	0
2019/03/27 02:27:00	BASE	20.87	30	23.82	29	3.2	82	0.4	0	0	975.8	NA	0.0000	UP	9999	0	0	0	4950
2019/03/27 02:28:00	BASE	20.28	30	23.82	29	3.1	82	0.4	0	0	975.8	NA	0.0000	UP	9999	4000	0	0	0
2019/03/27 02:29:00	BASE	19.60	30	23.82	29	3.1	82	0.4	0	0	975.8	NA	0.0000	UP	9999	4000	0	0	0
2019/03/27 02:30:00	BASE	19.67	30	23.82	29	3.0	83	0.4	0	0	975.8	NA	0.0000	UP	9999	4820	0	0	0
2019/03/27 02:31:00	BASE	20.72	28	24.18	24	3.0	83	0.5	0	0	975.7	NA	0.0000	UP	9999	4360	0	0	0
2019/03/27 02:32:00	BASE	21.69	29	24.18	24	3.0	84	0.5	0	0	975.7	NA	0.0000	UP	9999	4270	0	0	0
2019/03/27 02:33:00	BASE	21.78	29	24.18	24	3.0	84	0.6	0	0	975.7	NA	0.0000	UP	9999	4530	0	0	0
2019/03/27 02:34:00	BASE	21.54	30	24.18	24	3.0	85	0.7	0	0	975.6	NA	0.0000	UP	9999	4400	0	0	0
2019/03/27 02:35:00	BASE	20.99	29	24.18	24	3.0	85	0.7	0	0	975.6	NA	0.0000	UP	9999	3510	0	0	0
2019/03/27 02:36:00	BASE	20.41	28	24.18	24	3.0	85	0.8	0	0	975.7	NA	0.0000		9999	3120	0	0	0
2019/03/27 02:37:00	BASE	20.54	29	24.18	24	3.0	85	0.8	0	0	975.7	NA	0.0000		9999	2430	0	0	0
2019/03/27 02:38:00	BASE	20.29	29	24.18	24	3.0	86	0.8	0	0	975.7	NA	0.0000		9999	4300	0	0	0
2019/03/27 02:39:00	BASE	20.31	31	24.18	24	3.0	86	0.9	0	0	975.7	NA	0.0000		9999	4330	0	0	0
2019/03/27 02:40:00	BASE	21.11	32	24.18	24	3.0	87	1.0	0	0	975.7	NA	0.0000		9999	4530	0	0	0
2019/03/27 02:41:00	BASE	20.09	31	24.13	22	3.0	87	1.1	0	0	975.8	NA	0.0000		9999	3970	0	0	0
2019/03/27 02:42:00	BASE	19.13	31	24.13	22	3.0	88	1.1	0	0	975.7	NA	0.0000		9999	4200	0	0	0
2019/03/27 02:43:00	BASE	19.78	29	23.82	34	3.0	88	1.2	0	0	975.7	NA	0.0000		9999	2760	0	0	0
2019/03/27 02:44:00	BASE	19.64	28	23.30	32	3.0	88	1.2	0	0	975.7	NA	0.0000		9999	4530	0	0	0
2019/03/27 02:45:00	BASE	19.06	28	23.30	32	3.0	88	1.2	0	0	975.7	NA	0.0000		9999	4330	0	0	0
2019/03/27 02:46:00	BASE	18.76	27	23.30	32	3.0	88	1.2	0	0	975.7	NA	0.0000		9999	5510	0	0	0
2019/03/27 02:47:00	BASE	19.59	27	23.30	32	3.0	88	1.2	0	0	975.6	NA	0.0000		9999	4200	0	0	0
2019/03/27 02:48:00	BASE	20.29	25	23.30	32	3.0	88	1.2	0	0	975.6	NA	0.0000		9999	4130	0	0	0
2019/03/27 02:49:00	BASE	19.99	25	23.30	32	3.0	88	1.3	0	0	975.6	NA	0.0000		9999	4000	0	0	0
2019/03/27 02:50:00	BASE	20.19	26	23.10	27	3.1	88	1.3	0	0	975.6	NA	0.0000	UP	9999	3220	0	0	0
2019/03/27 02:51:00	BASE	20.93	26	24.02	17	3.1	88	1.3	0	0	975.6	NA	0.0000	UP	9999	1870	0	0	0
2019/03/27 02:52:00	BASE	21.51	24	24.02	17	3.1	88	1.3	0	0	975.6	NA	0.0000	UP	9000	360	0	0	0
2019/03/27 02:53:00	BASE	20.47	25	24.02	17	3.1	88	1.4	0	0	975.7	NA	0.0000	UP	9999	390	0	0	0
2019/03/27 02:54:00	BASE	20.35	26	24.02	17	3.1	89	1.4	0	0	975.7	NA	0.0000	UP	9999	360	0	0	0
2019/03/27 02:55:00	BASE	21.04	27	24.02	17	3.1	89	1.5	0	0	975.7	NA	0.0000	UP	9999	620	2000	0	0
2019/03/27 02:56:00	BASE	20.51	28	24.02	17	3.1	89	1.5	0	0	975.7	NA	0.0000	UP	9999	0	0	0	3450
2019/03/27 02:57:00	BASE	19.70	30	24.02	17	3.1	90	1.6	0	0	975.7	NA	0.0000	UP	9999	720	0	0	0
2019/03/27 02:58:00	BASE	18.53	30	24.02	17	3.1	90	1.6	0	0	975.7	NA	0.0000	UP	9999	3150	0	0	0
2019/03/27 02:59:00	BASE	17.97	27	24.02	17	3.1	90	1.6	0	0	975.7	NA	0.0000	UP	9999	3640	4170	0	0
2019/03/27 03:00:00	BASE	18.63	27	24.02	17	3.1	90	1.6	0	0	975.7	NA	0.0000	UP	9999	4950	0	0	0
2019/03/27 03:01:00	BASE	19.23	29	23.61	21	3.1	90	1.6	0	0	975.6	NA	0.0000	UP	9999	5380	0	0	0
2019/03/27 03:02:00	BASE	18.74	30	22.58	26	3.1	90	1.6	0	0	975.6	NA	0.0000	UP	9999	4860	5610	0	0
2019/03/27 03:03:00	BASE	17.26	26	22.58	26	3.1	90	1.6	0	0	975.7	NA	0.0000	UP	9999	5580	0	0	0
2019/03/27 03:04:00	BASE	18.51	26	22.64	30	3.1	89	1.5	0	0	975.5	NA	0.0000	UP	9999	5510	0	0	0
2019/03/27 03:05:00	BASE	21.15	27	24.18	28	3.1	89	1.5	0	0	975.5	NA	0.0000		9999	5510	0	0	0
2019/03/27 03:06:00	BASE	21.16	26	24.18	28	3.2	89	1.5	0	0	975.5	NA	0.0000		9999	5320	0	0	0
2019/03/27 03:07:00	BASE	21.43	26	24.18	28	3.2	89	1.5	0	0	975.4	NA	0.0000		9999	5020	0	0	0
2019/03/27 03:08:00	BASE	21.57	25	24.18	28	3.2	88	1.5	0	0	975.4	NA	0.0000		9999	5050	0	0	0
2019/03/27 03:09:00	BASE	21.50	25	24.18	28	3.3	88	1.5	0	0	975.5	NA	0.0000		9999	4660	0	0	0
2019/03/27 03:10:00	BASE	21.31	25	24.18	28	3.3	88	1.5	0	0	975.4	NA	0.0000		9999	4170	0	0	0
2019/03/27 03:11:00	BASE	20.94	24	24.18	28	3.3	88	1.5	0	0	975.4	NA	0.0000		9999	3640	0	0	0
2019/03/27 03:12:00	BASE	21.38	24	24.54	26	3.3	88	1.5	0	0	975.4	NA	0.0000		9999	3580	0	0	0
2019/03/27 03:13:00	BASE	21.23	23	24.54	26	3.3	88	1.5	0	0	975.4	NA	0.0000		9999	4590	0	0	0
2019/03/27 03:14:00	BASE	21.17	24	24.54	26	3.3	88	1.5	0	0	975.5	NA	0.0000		9999	4430	0	0	0
2019/03/27 03:15:00	BASE	21.86	26	24.54	26	3.3	88	1.4	0	0	975.4	NA	0.0000		9999	4360	5970	9120	0
2019/03/27 03:16:00	BASE	22.21	25	24.54	26	3.3	88	1.4	0	0	975.4	NA	0.0000		9999	5970	8960	0	0
2019/03/27 03:17:00	BASE	22.06	25	24.54	26	3.2	88	1.4	0	0	975.3	NA	0.0000		9999	5870	0	0	0
2019/03/27 03:18:00	BASE	22.41	25	24.54	26	3.2	88	1.4	0	0	975.3	NA	0.0000		9999	4360	5680	0	0
2019/03/27 03:19:00	BASE	22.67	23	24.85	26	3.2	88	1.4	0	0	975.3	NA	0.0000		9999	5580	0	0	0
2019/03/27 03:20:00	BASE	21.97	23	24.85	26	3.2	88	1.4	0	0	975.4	NA	0.0000		9999	5510	0	0	0
2019/03/27 03:21:00	BASE	20.67	25	24.85	26	3.2	88	1.4	0	0	975.4	NA	0.0000		9999	5220	0	0	0
2019/03/27 03:22:00	BASE	20.42	26	24.85	26	3.2	88	1.4	0	0	975.4	NA	0.0000		9999	4590	0	0	0
2019/03/27 03:23:00	BASE	21.31	26	24.85	26	3.2	88	1.4	0	0	975.4	NA	0.0000		9999	4690	0	0	0
2019/03/27 03:24:00	BASE	21.40	25	24.85	26	3.2	88	1.4	0	0	975.4	NA	0.0000		9999	4720	0	0	0
2019/03/27 03:25:00	BASE	20.76	24	24.85	26	3.2	88	1.4	0	0	975.4	NA	0.0000		9999	4690	0	0	0
2019/03/27 03:26:00	BASE	20.26	24	24.85	26	3.2	89	1.5	0	0	975.4	NA	0.0000		9999	4630	0	0	0
2019/03/27 03:27:00	BASE	20.26	24	24.85	26	3.2	89	1.5	0	0	975.4	NA	0.0000		9999	4490	0	0	0
2019/03/27 03:28:00	BASE	20.57	24	24.85	26	3.2	89	1.6	0	0	975.4	NA	0.0000		9999	4530	0	0	0
2019/03/27 03:29:00	BASE	20.17	26	23.82	25	3.3	89	1.6	0	0	975.3	NA	0.0000		9999	3580	5020	0	0
2019/03/27 03:30:00	BASE	19.65	26	23.66	20	3.3	89	1.6	0	0	975.4	NA	0.0000		9999	3280	0	0	0
2019/03/27 03:31:00	BASE	20.87	25	23.97	26	3.3	88	1.5	0	0	975.3	NA	0.0000		9999	5050	7350	0	0
2019/03/27 03:32:00	BASE	21.78	27	23.97	26	3.2	88	1.5	0	0	975.3	NA	0.0000		9999	2890	0	0	0
2019/03/27 03:33:00	BASE	20.98	25	23.97	26	3.2	88	1.4	0	0	975.3	NA	0.0000		9999	5610	0	0	0
2019/03/27 03:34:00	BASE	19.78	26	23.97	26	3.1	88	1.4	0	0	975.3	NA	0.0000		9999	5640	7320	0	0
2019/03/27 03:35:00	BASE	19.67	29	23.97	26	3.1	88	1.4	0	0	975.3	NA	0.0000		9999	6000	0	0	0
2019/03/27 03:36:00	BASE	20.30	27	23.97	26	3.1	89	1.4	0	0	975.3	NA	0.0000		9999	5380	0	0	0
2019/03/27 03:37:00	BASE	20.60	27	23.97	26	3.1	89	1.5	0	0	975.2	NA	0.0000	UP	9999	5940	7150	0	0
2019/03/27 03:38:00	BASE	20.42	27	23.97	26	3.0	90	1.6	0	0	975.3	NA	0.0000	UP	9999	7120	0	0	0
2019/03/27 03:39:00	BASE	20.52	26	23.97	26	3.0	90	1.6	0	0	975.2	NA	0.0000	UP	9999	6990	7480	0	0
2019/03/27 03:40:00	BASE	21.35	27	23.97	26	3.0	91	1.7	0	0	975.2	NA	0.0000	UP	9999	4000	7510	0	0
2019/03/27 03:41:00	BASE	21.44	27	23.41	29	3.0	91	1.7	0	0	975.2	NA	0.0000	UP	9999	3840	0	0	0
2019/03/27 03:42:00	BASE	21.75	27	24.95	26	2.9	92	1.7	0	0	975.1	NA	0.0000	UP	9999	4790	6400	0	0
2019/03/27 03:43:00	BASE	21.76	26	24.95	26	2.9	92	1.7	0	0	975.1	NA	0.0000	UP	9999	4530	6330	0	0
2019/03/27 03:44:00	BASE	21.40	26	24.95	26	2.9	92	1.7	0	0	975.1	NA	0.0000	UP	9999	3900	0	0	0
2019/03/27 03:45:00	BASE	21.67	27	24.95	26	2.8	93	1.8	0	0	975.1	NA	0.0000	UP	9999	4230	0	0	0
2019/03/27 03:46:00	BASE	21.48	27	24.95	26	2.8	93	1.8	0	0	975.1	NA	0.0000		9999	4000	0	0	0
2019/03/27 03:47:00	BASE	21.38	27	24.95	26	2.8	94	1.9	0	0	975.1	NA	0.0000		9999	3050	0	0	0
2019/03/27 03:48:00	BASE	22.11	26	24.95	26	2.9	94	2.0	0	0	975.1	NA	0.0000		9999	1210	0	0	0
2019/03/27 03:49:00	BASE	21.94	26	24.95	26	2.9	94	2.0	0	0	975.1	NA	0.0000		9999	1840	0	0	0
2019/03/27 03:50:00	BASE	20.95	25	24.95	26	2.9	94	2.0	0	0	975.1	NA	0.0000		9999	3580	7710	0	0
2019/03/27 03:51:00	BASE	21.26	26	24.95	26	2.9	94	2.0	0	0	975.1	NA	0.0000		9999	6230	8200	0	0
2019/03/27 03:52:00	BASE	21.04	28	24.02	26	2.9	94	2.0	0	0	975.1	NA	0.0000		9999	6140	0	0	0
2019/03/27 03:53:00	BASE	20.70	28	23.61	26	2.8	94	2.0	0	0	975.1	NA	0.0000		9999	6040	0	0	0
2019/03/27 03:54:00	BASE	21.13	25	23.61	26	2.8	94	1.9	0	0	975.1	NA	0.0000		9999	6040	0	0	0
2019/03/27 03:55:00	BASE	21.32	24	23.61	26	2.8	94	1.9	0	0	975.1	NA	0.0000		9999	5910	0	0	0
2019/03/27 03:56:00	BASE	21.08	25	23.61	26	2.8	94	1.9	0	0	975.1	NA	0.0000		9999	5680	0	0	0
2019/03/27 03:57:00	BASE	21.19	24	24.08	26	2.8	94	1.9	0	0	975.1	NA	0.0000		9999	5710	0	0	0
2019/03/27 03:58:00	BASE	21.69	24	24.08	26	2.8	94	1.9	0	0	975.0	NA	0.0000		9999	5580	0	0	0
2019/03/27 03:59:00	BASE	21.31	25	24.18	25	2.8	93	1.9	0	0	975.0	NA	0.0000		9999	5810	0	0	0
2019/03/27 04:00:00	BASE	21.35	24	24.64	24	2.8	93	1.8	0	0	975.0	NA	0.0000		9999	5510	0	0	0
2019/03/27 04:01:00	BASE	21.18	22	24.64	24	2.8	93	1.8	0	0	975.1	NA	0.0000		9999	5450	0	0	0
2019/03/27 04:03:00	BASE	20.47	22	24.64	24	2.8	93	1.8	0	0	975.1	NA	0.0000		9999	1870	5220	0	0
2019/03/27 04:04:00	BASE	20.54	23	24.64	24	2.8	93	1.8	0	0	975.1	NA	0.0000		9999	1940	0	0	0
2019/03/27 04:05:00	BASE	21.27	23	24.64	24	2.8	94	1.8	0	0	975.0	NA	0.0000		9999	1770	4200	0	0
2019/03/27 04:06:00	BASE	22.39	22	24.64	24	2.8	94	1.9	0	0	975.0	NA	0.0000		9999	1610	4230	5120	0
2019/03/27 04:07:00	BASE	21.63	22	24.64	24	2.7	94	1.9	0	0	975.0	NA	0.0000		9999	1900	4890	0	0
2019/03/27 04:08:00	BASE	20.43	22	24.64	24	2.8	94	1.9	0	0	975.0	NA	0.0000		9999	1940	4790	0	0
2019/03/27 04:09:00	BASE	21.99	20	25.36	20	2.8	94	1.9	0	0	974.9	NA	0.0000		9999	1840	4950	0	0
2019/03/27 04:10:00	BASE	22.97	19	25.36	20	2.8	94	1.9	0	0	975.0	NA	0.0000		9999	4720	0	0	0
2019/03/27 04:11:00	BASE	21.98	20	25.36	20	2.8	94	1.9	0	0	975.0	NA	0.0000		9999	1900	4660	0	0
2019/03/27 04:12:00	BASE	21.74	20	25.36	20	2.8	93	1.8	0	0	975.0	NA	0.0000		9999	4630	0	0	0
2019/03/27 04:13:00	BASE	22.04	18	25.41	20	2.8	93	1.8	0	0	975.0	NA	0.0000		9999	2000	0	0	0
2019/03/27 04:14:00	BASE	22.59	18	25.41	20	2.8	93	1.8	0	0	975.0	NA	0.0000		9999	1900	0	0	0
2019/03/27 04:15:00	BASE	22.13	18	25.41	20	2.8	93	1.8	0	0	975.1	NA	0.0000		9999	1710	0	0	0
2019/03/27 04:16:00	BASE	21.88	18	25.41	20	2.8	93	1.7	0	0	975.1	NA	0.0000		9999	1670	0	0	0
2019/03/27 04:17:00	BASE	22.55	18	25.41	20	2.8	93	1.7	0	0	975.0	NA	0.0000		9999	1610	0	0	0
2019/03/27 04:18:00	BASE	22.87	19	25.41	20	2.7	93	1.7	0	0	975.0	NA	0.0000		9999	1540	0	0	0
2019/03/27 04:19:00	BASE	22.49	20	25.41	20	2.7	93	1.8	0	0	975.1	NA	0.0000		9999	1510	0	0	0
2019/03/27 04:20:00	BASE	21.74	21	25.41	20	2.7	94	1.8	0	0	975.0	NA	0.0000		9999	1570	0	0	0
2019/03/27 04:21:00	BASE	21.26	21	25.41	20	2.7	94	1.8	0	0	975.1	NA	0.0000		9999	1710	0	0	0
2019/03/27 04:22:00	BASE	21.65	21	25.41	20	2.7	94	1.8	0	0	975.0	NA	0.0000		9999	1670	0	0	0
2019/03/27 04:23:00	BASE	21.83	21	25.26	17	2.7	94	1.8	0	0	975.0	NA	0.0000		9999	1740	0	0	0
2019/03/27 04:24:00	BASE	21.99	22	25.10	20	2.7	94	1.9	0	0	975.0	NA	0.0000		9999	1710	0	0	0
2019/03/27 04:25:00	BASE	22.12	22	25.10	20	2.7	95	1.9	0	0	975.0	NA	0.0000		9999	2230	0	0	0
2019/03/27 04:26:00	BASE	21.54	21	25.10	20	2.7	95	1.9	0	0	975.0	NA	0.0000	UP	9999	2170	4000	0	0
2019/03/27 04:27:00	BASE	21.57	20	25.10	20	2.7	95	1.9	0	0	974.9	NA	0.0000	UP	9999	2070	0	0	0
2019/03/27 04:28:00	BASE	21.72	19	24.02	26	2.6	95	1.9	0	0	974.9	NA	0.0000	UP	9999	2260	3710	0	0
2019/03/27 04:29:00	BASE	21.82	22	23.77	21	2.6	96	1.9	0	0	974.9	NA	0.0000	UP	9999	0	0	0	4890
2019/03/27 04:30:00	BASE	21.61	26	23.77	21	2.5	96	1.9	0	0	974.9	NA	0.0000	UP	9999	4300	0	0	0
2019/03/27 04:31:00	BASE	21.47	26	23.77	21	2.5	97	2.0	0	0	974.9	NA	0.0000	UP	9999	2000	0	0	0
2019/03/27 04:32:00	BASE	21.35	25	23.77	21	2.4	97	2.0	0	0	974.9	NA	0.0000	UP	9999	1800	0	0	0
2019/03/27 04:33:00	BASE	21.24	25	24.18	25	2.4	98	2.1	0	0	974.9	NA	0.0000	UP	9999	1800	4000	0	0
2019/03/27 04:34:00	BASE	21.34	24	24.18	25	2.4	98	2.1	0	0	974.9	NA	0.0000	UP	9999	1900	3580	0	0
2019/03/27 04:35:00	BASE	20.57	24	24.18	25	2.4	98	2.2	0	0	975.0	NA	0.0000	UP	9999	1610	0	0	0
2019/03/27 04:36:00	BASE	20.27	24	24.18	25	2.4	98	2.2	0	0	975.0	NA	0.0000	UP	9999	1640	0	0	0
2019/03/27 04:37:00	BASE	21.59	24	24.38	26	2.4	99	2.2	0	0	974.9	NA	0.0000	UP	9999	1640	0	0	0
2019/03/27 04:38:00	BASE	21.94	23	24.38	26	2.4	99	2.2	0	0	974.9	NA	0.0000	UP	9999	1510	0	0	0
2019/03/27 04:39:00	BASE	22.10	23	24.38	26	2.4	99	2.3	0	0	974.9	NA	0.0000	UP	9999	1480	0	0	0
2019/03/27 04:40:00	BASE	21.55	22	24.38	26	2.4	99	2.3	0	0	975.0	NA	0.0000	UP	9999	1610	0	0	0
2019/03/27 04:41:00	BASE	20.69	21	24.38	26	2.4	99	2.2	0	0	974.9	NA	0.0000	UP	9999	3640	0	0	0
2019/03/27 04:42:00	BASE	21.43	21	24.38	26	2.4	99	2.2	0	0	974.9	NA	0.0000		9999	1770	2950	0	0
2019/03/27 04:43:00	BASE	22.38	21	24.38	26	2.3	99	2.2	0	0	974.8	NA	0.0000		9999	0	0	0	4040
2019/03/27 04:44:00	BASE	22.74	21	24.38	26	2.3	99	2.2	0	0	974.8	NA	0.0000	UP	9999	460	0	0	0
2019/03/27 04:45:00	BASE	22.69	20	24.38	26	2.3	100	2.2	0	0	974.8	NA	0.0000	UP	9999	590	0	0	0
2019/03/27 04:46:00	BASE	21.65	17	24.38	26	2.2	100	2.2	0	0	974.9	NA	0.0000	UP	8000	360	0	0	0
2019/03/27 04:47:00	BASE	20.03	16	24.18	19	2.2	100	2.2	0	0	974.9	NA	0.0000	-SN	6000	660	0	0	0
2019/03/27 04:48:00	BASE	20.89	19	24.44	24	2.1	100	2.1	0	0	974.8	NA	0.0000	-SN	7000	850	0	0	0
2019/03/27 04:49:00	BASE	22.71	21	24.49	20	2.1	100	2.1	0	0	974.8	NA	0.0000	-SN	9000	0	0	0	3740
2019/03/27 04:50:00	BASE	22.92	21	24.49	20	2.1	100	2.1	0	0	974.8	NA	0.0000	-SN	9999	0	0	0	4400
2019/03/27 04:51:00	BASE	22.76	20	24.49	20	2.1	100	2.1	0	0	974.8	NA	0.0000	-SN BR	8000	0	0	0	3810
2019/03/27 04:52:00	BASE	23.16	20	24.64	18	2.2	100	2.2	0	0	974.8	NA	0.0000	-SN BR	9999	2720	0	0	0
2019/03/27 04:53:00	BASE	23.18	20	24.64	18	2.2	100	2.2	0	0	974.8	NA	0.0000	-SN BR	9999	2560	0	0	0
2019/03/27 04:54:00	BASE	23.35	20	24.64	15	2.2	100	2.2	0	0	974.7	NA	0.0000	-SN BR	9999	2690	3640	0	0
2019/03/27 04:55:00	BASE	23.53	19	25.00	17	2.2	100	2.2	0	0	974.8	NA	0.0000	-SN	9999	2590	3610	0	0
2019/03/27 04:56:00	BASE	23.09	20	25.00	17	2.2	100	2.2	0	0	974.7	NA	0.0000	-SN	9999	2530	3640	0	0
2019/03/27 04:57:00	BASE	23.58	20	26.80	22	2.2	100	2.2	0	0	974.7	NA	0.0000	-SN	9999	2590	0	0	0
2019/03/27 04:58:00	BASE	24.02	20	26.80	22	2.2	100	2.2	0	0	974.7	NA	0.0000	-SN	9999	2690	3380	5680	0
2019/03/27 04:59:00	BASE	23.75	20	26.80	22	2.2	100	2.2	0	0	974.6	NA	0.0000	-SN	9999	2690	5810	0	0
2019/03/27 05:00:00	BASE	23.60	19	26.80	22	2.2	100	2.2	0	0	974.6	NA	0.0000	-SN	9999	5540	0	0	0
2019/03/27 05:01:00	BASE	23.73	16	26.80	22	2.3	100	2.3	0	0	974.6	NA	0.0000		9999	2820	0	0	0
2019/03/27 05:02:00	BASE	23.95	16	26.80	22	2.3	100	2.3	0	0	974.6	NA	0.0000		9999	2920	0	0	0
2019/03/27 05:03:00	BASE	24.40	18	26.80	22	2.4	100	2.4	0	0	974.5	NA	0.0000		9999	3870	0	0	0
2019/03/27 05:04:00	BASE	24.62	20	26.80	22	2.4	100	2.4	0	0	974.5	NA	0.0000		9999	4790	0	0	0
2019/03/27 05:05:00	BASE	24.94	23	27.93	20	2.5	100	2.5	0	0	974.3	NA	0.0000	-SN	9999	4920	0	0	0
2019/03/27 05:06:00	BASE	25.18	25	27.93	20	2.5	100	2.5	0	0	974.4	NA	0.0000	-SN	9999	5220	0	0	0
2019/03/27 05:07:00	BASE	24.55	25	27.93	20	2.5	100	2.5	0	0	974.3	NA	0.0000	-SN	9999	5410	0	0	0
2019/03/27 05:08:00	BASE	25.13	24	27.93	20	2.5	100	2.5	0	0	974.2	NA	0.0000	-SN	9999	5150	0	0	0
2019/03/27 05:09:00	BASE	26.05	23	28.40	19	2.5	100	2.5	0	0	974.1	NA	0.0000	-SN	9999	5320	0	0	0
2019/03/27 05:10:00	BASE	24.86	19	28.40	19	2.5	100	2.5	0	0	974.3	NA	0.0000	-SN	9999	5480	0	0	0
2019/03/27 05:11:00	BASE	23.73	18	28.40	19	2.5	100	2.5	0	0	974.2	NA	0.0000	-SN	9999	5280	0	0	0
2019/03/27 05:12:00	BASE	24.35	19	28.40	19	2.5	100	2.5	0	0	974.1	NA	0.0000	-SN	9999	4890	0	0	0
2019/03/27 05:13:00	BASE	24.42	20	28.40	19	2.5	100	2.5	0	0	974.1	NA	0.0000	-SN	9999	4660	0	0	0
2019/03/27 05:14:00	BASE	22.64	20	28.40	19	2.5	100	2.5	0	0	974.2	NA	0.0000	-SN	9999	4560	0	0	0
2019/03/27 05:15:00	BASE	23.88	22	28.40	19	2.5	100	2.5	0	0	974.1	NA	0.0000	-SN	9999	4490	5120	0	0
2019/03/27 05:16:00	BASE	26.28	24	28.40	19	2.5	100	2.5	0	0	974.0	NA	0.0000	-SN	9999	4990	0	0	0
2019/03/27 05:17:00	BASE	25.67	23	28.40	19	2.5	100	2.5	0	0	974.0	NA	0.0000	-SN	9999	4950	10300	0	0
2019/03/27 05:18:00	BASE	24.27	24	28.40	19	2.5	100	2.5	0	0	974.0	NA	0.0000	-SN	9999	10370	0	0	0
2019/03/27 05:19:00	BASE	24.01	26	27.68	24	2.5	100	2.5	0	0	974.0	NA	0.0000	-SN	9999	4690	10660	0	0
2019/03/27 05:20:00	BASE	24.53	26	27.68	24	2.5	100	2.5	0	0	974.0	NA	0.0000	-SN	9999	10370	0	0	0
2019/03/27 05:21:00	BASE	23.92	27	27.68	24	2.6	100	2.5	0	0	973.9	NA	0.0000	-SN	9999	10660	0	0	0
2019/03/27 05:22:00	BASE	23.62	27	27.68	24	2.6	100	2.5	0	0	973.8	NA	0.0000		9999	9320	0	0	0
2019/03/27 05:23:00	BASE	24.03	28	27.68	24	2.6	99	2.5	0	0	973.8	NA	0.0000		9999	9120	0	0	0
2019/03/27 05:24:00	BASE	24.08	26	27.68	24	2.6	99	2.4	0	0	973.8	NA	0.0000		9999	9650	0	0	0
2019/03/27 05:25:00	BASE	24.12	25	27.68	24	2.6	98	2.4	0	0	973.7	NA	0.0000		9999	9510	0	0	0
2019/03/27 05:26:00	BASE	24.17	27	28.19	25	2.7	98	2.4	0	0	973.8	NA	0.0000		9999	9610	10470	0	0
2019/03/27 05:27:00	BASE	23.66	27	28.19	25	2.7	98	2.4	0	0	973.7	NA	0.0000		9999	9320	10300	0	0
2019/03/27 05:28:00	BASE	23.74	25	28.19	25	2.7	97	2.3	0	0	973.8	NA	0.0000		9999	8960	0	0	0
2019/03/27 05:29:01	BASE	24.21	26	28.19	25	2.7	97	2.3	0	0	973.7	NA	0.0000		9999	9710	0	0	0
2019/03/27 05:30:01	BASE	24.69	27	28.19	25	2.7	97	2.3	0	0	973.7	NA	0.0000		9999	8660	9970	0	0
2019/03/27 05:31:00	BASE	24.01	27	28.19	25	2.7	97	2.2	0	0	973.7	NA	0.0000		9999	8730	10790	0	0
2019/03/27 05:32:00	BASE	23.40	26	28.19	25	2.6	97	2.2	0	0	973.7	NA	0.0000		9999	8170	10370	0	0
2019/03/27 05:33:00	BASE	24.55	26	28.19	25	2.6	97	2.2	0	0	973.7	NA	0.0000		9999	7740	0	0	0
2019/03/27 05:34:00	BASE	24.80	25	28.19	25	2.6	97	2.2	0	0	973.7	NA	0.0000		9999	7940	0	0	0
2019/03/27 05:35:01	BASE	24.74	25	28.19	25	2.5	97	2.2	0	0	973.7	NA	0.0000		9999	9090	0	0	0
2019/03/27 05:36:01	BASE	26.34	23	29.22	25	2.5	98	2.2	0	0	973.7	NA	0.0000		9999	7940	0	0	0
2019/03/27 05:37:00	BASE	27.26	22	29.48	25	2.5	98	2.3	0	0	973.7	NA	0.0000		9999	4460	0	0	0
2019/03/27 05:38:00	BASE	27.38	21	29.94	21	2.5	99	2.3	0	0	973.7	NA	0.0000		9999	7610	0	0	0
2019/03/27 05:39:00	BASE	27.60	23	29.94	21	2.5	99	2.3	0	0	973.7	NA	0.0000		9999	0	0	0	0
2019/03/27 05:40:00	BASE	27.10	24	29.94	21	2.4	99	2.4	0	0	973.7	NA	0.0000		9999	4360	0	0	0
2019/03/27 05:41:00	BASE	26.57	23	29.94	21	2.4	100	2.4	0	0	973.7	NA	0.0000		9999	4400	0	0	0
2019/03/27 05:42:00	BASE	26.42	24	29.94	21	2.4	100	2.4	0	0	973.7	NA	0.0000		9999	4430	0	0	0
2019/03/27 05:43:00	BASE	26.33	25	30.15	18	2.4	100	2.4	0	0	973.6	NA	0.0000		9999	4560	0	0	0
2019/03/27 05:44:00	BASE	27.31	23	30.30	27	2.3	100	2.3	0	0	973.5	NA	0.0000		9999	4820	0	0	0
2019/03/27 05:45:00	BASE	28.27	24	30.30	27	2.3	100	2.3	0	0	973.5	NA	0.0000		9999	5120	0	0	0
2019/03/27 05:46:00	BASE	27.37	24	30.30	27	2.3	100	2.3	0	0	973.5	NA	0.0000		9999	5120	0	0	0
2019/03/27 05:47:00	BASE	26.20	24	30.30	27	2.3	100	2.3	0	0	973.5	NA	0.0000		9999	4760	0	0	0
2019/03/27 05:48:00	BASE	25.92	24	30.51	20	2.3	100	2.3	0	0	973.5	NA	0.0000		9999	5320	0	0	0
2019/03/27 05:49:01	BASE	26.27	25	30.51	20	2.3	100	2.3	0	0	973.5	NA	0.0000		9999	7780	0	0	0
2019/03/27 05:50:01	BASE	25.75	25	30.51	20	2.3	100	2.3	0	0	973.6	NA	0.0000		9999	5840	0	0	0
2019/03/27 05:51:01	BASE	26.20	23	32.00	19	2.3	100	2.3	0	0	973.6	NA	0.0000		9999	4590	5610	0	0
2019/03/27 05:52:00	BASE	26.44	22	32.00	19	2.3	100	2.3	0	0	973.6	NA	0.0000		9999	3870	5350	0	0
2019/03/27 05:53:00	BASE	26.33	21	32.00	19	2.2	100	2.2	0	0	973.6	NA	0.0000		9999	4430	0	0	0
2019/03/27 05:54:00	BASE	27.81	21	32.00	19	2.2	100	2.2	0	0	973.6	NA	0.0000		9999	4330	0	0	0
2019/03/27 05:55:00	BASE	27.15	19	32.00	19	2.2	100	2.2	0	0	973.8	NA	0.0000		9999	4720	0	0	0
2019/03/27 05:56:00	BASE	25.71	17	32.00	19	2.2	100	2.2	0	0	973.9	NA	0.0000		9999	4560	0	0	0
2019/03/27 05:57:00	BASE	26.38	17	32.00	19	2.2	100	2.2	0	0	973.9	NA	0.0000		9999	4660	0	0	0
2019/03/27 05:58:00	BASE	26.73	17	32.00	19	2.2	100	2.2	0	0	974.0	NA	0.0000		9999	0	0	0	4200
2019/03/27 05:59:00	BASE	26.59	17	32.00	19	2.2	100	2.2	0	0	974.0	NA	0.0000		9999	3640	0	0	0
2019/03/27 06:00:00	BASE	26.79	16	32.00	19	2.1	100	2.1	0	0	974.0	NA	0.0000		9999	2430	0	0	0
2019/03/27 06:01:00	BASE	26.08	16	30.51	17	2.1	100	2.1	0	0	974.1	NA	0.0000		9999	2230	2920	0	0
2019/03/27 06:02:00	BASE	25.57	15	30.51	17	2.1	100	2.1	0	0	974.1	NA	0.0000	UP	9999	1480	0	0	0
2019/03/27 06:03:00	BASE	24.69	17	30.51	17	2.0	100	2.0	0	0	974.2	NA	0.0000	UP	9999	560	0	0	0
2019/03/27 06:04:00	BASE	24.01	20	29.73	20	2.0	100	2.0	0	0	974.2	NA	0.0000	UP	9999	560	0	0	0
2019/03/27 06:05:00	BASE	24.55	22	29.73	20	2.0	100	2.0	0	0	974.1	NA	0.0000	UP	9999	490	0	0	0
2019/03/27 06:06:00	BASE	24.55	21	29.73	20	2.0	100	2.0	0	0	974.0	NA	0.0000	UP	9999	360	0	0	0
2019/03/27 06:07:00	BASE	23.49	22	29.73	20	1.9	100	1.9	0	0	974.1	NA	0.0000	UP	9999	300	0	0	0
2019/03/27 06:08:00	BASE	23.27	22	29.73	20	1.9	100	1.9	0	0	974.0	NA	0.0000	UP	8000	330	0	0	0
2019/03/27 06:09:00	BASE	24.04	22	29.07	17	1.9	100	1.9	0	0	974.0	NA	0.0000	-SN	8000	2260	3250	0	0
2019/03/27 06:10:00	BASE	25.18	22	27.47	19	1.9	100	1.9	0	0	973.9	NA	0.0000	-SN	9999	1900	0	0	0
2019/03/27 06:11:00	BASE	25.78	21	27.47	19	1.9	100	1.9	0	0	974.0	NA	0.0000	-SN	9999	1310	2130	0	0
2019/03/27 06:12:00	BASE	25.69	22	27.68	21	1.9	100	1.9	0	0	973.9	NA	0.0000	-SN	9999	1180	0	0	0
2019/03/27 06:13:00	BASE	25.59	23	27.68	21	1.9	100	1.9	0	0	973.9	NA	0.0000	-SN	9999	820	0	0	0
2019/03/27 06:14:00	BASE	25.43	24	27.68	21	2.0	100	2.0	0	0	973.9	NA	0.0000	-SN	9000	0	0	0	3970
2019/03/27 06:15:00	BASE	25.20	23	27.68	21	2.0	100	2.0	0	0	973.9	NA	0.0000	-SN	9999	0	0	0	3740
2019/03/27 06:16:00	BASE	25.20	22	27.68	21	2.0	100	2.0	0	0	973.9	NA	0.0000	-SN	9999	0	0	0	4040
2019/03/27 06:17:00	BASE	24.25	24	27.68	21	2.0	100	2.0	0	0	973.9	NA	0.0000	-SN BR	6000	0	0	0	4000
2019/03/27 06:18:00	BASE	23.14	24	27.68	21	2.0	100	2.0	0	0	974.0	NA	0.2540	-SN BR	6000	390	0	0	0
2019/03/27 06:19:00	BASE	23.53	23	27.68	21	2.0	100	2.0	0	0	973.9	NA	0.0000	-SN BR	6000	430	0	0	0
2019/03/27 06:20:00	BASE	24.44	24	27.68	21	2.0	100	2.0	0	0	973.9	NA	0.0000	-SN BR	4400	720	0	0	0
2019/03/27 06:21:00	BASE	24.64	24	27.68	21	2.0	100	2.0	0	0	973.9	NA	0.0000	-SN BR	3100	360	0	0	0
2019/03/27 06:22:11	BASE	23.50	21	27.42	25	2.0	100	2.0	0	0	974.0	NA	0.0000	-SN BR	2800	750	0	0	0
2019/03/27 06:23:00	BASE	22.31	19	27.42	25	2.0	100	2.0	0	0	974.1	NA	0.0000	-SN BR	2700	330	0	0	0
2019/03/27 06:24:00	BASE	21.66	17	27.21	24	1.9	100	1.9	0	0	974.2	NA	0.2540	-SN BR	2400	360	0	0	0
2019/03/27 06:25:00	BASE	21.26	15	27.21	24	1.8	100	1.8	0	0	974.2	NA	0.0000	-SN BR	2800	260	0	0	0
2019/03/27 06:26:00	BASE	21.51	15	27.21	24	1.8	100	1.8	0	0	974.2	NA	0.0000	-SN BR	1900	0	0	0	1280
2019/03/27 06:27:00	BASE	22.41	14	27.21	24	1.7	100	1.7	0	0	974.2	NA	0.2540	-SN BR	1800	0	0	0	1120
2019/03/27 06:28:00	BASE	22.30	11	27.21	24	1.6	100	1.6	0	0	974.3	NA	0.0000	-SN BR	2400	0	0	0	1210
2019/03/27 06:29:00	BASE	21.42	10	26.65	17	1.6	100	1.6	0	0	974.3	NA	0.0000	-SN BR	2400	0	0	0	1120
2019/03/27 06:30:01	BASE	23.13	8	28.19	14	1.5	100	1.5	0	0	974.1	NA	0.2540	-SN BR	2100	0	0	0	1080
2019/03/27 06:31:01	BASE	23.29	3	28.19	14	1.5	100	1.5	0	0	974.3	NA	0.0000	-SN BR	2800	0	0	0	1050
2019/03/27 06:32:01	BASE	21.13	2	28.19	14	1.4	100	1.4	0	0	974.2	NA	0.0000	-SN BR	4700	0	0	0	1180
2019/03/27 06:33:01	BASE	23.35	4	28.19	14	1.4	100	1.4	0	0	974.0	NA	0.2540	-SN BR	3300	300	0	0	0
2019/03/27 06:34:01	BASE	26.05	5	28.19	14	1.4	100	1.4	0	0	973.9	NA	0.0000	-SN BR	2700	390	0	0	0
2019/03/27 06:35:01	BASE	26.34	6	29.12	12	1.4	100	1.4	0	0	973.9	NA	0.2540	-SN BR	2900	430	0	0	0
2019/03/27 06:36:00	BASE	26.38	7	29.32	11	1.4	100	1.4	0	0	973.9	NA	0.0000	-SN BR	3400	620	0	0	0
2019/03/27 06:37:00	BASE	27.24	10	29.58	12	1.5	100	1.5	0	0	973.9	NA	0.0000	-SN BR	3800	660	0	0	0
2019/03/27 06:38:00	BASE	26.90	14	29.58	12	1.5	100	1.5	0	0	974.0	NA	0.0000	-SN BR	4000	750	0	0	0
2019/03/27 06:39:00	BASE	25.90	14	29.58	12	1.5	100	1.5	0	0	973.9	NA	0.2540	-SN BR	4000	0	0	0	2590
2019/03/27 06:40:00	BASE	26.41	15	29.58	12	1.4	100	1.4	0	0	973.9	NA	0.0000	-SN BR	3600	920	0	0	0
2019/03/27 06:41:00	BASE	26.70	15	29.58	12	1.4	100	1.4	0	0	973.9	NA	0.0000	-SN BR	3900	0	0	0	2790
2019/03/27 06:42:01	BASE	26.74	16	29.58	12	1.4	100	1.4	0	0	973.9	NA	0.0000	-SN BR	3400	490	0	0	0
2019/03/27 06:43:00	BASE	26.50	17	29.58	12	1.4	100	1.4	0	0	973.9	NA	0.0000	-SN BR	3000	0	0	0	3080
2019/03/27 06:44:01	BASE	25.17	15	29.58	12	1.4	100	1.4	0	0	974.0	NA	0.0000	-SN BR	3900	0	0	0	2920
2019/03/27 06:45:01	BASE	23.64	12	29.58	12	1.4	100	1.4	0	0	974.0	NA	0.0000	-SN BR	4500	0	0	0	2690
2019/03/27 06:46:01	BASE	23.36	10	29.58	12	1.5	100	1.5	0	0	974.0	NA	0.0000	-SN BR	5000	590	0	0	0
2019/03/27 06:47:00	BASE	23.29	12	28.65	16	1.5	100	1.5	0	0	974.0	NA	0.0000	-SN BR	7000	0	0	0	2720
2019/03/27 06:48:00	BASE	22.62	15	28.65	16	1.5	100	1.5	0	0	974.0	NA	0.0000	-SN BR	5000	460	0	0	0
2019/03/27 06:49:00	BASE	22.94	15	28.65	16	1.6	100	1.6	0	0	974.0	NA	0.0000	-SN BR	5000	0	0	0	3080
2019/03/27 06:50:00	BASE	22.41	14	28.65	16	1.6	100	1.6	0	0	974.1	NA	0.0000	-SN BR	5000	460	0	0	0
2019/03/27 06:51:00	BASE	21.73	11	28.65	16	1.6	100	1.6	0	0	974.0	NA	0.2540	-SN BR	7000	520	0	0	0
2019/03/27 06:52:00	BASE	22.45	10	27.57	10	1.6	100	1.6	0	0	974.0	NA	0.0000	-SN BR	9999	460	0	0	0
2019/03/27 06:53:01	BASE	22.20	9	26.24	17	1.7	100	1.7	0	0	974.0	NA	0.0000	-SN BR	9999	0	0	0	3080
2019/03/27 06:54:01	BASE	22.28	9	26.08	7	1.7	100	1.7	0	0	974.0	NA	0.0000	-SN BR	9999	690	0	0	0
2019/03/27 06:55:01	BASE	22.55	11	26.08	7	1.8	100	1.8	0	0	974.0	NA	0.0000	-SN BR	9999	0	0	0	3350
2019/03/27 06:56:01	BASE	23.42	13	25.77	9	1.8	100	1.8	0	0	973.9	NA	0.0000	-SN BR	9999	0	0	0	3810
2019/03/27 06:57:01	BASE	24.13	12	25.77	9	1.8	100	1.8	0	0	973.9	NA	0.0000	-SN BR	9999	3610	0	0	0
2019/03/27 06:58:01	BASE	23.33	11	25.77	9	1.9	100	1.9	0	0	974.0	NA	0.0000	-SN BR	9999	3870	0	0	0
2019/03/27 06:59:01	BASE	23.17	10	27.21	4	1.9	100	1.9	0	0	973.9	NA	0.0000	-SN	9999	8600	0	0	0
2019/03/27 07:00:00	BASE	23.20	7	27.21	4	1.9	100	1.9	0	0	974.0	NA	0.0000	-SN	9999	8010	0	0	0
2019/03/27 07:01:00	BASE	23.72	9	27.21	4	1.9	100	1.9	0	0	973.9	NA	0.0000	-SN	9999	2990	8300	9970	0
2019/03/27 07:02:00	BASE	23.58	12	27.21	4	2.0	100	2.0	0	0	974.0	NA	0.0000	-SN	9999	7250	9480	0	0
2019/03/27 07:03:00	BASE	22.45	12	27.21	4	2.0	100	2.0	0	0	974.0	NA	0.0000		9999	8200	9550	0	0
2019/03/27 07:04:00	BASE	22.30	13	27.21	4	2.0	100	2.0	0	0	974.0	NA	0.0000		9999	4760	9320	0	0
2019/03/27 07:05:00	BASE	23.31	14	27.21	4	2.0	100	2.0	0	0	973.9	NA	0.0000		9999	8270	9610	0	0
2019/03/27 07:06:00	BASE	22.83	12	27.21	4	2.0	100	2.0	0	0	974.0	NA	0.0000		9999	8330	9740	0	0
2019/03/27 07:07:00	BASE	21.81	9	27.21	4	2.0	100	2.0	0	0	974.0	NA	0.0000		9999	2950	3670	0	0
2019/03/27 07:08:00	BASE	21.72	8	27.21	4	2.0	100	2.0	0	0	974.0	NA	0.0000		9999	3580	0	0	0
2019/03/27 07:09:00	BASE	21.64	6	26.85	13	2.1	100	2.1	0	0	974.0	NA	0.0000		9999	3610	8530	0	0
2019/03/27 07:10:00	BASE	22.34	6	26.85	13	2.1	100	2.1	0	0	973.9	NA	0.0000		9999	4040	0	0	0
2019/03/27 07:11:00	BASE	23.02	7	26.85	13	2.2	100	2.2	0	0	973.9	NA	0.0000		9999	1970	3970	0	0
2019/03/27 07:12:00	BASE	23.28	8	25.10	12	2.3	100	2.3	0	0	974.0	NA	0.0000		9999	4300	0	0	0
2019/03/27 07:13:00	BASE	23.05	9	26.29	9	2.3	100	2.3	0	0	973.9	NA	0.0000		9999	4170	0	0	0
2019/03/27 07:14:00	BASE	23.60	9	26.65	8	2.3	100	2.3	0	0	973.9	NA	0.0000		9999	4040	0	0	0
2019/03/27 07:15:00	BASE	23.81	9	26.65	8	2.2	100	2.2	0	0	973.9	NA	0.0000		9999	3480	4170	0	0
2019/03/27 07:16:00	BASE	22.62	8	26.65	8	2.2	100	2.2	0	0	974.0	NA	0.0000		9999	3280	0	0	0
2019/03/27 07:17:00	BASE	22.00	8	26.65	8	2.2	100	2.2	0	0	974.0	NA	0.0000		9999	3180	0	0	0
2019/03/27 07:18:00	BASE	22.31	7	26.65	8	2.2	100	2.2	0	0	974.0	NA	0.0000		9999	2530	2990	0	0
2019/03/27 07:19:00	BASE	22.65	9	26.65	8	2.2	100	2.2	0	0	974.0	NA	0.0000		9999	1800	0	0	0
2019/03/27 07:20:01	BASE	22.32	14	26.65	8	2.2	100	2.2	0	0	974.1	NA	0.0000		9999	4100	6660	0	0
2019/03/27 07:21:01	BASE	21.64	14	26.65	8	2.2	100	2.2	0	0	974.1	NA	0.0000		9999	1900	0	0	0
2019/03/27 07:22:01	BASE	20.79	12	26.65	8	2.2	100	2.2	0	0	974.1	NA	0.0000		9999	1840	0	0	0
2019/03/27 07:23:01	BASE	20.87	13	26.65	8	2.1	100	2.1	0	0	974.0	NA	0.0000		9999	1940	3840	0	0
2019/03/27 07:24:00	BASE	22.05	14	25.77	8	2.1	100	2.1	0	0	974.0	NA	0.0000		9999	2990	3970	0	0
2019/03/27 07:25:00	BASE	22.95	14	25.00	9	2.1	100	2.1	0	0	974.0	NA	0.0000		9999	4000	0	0	0
2019/03/27 07:26:00	BASE	22.51	15	25.00	9	2.1	100	2.1	0	0	974.0	NA	0.0000		9999	4130	0	0	0
2019/03/27 07:27:00	BASE	21.29	16	25.00	9	2.1	100	2.1	0	0	974.1	NA	0.0000		9999	1900	4200	0	0
2019/03/27 07:28:00	BASE	21.04	15	25.00	9	2.1	100	2.1	0	0	974.0	NA	0.0000		9999	4070	0	0	0
2019/03/27 07:29:00	BASE	20.89	15	25.00	9	2.1	100	2.1	0	0	974.0	NA	0.0000		9999	4000	0	0	0
2019/03/27 07:30:00	BASE	21.56	16	25.00	9	2.2	100	2.2	0	0	974.0	NA	0.0000		9999	1900	4070	0	0
2019/03/27 07:31:00	BASE	22.95	17	25.72	13	2.2	100	2.2	0	0	973.9	NA	0.0000		9999	4100	6820	0	0
2019/03/27 07:32:01	BASE	23.40	18	25.72	13	2.3	100	2.2	0	0	974.0	NA	0.0000		9999	4130	8330	0	0
2019/03/27 07:33:01	BASE	23.61	20	25.72	13	2.3	100	2.3	0	0	973.9	NA	0.0000		9999	4200	8460	0	0
2019/03/27 07:34:01	BASE	22.87	19	25.72	13	2.3	100	2.3	0	0	973.9	NA	0.0000		9999	3810	6890	8560	0
2019/03/27 07:35:01	BASE	21.62	16	25.72	13	2.3	100	2.3	0	0	974.0	NA	0.0000		9999	3940	8400	0	0
2019/03/27 07:36:01	BASE	21.99	17	25.72	13	2.3	100	2.3	0	0	974.0	NA	0.0000		9999	3840	8430	0	0
2019/03/27 07:37:01	BASE	22.36	19	25.72	13	2.3	100	2.3	0	0	973.9	NA	0.0000		9999	3970	8400	0	0
2019/03/27 07:38:01	BASE	21.59	16	25.72	13	2.3	100	2.3	0	0	974.0	NA	0.0000		9999	2200	8370	0	0
2019/03/27 07:39:01	BASE	20.84	16	25.72	13	2.3	100	2.3	0	0	974.0	NA	0.0000		9999	2100	8400	0	0
2019/03/27 07:40:01	BASE	20.47	16	25.72	13	2.3	100	2.3	0	0	974.0	NA	0.0000		9999	2200	8430	0	0
2019/03/27 07:41:00	BASE	20.09	16	24.85	26	2.3	100	2.3	0	0	974.0	NA	0.0000		9999	2070	0	0	0
2019/03/27 07:42:00	BASE	19.93	17	24.85	26	2.3	100	2.3	0	0	974.1	NA	0.0000		9999	1940	0	0	0
2019/03/27 07:43:00	BASE	20.01	16	24.13	19	2.3	100	2.3	0	0	974.1	NA	0.0000		9999	1940	0	0	0
2019/03/27 07:44:00	BASE	19.65	16	24.13	19	2.3	100	2.3	0	0	974.1	NA	0.0000		9999	1940	0	0	0
2019/03/27 07:45:00	BASE	19.02	18	24.13	19	2.3	100	2.3	0	0	974.1	NA	0.0000		9999	1800	2430	0	0
2019/03/27 07:46:00	BASE	19.34	18	23.72	17	2.3	100	2.3	0	0	974.1	NA	0.0000		9999	1800	0	0	0
2019/03/27 07:47:00	BASE	20.03	17	22.64	9	2.3	100	2.3	0	0	974.1	NA	0.0000		9999	1900	0	0	0
2019/03/27 07:48:00	BASE	20.26	19	21.86	19	2.3	100	2.3	0	0	974.1	NA	0.0000		9999	2030	2720	0	0
2019/03/27 07:49:00	BASE	20.17	20	21.86	19	2.3	100	2.3	0	0	974.1	NA	0.0000		9999	2260	3540	0	0
2019/03/27 07:50:00	BASE	20.19	20	22.38	19	2.3	100	2.3	0	0	974.0	NA	0.0000		9999	2030	0	0	0
2019/03/27 07:51:00	BASE	20.79	21	22.38	19	2.3	100	2.3	0	0	974.0	NA	0.0000		9999	2000	0	0	0
2019/03/27 07:52:00	BASE	20.51	23	22.38	19	2.4	100	2.4	0	0	974.0	NA	0.0000		9999	2130	0	0	0
2019/03/27 07:53:01	BASE	20.24	22	22.38	19	2.4	100	2.4	0	0	974.0	NA	0.0000		9999	1900	3080	0	0
2019/03/27 07:54:01	BASE	20.10	22	22.38	19	2.4	100	2.4	0	0	974.0	NA	0.0000		9999	1870	0	0	0
2019/03/27 07:55:00	BASE	20.15	22	22.64	11	2.4	100	2.4	0	0	974.0	NA	0.0000		9999	1770	0	0	0
2019/03/27 07:56:00	BASE	20.62	20	22.64	11	2.4	100	2.4	0	0	974.0	NA	0.0000		9999	1940	3080	0	0
2019/03/27 07:57:00	BASE	20.28	22	22.64	11	2.5	100	2.5	0	0	974.0	NA	0.0000		9999	1970	0	0	0
2019/03/27 07:58:00	BASE	20.67	23	22.79	23	2.4	100	2.4	0	0	974.0	NA	0.0000		9999	2790	0	0	0
2019/03/27 07:59:00	BASE	21.22	23	22.79	23	2.4	100	2.4	0	0	973.9	NA	0.0000		9999	1050	0	0	0
2019/03/27 08:00:00	BASE	21.84	23	23.72	21	2.4	100	2.4	0	0	973.9	NA	0.0000		9999	1080	2820	0	0
2019/03/27 08:01:00	BASE	22.85	21	24.08	19	2.5	100	2.5	0	0	973.8	NA	0.0000		9999	2230	0	0	0
2019/03/27 08:02:00	BASE	23.34	19	24.44	20	2.5	100	2.5	0	0	973.8	NA	0.0000		9999	2560	0	0	0
2019/03/27 08:03:00	BASE	23.23	21	24.44	20	2.5	100	2.5	0	0	973.8	NA	0.0000		9999	1970	0	0	0
2019/03/27 08:04:00	BASE	22.66	21	24.44	20	2.5	100	2.5	0	0	973.8	NA	0.0000		9999	1900	2720	0	0
2019/03/27 08:05:00	BASE	22.27	20	24.44	20	2.5	100	2.5	0	0	973.8	NA	0.0000	UP	9999	920	0	0	0
2019/03/27 08:06:00	BASE	22.13	22	24.44	20	2.4	100	2.4	0	0	973.9	NA	0.0000	UP	9999	850	1800	0	0
2019/03/27 08:07:00	BASE	21.76	22	24.44	20	2.4	100	2.4	0	0	973.8	NA	0.0000	UP	9999	1800	0	0	0
2019/03/27 08:08:00	BASE	21.66	23	24.44	20	2.4	100	2.4	0	0	973.8	NA	0.0000	UP	9999	1740	0	0	0
2019/03/27 08:09:00	BASE	21.35	24	24.44	20	2.3	100	2.3	0	0	973.8	NA	0.0000	UP	9999	1540	0	0	0
2019/03/27 08:10:00	BASE	20.04	22	24.44	20	2.3	100	2.3	0	0	973.9	NA	0.0000	UP	9999	1510	0	0	0
2019/03/27 08:11:01	BASE	20.26	19	24.44	20	2.3	100	2.3	0	0	973.8	NA	0.0000	UP	9999	1410	0	0	0
2019/03/27 08:12:01	BASE	21.18	16	24.28	12	2.4	100	2.4	0	0	973.9	NA	0.0000	UP	9999	1510	3900	0	0
2019/03/27 08:13:01	BASE	20.10	16	24.28	12	2.4	100	2.4	0	0	973.9	NA	0.0000	UP	9999	1380	0	0	0
2019/03/27 08:14:01	BASE	19.76	16	24.28	12	2.5	100	2.5	0	0	973.8	NA	0.0000	UP	9999	1380	4000	0	0
2019/03/27 08:15:01	BASE	20.10	16	24.28	12	2.5	100	2.5	0	0	973.8	NA	0.0000	UP	9999	1440	0	0	0
2019/03/27 08:16:01	BASE	20.03	17	24.28	12	2.5	100	2.5	0	0	973.9	NA	0.0000	UP	9999	1310	0	0	0
2019/03/27 08:17:01	BASE	20.04	17	24.28	12	2.6	100	2.6	0	0	973.8	NA	0.0000	UP	9999	1150	0	0	0
2019/03/27 08:18:01	BASE	19.17	16	24.28	12	2.6	100	2.6	0	0	973.9	NA	0.0000		9999	1150	0	0	0
2019/03/27 08:19:01	BASE	19.28	16	24.28	12	2.6	100	2.6	0	0	973.9	NA	0.0000		9999	1280	0	0	0
2019/03/27 08:20:01	BASE	19.74	13	24.28	12	2.6	100	2.6	0	0	973.9	NA	0.0000		9999	1050	0	0	0
2019/03/27 08:21:01	BASE	18.64	8	22.79	3	2.6	100	2.6	0	0	973.9	NA	0.0000		9999	920	0	0	0
2019/03/27 08:22:01	BASE	18.09	9	21.92	17	2.6	100	2.6	0	0	973.9	NA	0.0000		9999	1120	0	0	0
2019/03/27 08:23:00	BASE	18.12	11	21.92	17	2.6	100	2.6	0	0	973.9	NA	0.0000		9999	1080	0	0	0
2019/03/27 08:24:01	BASE	18.07	10	21.92	17	2.6	100	2.6	0	0	973.9	NA	0.0000		9999	1050	0	0	0
2019/03/27 08:25:01	BASE	18.38	9	21.92	17	2.6	100	2.6	0	0	973.9	NA	0.0000		9999	980	0	0	0
2019/03/27 08:26:01	BASE	18.07	6	21.92	17	2.6	100	2.6	0	0	973.9	NA	0.0000	UP	9999	1020	0	0	0
2019/03/27 08:27:01	BASE	17.54	2	21.92	17	2.6	100	2.6	0	0	973.9	NA	0.0000	UP	9999	980	0	0	0
2019/03/27 08:28:00	BASE	17.46	5	21.92	17	2.6	100	2.6	0	0	973.9	NA	0.0000	UP	9999	1120	0	0	0
2019/03/27 08:29:00	BASE	18.98	10	22.12	8	2.6	100	2.6	0	0	973.8	NA	0.0000	UP	9999	1020	0	0	0
2019/03/27 08:30:00	BASE	20.39	7	22.12	8	2.6	100	2.6	0	0	973.8	NA	0.0000	UP	9999	1050	0	0	0
2019/03/27 08:31:00	BASE	19.77	2	22.12	8	2.6	100	2.6	0	0	973.8	NA	0.0000	UP	9999	390	0	0	0
2019/03/27 08:32:00	BASE	18.34	360	22.12	8	2.6	100	2.6	0	0	973.9	NA	0.0000	UP	9999	390	0	0	0
2019/03/27 08:33:00	BASE	17.77	2	22.12	8	2.6	100	2.6	0	0	973.9	NA	0.0000	UP	9999	390	1710	0	0
2019/03/27 08:34:00	BASE	18.07	1	22.12	8	2.6	100	2.6	0	0	973.9	NA	0.0000	UP	9999	720	1640	0	0
2019/03/27 08:35:00	BASE	17.78	2	22.12	8	2.5	100	2.5	0	0	973.9	NA	0.0000	UP	9999	430	1610	0	0
2019/03/27 08:36:00	BASE	17.27	6	22.12	8	2.5	100	2.5	0	0	974.0	NA	0.0000	UP	9999	390	1540	0	0
2019/03/27 08:37:00	BASE	17.56	6	22.12	8	2.5	100	2.5	0	0	973.9	NA	0.0000	UP	9999	720	1710	0	0
2019/03/27 08:38:00	BASE	18.07	4	22.12	8	2.5	100	2.5	0	0	973.9	NA	0.0000	UP	9999	750	0	0	0
2019/03/27 08:39:00	BASE	18.11	360	22.07	360	2.4	100	2.4	0	0	974.0	NA	0.0000	UP	9999	720	1610	0	0
2019/03/27 08:40:00	BASE	17.05	355	22.07	360	2.4	100	2.4	0	0	974.0	NA	0.0000	UP	9999	390	0	0	0
2019/03/27 08:41:00	BASE	16.72	357	19.81	286	2.4	100	2.4	0	0	974.0	NA	0.0000	UP	9999	980	0	0	0
2019/03/27 08:42:00	BASE	17.28	359	19.81	286	2.3	100	2.3	0	0	974.0	NA	0.0000	UP	9999	950	0	0	0
2019/03/27 08:43:00	BASE	16.56	1	19.81	286	2.3	100	2.3	0	0	974.0	NA	0.0000	UP	9999	820	0	0	0
2019/03/27 08:44:00	BASE	16.05	3	19.81	286	2.2	100	2.2	0	0	974.0	NA	0.0000	UP	9999	720	0	0	0
2019/03/27 08:45:00	BASE	16.29	2	19.81	286	2.2	100	2.2	0	0	974.1	NA	0.0000	UP	9999	750	0	0	0
2019/03/27 08:46:00	BASE	16.46	1	19.81	286	2.2	100	2.2	0	0	974.1	NA	0.0000	UP	9999	850	0	0	0
2019/03/27 08:47:00	BASE	16.43	3	19.81	286	2.2	100	2.2	0	0	974.1	NA	0.0000	UP	9999	790	1670	0	0
2019/03/27 08:48:00	BASE	15.75	6	19.81	286	2.2	100	2.2	0	0	974.1	NA	0.0000	UP	9999	750	0	0	0
2019/03/27 08:49:00	BASE	14.98	1	19.70	1	2.1	100	2.1	0	0	974.1	NA	0.0000	UP	9999	720	0	0	0
2019/03/27 08:50:00	BASE	15.29	360	19.70	1	2.1	100	2.1	0	0	974.2	NA	0.0000	UP	9999	820	0	0	0
2019/03/27 08:51:01	BASE	15.68	0	18.37	5	2.2	100	2.2	0	0	974.1	NA	0.0000	UP	9999	720	0	0	0
2019/03/27 08:52:01	BASE	15.28	356	18.06	7	2.2	100	2.2	0	0	974.2	NA	0.0000	UP	9999	750	0	0	0
2019/03/27 08:53:01	BASE	13.70	353	17.70	7	2.2	100	2.2	0	0	974.2	NA	0.0000	UP	9999	750	0	0	0
2019/03/27 08:54:01	BASE	12.98	347	17.70	7	2.2	100	2.2	0	0	974.2	NA	0.0000	UP	9999	890	0	0	0
2019/03/27 08:55:01	BASE	13.96	350	17.70	7	2.2	100	2.2	0	0	974.2	NA	0.0000	UP	9999	850	0	0	0
2019/03/27 08:56:01	BASE	14.45	355	17.54	353	2.2	100	2.2	0	0	974.2	NA	0.0000	UP	9999	820	0	0	0
2019/03/27 08:57:01	BASE	13.63	355	17.54	353	2.2	100	2.2	0	0	974.2	NA	0.0000	UP	9999	890	0	0	0
2019/03/27 08:58:01	BASE	13.75	352	17.54	353	2.2	100	2.2	0	0	974.2	NA	0.0000	UP	9999	790	0	0	0
2019/03/27 08:59:01	BASE	14.12	351	17.54	353	2.2	100	2.2	0	0	974.2	NA	0.0000	UP	9999	690	0	0	0
2019/03/27 09:00:00	BASE	14.16	353	17.54	353	2.2	100	2.2	0	0	974.2	NA	0.0000	UP	9999	690	0	0	0
2019/03/27 09:01:00	BASE	14.83	353	17.54	353	2.2	100	2.2	0	0	974.2	NA	0.0000	UP	9999	690	0	0	0
2019/03/27 09:02:00	BASE	13.91	351	17.54	353	2.2	100	2.2	0	0	974.2	NA	0.0000	UP	9999	660	0	0	0
2019/03/27 09:03:00	BASE	13.44	354	17.54	353	2.2	100	2.2	0	0	974.2	NA	0.0000	UP	9999	590	1480	0	0
2019/03/27 09:04:00	BASE	14.34	354	17.54	353	2.2	100	2.2	0	0	974.2	NA	0.0000	UP	9999	620	0	0	0
2019/03/27 09:05:00	BASE	14.02	350	16.57	3	2.2	100	2.2	0	0	974.2	NA	0.2540	UP	9999	660	0	0	0
2019/03/27 09:06:00	BASE	13.78	356	16.57	3	2.2	100	2.2	0	0	974.2	NA	0.0000	UP	9999	590	0	0	0
2019/03/27 09:07:00	BASE	13.81	357	16.57	3	2.2	100	2.2	0	0	974.3	NA	0.0000	UP	9999	590	0	0	0
2019/03/27 09:08:00	BASE	13.81	355	16.57	3	2.2	100	2.2	0	0	974.2	NA	0.0000	UP	9999	660	0	0	0
2019/03/27 09:09:00	BASE	14.01	354	16.57	3	2.2	100	2.2	0	0	974.2	NA	0.0000	UP	9999	690	0	0	0
2019/03/27 09:10:00	BASE	14.26	352	16.57	3	2.2	100	2.2	0	0	974.2	NA	0.0000	UP	9999	720	0	0	0
2019/03/27 09:11:00	BASE	13.70	355	16.57	3	2.2	100	2.2	0	0	974.2	NA	0.0000	UP	9999	0	0	0	3220
2019/03/27 09:12:00	BASE	12.14	357	16.57	3	2.2	100	2.2	0	0	974.3	NA	0.0000	UP	9999	0	0	0	3080
2019/03/27 09:13:00	BASE	12.21	350	16.51	350	2.2	100	2.2	0	0	974.3	NA	0.0000	UP	9999	0	0	0	2660
2019/03/27 09:14:00	BASE	13.65	349	16.82	354	2.2	100	2.2	0	0	974.2	NA	0.0000	UP	9999	620	0	0	0
2019/03/27 09:15:00	BASE	14.08	350	16.82	354	2.2	100	2.2	0	0	974.3	NA	0.0000	UP	9999	490	0	0	0
2019/03/27 09:16:00	BASE	12.80	352	16.82	354	2.2	100	2.2	0	0	974.3	NA	0.0000	UP	9999	490	0	0	0
2019/03/27 09:17:00	BASE	12.17	354	16.82	354	2.2	100	2.2	0	0	974.3	NA	0.0000	UP	9999	390	0	0	0
2019/03/27 09:18:00	BASE	12.42	352	16.82	354	2.2	100	2.2	0	0	974.3	NA	0.0000	-SN	6000	360	0	0	0
2019/03/27 09:19:00	BASE	12.48	352	16.82	354	2.1	100	2.1	0	0	974.3	NA	0.0000	-SN	5000	490	0	0	0
2019/03/27 09:20:00	BASE	12.20	351	16.82	354	2.1	100	2.1	0	0	974.3	NA	0.0000	-SN BR	4400	460	0	0	0
2019/03/27 09:21:00	BASE	12.33	353	16.82	354	2.1	100	2.1	0	0	974.3	NA	0.0000	-SN BR	4700	560	0	0	0
2019/03/27 09:22:00	BASE	12.26	356	16.82	354	2.1	100	2.1	0	0	974.2	NA	0.0000	-SN BR	7000	560	0	0	0
2019/03/27 09:23:00	BASE	12.00	0	16.82	354	2.1	100	2.1	0	0	974.2	NA	0.0000	-SN BR	9999	620	0	0	0
2019/03/27 09:24:00	BASE	13.13	5	15.84	339	2.0	100	2.0	0	0	974.2	NA	0.0000	-SN BR	9999	0	0	0	2990
2019/03/27 09:25:00	BASE	14.03	5	15.38	9	2.0	100	2.0	0	0	974.2	NA	0.0000	-SN BR	9999	0	0	0	3150
2019/03/27 09:26:00	BASE	14.50	5	15.95	7	2.0	100	2.0	0	0	974.2	NA	0.0000	-SN BR	9999	790	0	0	0
2019/03/27 09:27:00	BASE	14.50	5	15.95	7	2.0	100	2.0	0	0	974.2	NA	0.2540	-SN BR	9999	820	0	0	0
2019/03/27 09:28:00	BASE	14.51	4	15.95	360	2.0	100	2.0	0	0	974.2	NA	0.0000	-SN BR	9999	790	0	0	0
2019/03/27 09:29:00	BASE	14.91	4	15.95	360	2.1	100	2.1	0	0	974.2	NA	0.0000	-SN BR	9999	790	0	0	0
2019/03/27 09:30:00	BASE	14.68	4	15.95	360	2.1	100	2.1	0	0	974.2	NA	0.0000	-SN	9999	720	0	0	0
2019/03/27 09:31:01	BASE	14.04	360	15.95	360	2.1	100	2.1	0	0	974.2	NA	0.0000	-SN	9999	690	0	0	0
2019/03/27 09:32:01	BASE	13.09	360	15.95	360	2.1	100	2.1	0	0	974.2	NA	0.0000	-SN	9999	690	0	0	0
2019/03/27 09:33:00	BASE	13.15	360	15.95	360	2.1	100	2.1	0	0	974.2	NA	0.0000	-SN	9999	660	0	0	0
2019/03/27 09:34:00	BASE	12.86	356	15.95	360	2.1	100	2.1	0	0	974.2	NA	0.0000	-SN	9999	520	1280	0	0
2019/03/27 09:35:00	BASE	12.09	355	15.95	360	2.1	100	2.1	0	0	974.2	NA	0.0000	-SN	7000	620	0	0	0
2019/03/27 09:36:00	BASE	12.00	351	15.95	360	2.1	100	2.1	0	0	974.2	NA	0.0000	-SN	9999	590	0	0	0
2019/03/27 09:37:00	BASE	12.56	352	15.95	360	2.2	100	2.2	0	0	974.2	NA	0.0000	-SN	9999	590	0	0	0
2019/03/27 09:38:00	BASE	12.54	354	15.74	1	2.2	100	2.2	0	0	974.2	NA	0.0000	-SN	9999	620	0	0	0
2019/03/27 09:39:00	BASE	11.57	359	15.33	5	2.2	100	2.2	0	0	974.2	NA	0.0000	-SN	9999	620	0	0	0
2019/03/27 09:40:00	BASE	12.30	359	15.18	360	2.2	100	2.2	0	0	974.2	NA	0.0000	-SN	9999	590	0	0	0
2019/03/27 09:41:00	BASE	12.14	353	15.07	351	2.2	100	2.2	0	0	974.2	NA	0.0000	-SN	9999	460	0	0	0
2019/03/27 09:42:00	BASE	11.39	349	15.07	351	2.2	100	2.2	0	0	974.2	NA	0.0000	-SN	9999	620	0	0	0
2019/03/27 09:43:00	BASE	11.46	345	15.02	360	2.2	100	2.2	0	0	974.2	NA	0.0000	-SN	9999	690	0	0	0
2019/03/27 09:44:00	BASE	10.87	346	15.02	360	2.2	100	2.2	0	0	974.2	NA	0.0000	-SN	9999	790	0	0	0
2019/03/27 09:45:00	BASE	10.40	352	15.02	360	2.2	100	2.2	0	0	974.2	NA	0.0000	-SN	9999	1440	2850	0	0
2019/03/27 09:46:00	BASE	10.74	354	15.02	360	2.2	100	2.2	0	0	974.2	NA	0.0000	-SN	9999	2950	0	0	0
2019/03/27 09:47:00	BASE	12.04	356	14.76	1	2.2	100	2.2	0	0	974.2	NA	0.0000	-SN	9999	4130	0	0	0
2019/03/27 09:48:00	BASE	12.60	354	14.76	1	2.2	100	2.2	0	0	974.2	NA	0.0000	-SN	9999	3710	0	0	0
2019/03/27 09:49:00	BASE	13.10	351	15.07	352	2.2	100	2.2	0	0	974.2	NA	0.0000	-SN	9999	1610	0	0	0
2019/03/27 09:50:00	BASE	13.60	352	15.07	352	2.2	100	2.2	0	0	974.2	NA	0.0000	-SN	9999	950	0	0	0
2019/03/27 09:51:00	BASE	13.33	354	15.07	352	2.2	100	2.2	0	0	974.1	NA	0.0000		9999	0	0	0	6590
2019/03/27 09:52:00	BASE	13.77	0	15.07	352	2.2	100	2.2	0	0	974.2	NA	0.0000		9999	890	0	0	0
2019/03/27 09:53:00	BASE	13.75	358	15.07	352	2.2	100	2.2	0	0	974.2	NA	0.0000		9999	4070	0	0	0
2019/03/27 09:54:00	BASE	13.55	354	15.07	352	2.1	100	2.1	0	0	974.2	NA	0.0000		9999	3380	4270	0	0
2019/03/27 09:55:00	BASE	13.79	359	15.07	352	2.1	100	2.1	0	0	974.2	NA	0.0000		9999	2990	0	0	0
2019/03/27 09:56:00	BASE	14.51	2	16.87	1	2.1	100	2.1	0	0	974.1	NA	0.0000		9999	2950	0	0	0
2019/03/27 09:57:00	BASE	14.52	3	16.87	1	2.1	100	2.1	0	0	974.2	NA	0.0000		9999	3080	0	0	0
2019/03/27 09:58:00	BASE	13.81	1	16.87	1	2.1	100	2.1	0	0	974.1	NA	0.0000		9999	3120	0	0	0
2019/03/27 09:59:00	BASE	13.77	357	16.87	1	2.1	100	2.1	0	0	974.2	NA	0.0000		9999	4100	0	0	0
2019/03/27 10:00:00	BASE	13.39	353	16.87	1	2.1	100	2.1	0	0	974.2	NA	0.0000		9999	3180	0	0	0
2019/03/27 10:01:00	BASE	13.49	351	16.87	1	2.2	100	2.2	0	0	974.2	NA	0.0000		9999	3220	4040	0	0
2019/03/27 10:02:00	BASE	13.83	345	16.87	1	2.2	100	2.2	0	0	974.2	NA	0.0000		9999	3250	5220	0	0
2019/03/27 10:03:00	BASE	13.81	343	16.87	1	2.2	100	2.2	0	0	974.2	NA	0.0000		9999	3280	0	0	0
2019/03/27 10:04:00	BASE	13.53	352	16.87	1	2.3	100	2.3	0	0	974.2	NA	0.0000		9999	5970	0	0	0
2019/03/27 10:05:00	BASE	13.66	357	16.87	1	2.3	100	2.3	0	0	974.2	NA	0.0000		9999	3810	0	0	0
2019/03/27 10:06:00	BASE	13.95	355	15.74	360	2.3	100	2.3	0	0	974.2	NA	0.0000		9999	2260	3840	0	0
2019/03/27 10:07:00	BASE	13.58	355	15.74	360	2.3	100	2.3	0	0	974.2	NA	0.0000		9999	2300	2920	0	0
2019/03/27 10:08:00	BASE	12.68	355	15.74	360	2.3	100	2.3	0	0	974.2	NA	0.0000		9999	2330	3350	0	0
2019/03/27 10:09:00	BASE	11.96	352	15.74	360	2.3	100	2.3	0	0	974.2	NA	0.0000		9999	2400	3280	0	0
2019/03/27 10:10:00	BASE	12.46	350	15.74	360	2.3	100	2.3	0	0	974.2	NA	0.0000		9999	2460	3250	0	0
2019/03/27 10:11:00	BASE	12.81	345	15.07	351	2.3	100	2.3	0	0	974.2	NA	0.0000		9999	2460	0	0	0
2019/03/27 10:12:00	BASE	13.13	347	15.07	351	2.3	100	2.3	0	0	974.2	NA	0.0000		9999	2530	0	0	0
2019/03/27 10:13:00	BASE	13.66	354	15.07	351	2.3	100	2.3	0	0	974.2	NA	0.0000		9999	2620	0	0	0
2019/03/27 10:14:00	BASE	14.47	355	16.62	342	2.3	100	2.3	0	0	974.2	NA	0.0000		9999	1540	2170	0	0
2019/03/27 10:15:00	BASE	15.10	356	17.18	360	2.3	100	2.3	0	0	974.2	NA	0.0000		9999	1410	2300	0	0
2019/03/27 10:16:00	BASE	15.25	358	17.18	360	2.4	100	2.4	0	0	974.2	NA	0.0000		9999	1280	1900	0	0
2019/03/27 10:17:00	BASE	15.50	356	17.18	360	2.4	100	2.4	0	0	974.2	NA	0.0000		9999	1210	2760	0	0
2019/03/27 10:18:00	BASE	14.71	356	17.18	360	2.4	100	2.4	0	0	974.3	NA	0.0000		9999	2760	0	0	0
2019/03/27 10:19:00	BASE	13.56	356	17.18	360	2.4	100	2.4	0	0	974.3	NA	0.0000		9999	2790	0	0	0
2019/03/27 10:20:00	BASE	13.21	354	17.18	360	2.4	100	2.4	0	0	974.3	NA	0.0000		9999	2850	0	0	0
2019/03/27 10:21:00	BASE	13.87	358	17.18	360	2.3	100	2.3	0	0	974.2	NA	0.0000		9999	2400	2890	0	0
2019/03/27 10:22:00	BASE	14.77	2	17.18	360	2.3	100	2.3	0	0	974.2	NA	0.0000		9999	1250	2920	0	0
2019/03/27 10:23:00	BASE	14.77	359	17.18	360	2.3	100	2.3	0	0	974.2	NA	0.0000		9999	3020	0	0	0
2019/03/27 10:24:00	BASE	14.57	358	17.18	360	2.3	100	2.3	0	0	974.2	NA	0.0000		9999	2230	3050	0	0
2019/03/27 10:25:00	BASE	14.50	358	16.93	3	2.3	100	2.3	0	0	974.3	NA	0.0000		9999	2200	3120	0	0
2019/03/27 10:26:00	BASE	14.56	355	16.62	1	2.3	100	2.3	0	0	974.3	NA	0.0000		9999	2230	3120	0	0
2019/03/27 10:27:00	BASE	14.69	357	16.62	1	2.3	100	2.3	0	0	974.3	NA	0.0000		9999	2230	3220	0	0
2019/03/27 10:28:00	BASE	15.15	0	17.65	1	2.3	100	2.3	0	0	974.2	NA	0.0000		9999	3220	0	0	0
2019/03/27 10:29:00	BASE	15.66	359	17.65	1	2.3	100	2.3	0	0	974.2	NA	0.0000		9999	3250	0	0	0
2019/03/27 10:30:00	BASE	14.97	357	17.65	1	2.3	100	2.3	1	0	974.2	NA	0.0000		9999	3410	0	0	0
2019/03/27 10:31:00	BASE	14.75	359	17.65	1	2.3	100	2.3	1	0	974.2	NA	0.0000		9999	3310	0	0	0
2019/03/27 10:32:00	BASE	15.40	1	17.65	1	2.3	100	2.3	1	0	974.2	NA	0.0000		9999	3120	0	0	0
2019/03/27 10:33:00	BASE	16.08	1	17.65	1	2.3	100	2.3	1	0	974.2	NA	0.0000		9999	3280	0	0	0
2019/03/27 10:34:00	BASE	16.06	358	17.65	1	2.3	100	2.3	1	0	974.2	NA	0.0000		9999	3410	0	0	0
2019/03/27 10:35:00	BASE	15.13	1	17.65	1	2.3	100	2.3	1	0	974.2	NA	0.0000		9999	3410	0	0	0
2019/03/27 10:36:00	BASE	15.05	2	17.65	1	2.3	100	2.3	1	0	974.2	NA	0.0000		9999	3510	0	0	0
2019/03/27 10:37:00	BASE	14.99	360	17.65	1	2.3	100	2.3	1	0	974.2	NA	0.0000		9999	3510	0	0	0
2019/03/27 10:38:00	BASE	15.00	3	17.54	6	2.3	100	2.3	1	0	974.2	NA	0.0000		9999	3450	0	0	0
2019/03/27 10:39:00	BASE	15.21	1	17.54	6	2.3	100	2.3	1	0	974.3	NA	0.0000		9999	1380	3350	0	0
2019/03/27 10:40:00	BASE	14.61	354	17.54	6	2.3	100	2.3	1	0	974.3	NA	0.0000		9999	3180	0	0	0
2019/03/27 10:41:00	BASE	13.99	354	17.54	6	2.3	100	2.3	1	0	974.2	NA	0.0000		9999	3180	0	0	0
2019/03/27 10:42:00	BASE	13.92	359	17.54	6	2.3	100	2.3	1	0	974.2	NA	0.0000		9999	3280	0	0	0
2019/03/27 10:43:00	BASE	14.24	360	17.08	111	2.3	100	2.3	1	0	974.2	NA	0.0000		9999	3610	0	0	0
2019/03/27 10:44:00	BASE	14.32	353	17.08	111	2.3	100	2.3	1	0	974.2	NA	0.0000		9999	3610	0	0	0
2019/03/27 10:45:00	BASE	13.99	352	17.08	111	2.3	100	2.3	1	0	974.3	NA	0.0000		9999	3610	0	0	0
2019/03/27 10:46:00	BASE	13.57	354	17.08	111	2.3	100	2.3	2	0	974.2	NA	0.0000		9999	3450	0	0	0
2019/03/27 10:47:00	BASE	14.12	352	17.44	12	2.3	100	2.3	2	0	974.2	NA	0.0000		9999	3080	0	0	0
2019/03/27 10:48:00	BASE	14.87	354	17.44	12	2.3	100	2.3	2	0	974.3	NA	0.0000		9999	3120	0	0	0
2019/03/27 10:49:00	BASE	14.49	357	17.44	12	2.3	100	2.3	2	0	974.2	NA	0.0000		9999	3450	0	0	0
2019/03/27 10:50:00	BASE	15.58	359	18.01	360	2.3	100	2.3	2	0	974.2	NA	0.0000		9999	3120	0	0	0
2019/03/27 10:51:00	BASE	16.63	2	18.26	2	2.3	100	2.3	2	0	974.2	NA	0.0000		9999	3180	0	0	0
2019/03/27 10:52:00	BASE	16.33	359	18.26	2	2.3	100	2.3	3	0	974.2	NA	0.0000		9999	3280	0	0	0
2019/03/27 10:53:00	BASE	16.70	356	18.78	1	2.3	100	2.3	3	0	974.2	NA	0.0000		9999	3310	0	0	0
2019/03/27 10:54:00	BASE	17.20	351	18.78	1	2.3	100	2.3	4	0	974.2	NA	0.0000		9999	3640	0	0	0
2019/03/27 10:55:00	BASE	16.91	351	18.78	1	2.4	100	2.4	4	0	974.2	NA	0.0000		9999	3410	0	0	0
2019/03/27 10:56:00	BASE	16.30	353	18.78	1	2.4	100	2.4	4	0	974.2	NA	0.0000		9999	1510	0	0	0
2019/03/27 10:57:01	BASE	16.53	356	18.78	1	2.3	100	2.3	4	0	974.2	NA	0.0000		9999	1250	0	0	0
2019/03/27 10:58:01	BASE	16.97	358	19.45	351	2.3	100	2.3	5	0	974.2	NA	0.0000		9999	1210	0	0	0
2019/03/27 10:59:01	BASE	16.14	356	19.45	351	2.3	100	2.3	5	0	974.2	NA	0.0000		9999	1280	0	0	0
2019/03/27 11:00:01	BASE	14.82	358	19.45	351	2.3	100	2.3	5	0	974.2	NA	0.0000		9999	1410	0	0	0
2019/03/27 11:01:01	BASE	14.99	0	19.45	351	2.3	100	2.3	5	0	974.2	NA	0.0000		9999	3450	0	0	0
2019/03/27 11:02:01	BASE	15.62	359	19.45	351	2.3	100	2.3	6	0	974.2	NA	0.0000		9999	3450	0	0	0
2019/03/27 11:03:01	BASE	14.90	350	19.45	351	2.3	100	2.3	6	0	974.3	NA	0.0000		9999	1710	0	0	0
2019/03/27 11:04:01	BASE	15.18	349	19.45	351	2.3	100	2.3	8	0	974.2	NA	0.0000		9999	1480	3540	0	0
2019/03/27 11:05:01	BASE	16.20	352	19.45	351	2.3	100	2.3	9	0	974.2	NA	0.0000		9999	1250	3580	0	0
2019/03/27 11:06:01	BASE	15.80	352	19.45	351	2.4	100	2.4	9	0	974.2	NA	0.0000		9999	3670	0	0	0
2019/03/27 11:07:01	BASE	14.84	350	19.45	351	2.4	100	2.4	9	0	974.3	NA	0.0000		9000	1150	3670	0	0
2019/03/27 11:08:01	BASE	13.92	350	18.01	360	2.5	100	2.5	9	0	974.3	NA	0.0000		9000	1120	3710	0	0
2019/03/27 11:09:01	BASE	14.27	351	18.01	360	2.5	100	2.5	9	0	974.3	NA	0.0000		9000	1080	0	0	0
2019/03/27 11:10:01	BASE	14.44	349	18.01	360	2.5	100	2.5	9	0	974.3	NA	0.0000		9999	1120	3840	0	0
2019/03/27 11:11:01	BASE	13.53	349	18.01	360	2.6	100	2.6	10	0	974.3	NA	0.0000		9999	1250	2130	0	0
2019/03/27 11:12:01	BASE	13.53	349	18.01	360	2.6	100	2.6	10	0	974.3	NA	0.0000		9999	1080	2170	0	0
2019/03/27 11:13:01	BASE	13.57	348	18.01	360	2.6	100	2.6	11	0	974.3	NA	0.0000		9999	1080	4890	0	0
2019/03/27 11:14:01	BASE	12.45	348	18.01	360	2.6	100	2.6	11	0	974.3	NA	0.0000		9999	1280	5020	0	0
2019/03/27 11:15:01	BASE	12.34	354	16.93	360	2.6	100	2.6	10	0	974.3	NA	0.0000		9999	4130	5050	0	0
2019/03/27 11:16:01	BASE	13.59	354	16.93	360	2.6	100	2.6	10	0	974.3	NA	0.0000		9999	1210	5180	0	0
2019/03/27 11:17:00	BASE	14.04	347	16.93	360	2.6	100	2.6	9	0	974.3	NA	0.0000		9999	2300	2850	0	0
2019/03/27 11:18:00	BASE	13.08	347	16.77	354	2.6	100	2.6	8	0	974.3	NA	0.0000		9999	2360	5610	0	0
2019/03/27 11:19:00	BASE	13.56	350	16.77	354	2.6	100	2.6	8	0	974.3	NA	0.0000		9000	2360	0	0	0
2019/03/27 11:20:00	BASE	14.39	350	16.77	354	2.6	100	2.6	9	0	974.3	NA	0.0000		9999	2360	0	0	0
2019/03/27 11:21:00	BASE	13.31	352	16.77	354	2.7	100	2.7	9	0	974.3	NA	0.0000	BR	9000	2490	0	0	0
2019/03/27 11:22:00	BASE	13.29	353	16.77	354	2.7	100	2.7	9	0	974.3	NA	0.0000	BR	9000	2490	0	0	0
2019/03/27 11:23:00	BASE	14.11	352	16.77	354	2.7	100	2.7	9	0	974.3	NA	0.0000	BR	9000	2530	0	0	0
2019/03/27 11:24:00	BASE	13.70	349	16.77	354	2.7	100	2.7	9	0	974.3	NA	0.0000	BR	9999	2660	0	0	0
2019/03/27 11:25:00	BASE	13.16	350	16.77	354	2.7	100	2.7	11	0	974.3	NA	0.0000	BR	9000	2760	0	0	0
2019/03/27 11:26:00	BASE	13.21	354	16.26	353	2.7	100	2.7	13	0	974.3	NA	0.0000	BR	9000	2690	0	0	0
2019/03/27 11:27:00	BASE	13.61	353	16.26	353	2.7	100	2.7	13	0	974.3	NA	0.0000	BR	9000	2660	0	0	0
2019/03/27 11:28:00	BASE	14.42	351	16.41	353	2.7	100	2.7	14	0	974.3	NA	0.0000	BR	8000	2760	0	0	0
2019/03/27 11:29:00	BASE	14.58	352	16.77	346	2.7	100	2.7	15	0	974.3	NA	0.0000	BR	9000	2820	0	0	0
2019/03/27 11:30:00	BASE	14.29	357	16.77	346	2.8	100	2.8	16	0	974.3	NA	0.0000	BR	8000	1440	2890	0	0
2019/03/27 11:31:00	BASE	14.52	354	16.77	346	2.7	100	2.7	17	0	974.3	NA	0.0000	BR	8000	1440	2920	0	0
2019/03/27 11:32:00	BASE	14.83	344	16.77	346	2.8	100	2.8	19	0	974.3	NA	0.0000	BR	9000	1440	2990	0	0
2019/03/27 11:33:00	BASE	14.84	347	18.78	352	2.8	100	2.8	21	0	974.3	NA	0.0000	BR	9000	2920	0	0	0
2019/03/27 11:34:00	BASE	15.69	353	18.78	352	2.7	100	2.7	21	0	974.2	NA	0.0000	BR	9000	1510	3350	0	0
2019/03/27 11:35:00	BASE	16.08	353	18.78	352	2.8	100	2.8	22	0	974.3	NA	0.0000	BR	8000	1640	5580	0	0
2019/03/27 11:36:00	BASE	14.84	353	18.78	352	2.8	100	2.8	22	0	974.3	NA	0.0000	BR	9000	1510	0	0	0
2019/03/27 11:37:00	BASE	15.04	351	18.78	352	2.8	100	2.8	21	0	974.3	NA	0.0000	BR	9000	1440	3080	0	0
2019/03/27 11:38:00	BASE	15.16	350	18.78	352	2.8	100	2.8	20	0	974.3	NA	0.0000	BR	9000	1380	3280	0	0
2019/03/27 11:39:00	BASE	15.04	351	18.78	352	2.8	100	2.8	20	0	974.3	NA	0.0000	BR	8000	1440	0	0	0
2019/03/27 11:40:00	BASE	16.11	351	18.78	352	2.8	100	2.8	20	0	974.3	NA	0.0000	BR	8000	1310	0	0	0
2019/03/27 11:41:00	BASE	15.65	354	18.78	352	2.8	100	2.8	22	0	974.3	NA	0.0000	BR	9000	1310	0	0	0
2019/03/27 11:42:00	BASE	15.90	358	18.78	352	2.8	100	2.8	22	0	974.3	NA	0.0000	BR	8000	1350	3220	0	0
2019/03/27 11:43:00	BASE	16.68	355	18.67	360	2.8	100	2.8	22	0	974.3	NA	0.0000	BR	8000	1250	0	0	0
2019/03/27 11:44:00	BASE	16.63	348	19.39	354	2.8	100	2.8	23	0	974.3	NA	0.0000	BR	8000	1180	0	0	0
2019/03/27 11:45:00	BASE	15.61	346	19.39	354	2.8	100	2.8	24	0	974.4	NA	0.0000	BR	8000	1310	0	0	0
2019/03/27 11:46:00	BASE	14.24	348	19.39	354	2.8	100	2.8	26	0	974.4	NA	0.0000	BR	8000	1180	0	0	0
2019/03/27 11:47:00	BASE	14.24	347	19.39	354	2.8	100	2.8	28	0	974.4	NA	0.0000	BR	8000	1310	3740	0	0
2019/03/27 11:48:00	BASE	14.66	349	19.39	354	2.8	100	2.8	28	0	974.3	NA	0.0000	BR	8000	1280	3610	0	0
2019/03/27 11:49:00	BASE	15.29	353	19.39	354	2.8	100	2.8	29	0	974.3	NA	0.0000	BR	8000	1310	3710	0	0
2019/03/27 11:50:00	BASE	15.61	353	20.11	347	2.7	100	2.7	32	0	974.3	NA	0.0000	BR	8000	1250	0	0	0
2019/03/27 11:51:00	BASE	15.92	348	20.11	347	2.7	100	2.7	35	0	974.3	NA	0.0000	BR	8000	1280	3770	0	0
2019/03/27 11:52:00	BASE	16.17	352	20.11	347	2.8	100	2.8	37	0	974.3	NA	0.0000	BR	8000	1280	3740	0	0
2019/03/27 11:53:00	BASE	16.14	354	20.11	347	2.8	100	2.8	37	0	974.3	NA	0.0000	BR	8000	1310	5350	0	0
2019/03/27 11:54:00	BASE	15.82	349	20.11	347	2.8	100	2.8	35	0	974.4	NA	0.0000	BR	9000	5320	0	0	0
2019/03/27 11:55:00	BASE	15.14	352	20.11	347	2.8	100	2.8	34	0	974.5	NA	0.0000	BR	8000	5740	0	0	0
2019/03/27 11:56:00	BASE	14.73	352	20.11	347	2.8	100	2.8	33	0	974.4	NA	0.0000	BR	8000	1310	5710	0	0
2019/03/27 11:57:00	BASE	14.49	353	20.11	347	2.8	100	2.8	32	0	974.5	NA	0.0000	BR	8000	1250	5480	0	0
2019/03/27 11:58:00	BASE	14.80	351	20.11	347	2.8	100	2.8	31	0	974.4	NA	0.0000	BR	8000	5120	0	0	0
2019/03/27 11:59:00	BASE	15.64	349	20.11	347	2.8	100	2.8	31	0	974.4	NA	0.0000	BR	8000	5120	0	0	0
2019/03/27 12:00:00	BASE	16.20	352	19.14	349	2.7	100	2.7	31	0	974.4	NA	0.0000	BR	8000	5150	0	0	0
2019/03/27 12:01:00	BASE	16.68	352	19.45	349	2.7	100	2.7	32	0	974.3	NA	0.0000	BR	9000	5250	0	0	0
2019/03/27 12:02:00	BASE	17.51	349	19.81	345	2.7	100	2.7	32	0	974.3	NA	0.0000	BR	7000	5220	0	0	0
2019/03/27 12:03:00	BASE	16.57	350	19.81	345	2.8	100	2.8	33	0	974.4	NA	0.0000	BR	8000	5220	0	0	0
2019/03/27 12:04:00	BASE	14.89	348	19.81	345	2.8	100	2.8	34	0	974.4	NA	0.0000	BR	9000	5180	0	0	0
2019/03/27 12:05:00	BASE	16.15	346	20.22	343	2.7	100	2.7	34	0	974.3	NA	0.0000	BR	8000	5410	0	0	0
2019/03/27 12:06:00	BASE	17.71	347	20.22	343	2.7	100	2.7	32	0	974.3	NA	0.0000	BR	7000	5510	0	0	0
2019/03/27 12:07:00	BASE	18.14	347	20.32	345	2.7	100	2.7	31	0	974.3	NA	0.0000	BR	7000	5350	0	0	0
2019/03/27 12:08:00	BASE	17.57	344	20.32	345	2.7	100	2.7	31	0	974.4	NA	0.0000	BR	8000	5280	0	0	0
2019/03/27 12:09:01	BASE	16.45	345	20.32	345	2.7	100	2.7	30	0	974.4	NA	0.0000	BR	9000	5220	0	0	0
2019/03/27 12:10:01	BASE	16.31	349	20.32	345	2.7	100	2.7	29	0	974.4	NA	0.0000	BR	9000	5180	0	0	0
2019/03/27 12:11:01	BASE	16.72	347	20.32	345	2.7	100	2.7	28	0	974.3	NA	0.0000	BR	8000	4270	5480	0	0
2019/03/27 12:12:01	BASE	17.38	345	20.32	345	2.7	100	2.7	27	0	974.4	NA	0.0000	BR	8000	5020	0	0	0
2019/03/27 12:13:01	BASE	17.48	345	20.32	345	2.7	100	2.7	25	0	974.4	NA	0.0000	BR	8000	4330	4820	0	0
2019/03/27 12:14:01	BASE	17.35	347	20.32	345	2.7	100	2.7	25	0	974.4	NA	0.0000	BR	8000	4490	0	0	0
2019/03/27 12:15:01	BASE	16.87	344	20.32	345	2.7	100	2.7	24	0	974.5	NA	0.0000	BR	8000	4430	0	0	0
2019/03/27 12:16:01	BASE	15.90	341	20.32	345	2.6	100	2.6	24	0	974.5	NA	0.0000	BR	8000	5090	0	0	0
2019/03/27 12:17:01	BASE	15.50	343	19.70	343	2.6	100	2.6	25	0	974.5	NA	0.0000	BR	8000	4660	0	0	0
2019/03/27 12:18:01	BASE	16.22	344	19.70	343	2.6	100	2.6	25	0	974.4	NA	0.0000	BR	8000	4660	0	0	0
2019/03/27 12:19:01	BASE	16.56	345	19.70	343	2.6	100	2.6	25	0	974.5	NA	0.0000	BR	8000	4720	0	0	0
2019/03/27 12:20:01	BASE	16.07	345	19.70	343	2.6	100	2.6	26	0	974.5	NA	0.0000	BR	8000	4820	0	0	0
2019/03/27 12:21:01	BASE	16.37	345	19.70	343	2.6	100	2.6	27	0	974.4	NA	0.0000	BR	8000	4820	0	0	0
2019/03/27 12:22:01	BASE	16.57	344	19.24	344	2.6	100	2.6	28	0	974.5	NA	0.0000	BR	8000	4950	0	0	0
2019/03/27 12:23:01	BASE	16.60	344	19.24	344	2.6	100	2.6	29	0	974.5	NA	0.0000	BR	7000	5020	0	0	0
2019/03/27 12:24:01	BASE	17.20	345	19.81	340	2.6	100	2.6	29	0	974.5	NA	0.0000	BR	7000	4950	0	0	0
2019/03/27 12:25:00	BASE	16.86	343	19.81	340	2.6	100	2.6	30	0	974.5	NA	0.0000	BR	8000	1310	5220	0	0
2019/03/27 12:26:00	BASE	16.72	343	19.81	340	2.6	100	2.6	30	0	974.5	NA	0.0000	BR	8000	1440	4920	0	0
2019/03/27 12:27:00	BASE	16.58	345	19.81	340	2.6	100	2.6	30	0	974.6	NA	0.0000	BR	8000	1250	5150	0	0
2019/03/27 12:28:00	BASE	15.85	344	19.81	340	2.6	100	2.6	31	0	974.6	NA	0.0000	BR	8000	1250	4990	0	0
2019/03/27 12:29:00	BASE	16.35	347	19.81	340	2.6	100	2.6	31	0	974.5	NA	0.0000	BR	8000	1280	5380	0	0
2019/03/27 12:30:00	BASE	16.67	348	20.11	343	2.6	100	2.6	31	0	974.5	NA	0.0000	BR	8000	1250	5510	0	0
2019/03/27 12:31:00	BASE	16.33	344	20.11	343	2.6	100	2.6	31	0	974.6	NA	0.0000	BR	8000	1250	0	0	0
2019/03/27 12:32:00	BASE	16.30	342	20.11	343	2.6	100	2.6	32	0	974.6	NA	0.0000	BR	8000	1180	5510	0	0
2019/03/27 12:33:00	BASE	17.13	343	20.11	343	2.6	100	2.6	32	0	974.6	NA	0.0000	BR	8000	1120	5510	0	0
2019/03/27 12:34:00	BASE	16.52	343	20.11	343	2.5	100	2.5	32	0	974.7	NA	0.0000	BR	7000	1210	0	0	0
2019/03/27 12:35:00	BASE	15.41	344	20.11	343	2.5	100	2.5	34	0	974.7	NA	0.0000	BR	8000	5180	0	0	0
2019/03/27 12:36:00	BASE	16.38	349	20.11	343	2.5	100	2.5	36	0	974.6	NA	0.0000	BR	8000	5280	0	0	0
2019/03/27 12:37:00	BASE	16.48	351	20.11	343	2.5	100	2.5	38	0	974.7	NA	0.0000	BR	8000	1310	5220	0	0
2019/03/27 12:38:00	BASE	15.65	349	20.11	343	2.5	100	2.5	40	0	974.7	NA	0.0000	BR	8000	5120	0	0	0
2019/03/27 12:39:00	BASE	15.59	348	20.11	343	2.6	100	2.6	43	0	974.7	NA	0.0000	BR	8000	5480	0	0	0
2019/03/27 12:40:00	BASE	15.54	349	19.91	340	2.6	100	2.6	47	0	974.7	NA	0.0000	BR	8000	5020	5640	0	0
2019/03/27 12:41:00	BASE	15.87	346	19.91	340	2.7	100	2.7	49	0	974.7	NA	0.0000	BR	8000	4760	0	0	0
2019/03/27 12:42:00	BASE	16.23	345	19.75	346	2.7	100	2.7	51	0	974.7	NA	0.0000	BR	8000	4820	0	0	0
2019/03/27 12:43:00	BASE	16.01	347	18.67	349	2.7	100	2.7	51	0	974.7	NA	0.0000	BR	8000	5610	0	0	0
2019/03/27 12:44:00	BASE	16.98	346	19.96	349	2.7	100	2.7	51	0	974.7	NA	0.0000	BR	8000	1410	5640	0	0
2019/03/27 12:45:00	BASE	17.44	346	19.96	349	2.7	100	2.7	52	0	974.7	NA	0.0000	BR	8000	5640	0	0	0
2019/03/27 12:46:00	BASE	16.51	347	19.96	349	2.6	100	2.6	53	0	974.7	NA	0.0000	BR	8000	5770	0	0	0
2019/03/27 12:47:00	BASE	14.84	349	19.96	349	2.6	100	2.6	53	0	974.8	NA	0.0000	BR	7000	1510	5840	0	0
2019/03/27 12:48:00	BASE	14.15	350	19.96	349	2.5	100	2.5	55	0	974.7	NA	0.0000	BR	8000	5740	0	0	0
2019/03/27 12:49:00	BASE	14.03	349	19.96	349	2.5	100	2.5	56	0	974.8	NA	0.0000	BR	8000	5610	0	0	0
2019/03/27 12:50:00	BASE	13.57	347	19.96	349	2.5	100	2.5	56	0	974.8	NA	0.0000	BR	8000	5710	0	0	0
2019/03/27 12:51:00	BASE	15.03	344	19.96	349	2.5	100	2.5	56	0	974.7	NA	0.0000	BR	7000	5640	0	0	0
2019/03/27 12:52:00	BASE	15.40	345	19.96	349	2.5	100	2.5	58	0	974.8	NA	0.0000	BR	8000	5680	0	0	0
2019/03/27 12:53:00	BASE	14.68	349	19.96	349	2.5	100	2.5	62	0	974.8	NA	0.0000	BR	8000	5510	0	0	0
2019/03/27 12:54:00	BASE	14.97	350	18.21	348	2.5	100	2.5	63	0	974.7	NA	0.0000	BR	8000	5810	0	0	0
2019/03/27 12:55:00	BASE	14.67	348	17.85	347	2.5	100	2.5	64	0	974.8	NA	0.0000	BR	8000	6070	0	0	0
2019/03/27 12:56:00	BASE	13.90	345	17.34	347	2.5	100	2.5	64	0	974.8	NA	0.0000	BR	8000	6000	0	0	0
2019/03/27 12:57:00	BASE	14.94	343	18.37	339	2.5	100	2.5	62	0	974.7	NA	0.0000	BR	7000	6040	0	0	0
2019/03/27 12:58:00	BASE	15.93	345	18.37	339	2.5	100	2.5	59	0	974.7	NA	0.0000	BR	7000	6070	0	0	0
2019/03/27 12:59:00	BASE	15.84	345	18.37	339	2.5	100	2.5	57	0	974.8	NA	0.0000	BR	8000	6070	0	0	0
2019/03/27 13:00:00	BASE	15.64	343	18.37	339	2.5	100	2.5	57	0	974.8	NA	0.0000	BR	8000	6040	0	0	0
2019/03/27 13:01:00	BASE	15.34	343	18.37	339	2.5	100	2.5	57	0	974.8	NA	0.0000	BR	7000	6040	0	0	0
2019/03/27 13:02:00	BASE	15.50	344	18.37	339	2.5	100	2.5	58	0	974.8	NA	0.0000	BR	7000	5940	0	0	0
2019/03/27 13:03:00	BASE	16.10	345	18.37	339	2.5	100	2.5	61	0	974.8	NA	0.0000	BR	7000	5970	0	0	0
2019/03/27 13:04:00	BASE	16.57	344	18.37	339	2.5	100	2.5	64	0	974.8	NA	0.0000	BR	8000	6040	0	0	0
2019/03/27 13:05:00	BASE	16.84	342	20.32	340	2.5	100	2.5	64	0	974.7	NA	0.0000	BR	7000	6070	0	0	0
2019/03/27 13:06:00	BASE	16.59	340	20.32	340	2.5	100	2.5	64	0	974.8	NA	0.0000	BR	8000	5970	0	0	0
2019/03/27 13:07:00	BASE	16.03	342	20.32	340	2.5	100	2.5	61	0	974.8	NA	0.0000	BR	9000	5970	0	0	0
2019/03/27 13:08:00	BASE	16.32	344	20.32	340	2.5	100	2.5	59	0	974.8	NA	0.0000	BR	8000	5940	0	0	0
2019/03/27 13:09:00	BASE	17.32	344	20.32	340	2.5	100	2.5	58	0	974.7	NA	0.0000	BR	7000	4270	0	0	0
2019/03/27 13:10:00	BASE	17.46	345	20.32	340	2.5	100	2.5	58	0	974.8	NA	0.0000	BR	8000	4270	0	0	0
2019/03/27 13:11:00	BASE	16.34	344	20.32	340	2.5	100	2.5	57	0	974.8	NA	0.0000	BR	7000	4720	6040	0	0
2019/03/27 13:12:00	BASE	16.36	341	20.32	340	2.5	100	2.5	57	0	974.8	NA	0.0000	BR	7000	4760	0	0	0
2019/03/27 13:13:00	BASE	16.88	341	20.32	340	2.5	100	2.5	58	0	974.8	NA	0.0000	BR	8000	5150	0	0	0
2019/03/27 13:14:00	BASE	15.83	343	20.32	340	2.5	100	2.5	58	0	974.8	NA	0.0000	BR	7000	5380	0	0	0
2019/03/27 13:15:00	BASE	15.36	343	19.60	346	2.5	100	2.5	56	0	974.8	NA	0.0000	BR	7000	4070	6330	0	0
2019/03/27 13:16:00	BASE	16.82	344	19.60	346	2.5	100	2.5	54	0	974.8	NA	0.0000	BR	9000	3870	0	0	0
2019/03/27 13:17:00	BASE	17.39	344	19.60	346	2.5	100	2.5	51	0	974.8	NA	0.0000	BR	9000	3540	0	0	0
2019/03/27 13:18:00	BASE	17.31	344	19.60	346	2.5	100	2.5	50	0	974.8	NA	0.0000	BR	8000	4070	0	0	0
2019/03/27 13:19:00	BASE	16.82	343	18.93	348	2.5	100	2.5	46	0	974.8	NA	0.0000	BR	8000	4070	0	0	0
2019/03/27 13:20:00	BASE	16.07	342	18.93	348	2.5	100	2.5	42	0	974.8	NA	0.0000	BR	8000	3050	3840	0	0
2019/03/27 13:21:00	BASE	15.25	344	18.93	348	2.5	100	2.5	39	0	974.8	NA	0.0000	BR	8000	3580	0	0	0
2019/03/27 13:22:01	BASE	14.58	347	18.93	348	2.5	100	2.5	38	0	974.8	NA	0.0000	BR	9000	3050	0	0	0
2019/03/27 13:23:00	BASE	15.52	345	18.93	348	2.5	100	2.5	39	0	974.8	NA	0.0000	BR	9000	3050	0	0	0
2019/03/27 13:24:01	BASE	16.35	345	18.93	348	2.5	100	2.5	40	0	974.8	NA	0.0000	BR	9000	3080	0	0	0
2019/03/27 13:25:01	BASE	16.04	347	18.93	348	2.5	100	2.5	42	0	974.8	NA	0.0000	BR	9000	3120	0	0	0
2019/03/27 13:26:01	BASE	16.64	346	18.93	338	2.5	100	2.5	41	0	974.8	NA	0.0000	BR	8000	3150	3810	0	0
2019/03/27 13:27:01	BASE	16.29	345	18.93	338	2.5	100	2.5	40	0	974.8	NA	0.0000	BR	9000	3150	0	0	0
2019/03/27 13:28:01	BASE	15.30	344	18.93	338	2.5	100	2.5	41	0	974.8	NA	0.0000	BR	9000	3220	0	0	0
2019/03/27 13:29:01	BASE	14.97	347	18.93	338	2.5	100	2.5	42	0	974.9	NA	0.0000	BR	9000	3180	0	0	0
2019/03/27 13:30:01	BASE	14.36	348	18.93	338	2.5	100	2.5	43	0	974.9	NA	0.0000	BR	8000	3280	4200	0	0
2019/03/27 13:31:01	BASE	15.05	347	18.93	338	2.6	100	2.6	46	0	974.9	NA	0.0000	BR	8000	3310	0	0	0
2019/03/27 13:32:01	BASE	15.44	347	18.93	338	2.6	100	2.6	49	0	974.8	NA	0.0000	BR	9000	3250	0	0	0
2019/03/27 13:33:00	BASE	14.61	346	18.93	338	2.6	100	2.6	51	0	974.9	NA	0.0000	BR	8000	3970	4790	0	0
2019/03/27 13:34:00	BASE	13.67	343	18.93	338	2.6	100	2.6	51	0	974.9	NA	0.0000	BR	9000	3350	4890	0	0
2019/03/27 13:35:00	BASE	14.99	345	20.78	354	2.6	100	2.6	50	0	974.8	NA	0.0000	BR	8000	3770	4920	0	0
2019/03/27 13:36:00	BASE	16.37	348	20.78	354	2.6	100	2.6	50	0	974.8	NA	0.0000	BR	8000	4890	0	0	0
2019/03/27 13:37:00	BASE	16.29	349	20.78	354	2.7	100	2.7	51	0	974.8	NA	0.0000	BR	8000	2920	5050	0	0
2019/03/27 13:38:00	BASE	16.25	349	20.78	354	2.7	100	2.7	52	0	974.9	NA	0.0000	BR	9000	4920	0	0	0
2019/03/27 13:39:00	BASE	15.26	347	20.78	354	2.8	100	2.8	54	0	974.9	NA	0.0000	BR	8000	2950	5090	0	0
2019/03/27 13:40:00	BASE	15.62	350	20.78	354	2.8	100	2.8	56	0	974.9	NA	0.0000	BR	8000	2920	0	0	0
2019/03/27 13:41:00	BASE	15.78	349	20.78	354	2.8	100	2.8	58	0	974.9	NA	0.0000	BR	8000	5510	0	0	0
2019/03/27 13:42:00	BASE	14.94	347	20.78	354	2.7	100	2.7	60	0	974.9	NA	0.0000	BR	8000	2950	5180	0	0
2019/03/27 13:43:00	BASE	15.79	348	20.78	354	2.7	100	2.7	61	0	974.9	NA	0.0000	BR	8000	5180	0	0	0
2019/03/27 13:44:00	BASE	16.60	347	20.78	354	2.7	100	2.7	62	0	974.9	NA	0.0000	BR	9000	3810	0	0	0
2019/03/27 13:45:00	BASE	17.46	349	20.83	351	2.7	100	2.7	65	0	974.8	NA	0.0000	BR	8000	1610	2950	0	0
2019/03/27 13:46:00	BASE	17.42	352	20.83	351	2.7	100	2.7	69	0	974.8	NA	0.0000	BR	8000	2920	0	0	0
2019/03/27 13:47:00	BASE	17.82	352	24.18	351	2.8	100	2.8	73	0	974.8	NA	0.0000	BR	8000	3410	0	0	0
2019/03/27 13:48:00	BASE	18.71	349	24.18	351	2.8	100	2.8	75	0	974.8	NA	0.0000	BR	8000	3020	3640	0	0
2019/03/27 13:49:00	BASE	17.58	347	24.18	351	2.9	100	2.9	78	0	974.9	NA	0.0000	BR	9000	2990	0	0	0
2019/03/27 13:50:00	BASE	16.63	348	24.18	351	2.9	100	2.9	81	0	974.9	NA	0.0000	BR	8000	3050	0	0	0
2019/03/27 13:51:00	BASE	16.37	349	24.18	351	2.9	100	2.9	85	0	974.8	NA	0.0000	BR	9000	3540	5810	0	0
2019/03/27 13:52:00	BASE	16.48	354	24.18	351	2.9	100	2.9	88	0	974.9	NA	0.0000	BR	9000	3640	0	0	0
2019/03/27 13:53:00	BASE	15.94	355	24.18	351	2.9	100	2.9	92	0	974.9	NA	0.0000	BR	8000	3410	5870	0	0
2019/03/27 13:54:00	BASE	14.93	352	24.18	351	2.9	100	2.9	98	0	974.9	NA	0.0000	BR	8000	5770	0	0	0
2019/03/27 13:55:00	BASE	15.07	349	24.18	351	2.9	100	2.9	105	0	975.0	NA	0.0000	BR	8000	5770	0	0	0
2019/03/27 13:56:00	BASE	15.41	347	24.18	351	2.9	100	2.9	113	0	975.0	NA	0.0000	BR	8000	5640	0	0	0
2019/03/27 13:57:00	BASE	14.73	350	21.20	353	2.8	100	2.8	119	0	975.0	NA	0.0000	BR	8000	5870	0	0	0
2019/03/27 13:58:00	BASE	14.58	356	19.09	348	2.8	100	2.8	119	0	974.9	NA	0.0000	BR	8000	5810	0	0	0
2019/03/27 13:59:00	BASE	14.88	353	19.09	348	2.8	100	2.8	117	0	975.0	NA	0.0000	BR	9000	5810	0	0	0
2019/03/27 14:00:00	BASE	15.51	348	19.09	348	2.8	100	2.8	112	0	975.0	NA	0.0000	BR	8000	5910	0	0	0
2019/03/27 14:01:00	BASE	16.02	349	19.03	351	2.8	100	2.8	107	0	975.0	NA	0.0000	BR	7000	5740	0	0	0
2019/03/27 14:02:00	BASE	15.78	350	19.03	351	2.8	100	2.8	104	0	975.0	NA	0.0000	BR	8000	5640	0	0	0
2019/03/27 14:03:00	BASE	16.19	349	19.03	351	2.8	100	2.8	101	0	975.0	NA	0.0000	BR	7000	5740	0	0	0
2019/03/27 14:04:00	BASE	15.80	348	19.03	351	2.8	100	2.8	99	0	975.0	NA	0.0000	BR	7000	5740	0	0	0
2019/03/27 14:05:00	BASE	15.11	349	19.03	351	2.7	100	2.7	96	0	975.0	NA	0.0000	BR	8000	5640	0	0	0
2019/03/27 14:06:00	BASE	15.66	351	19.03	351	2.7	100	2.7	95	0	975.0	NA	0.0000	BR	8000	5740	0	0	0
2019/03/27 14:07:00	BASE	16.95	352	19.09	350	2.7	100	2.7	94	0	975.0	NA	0.0000	BR	9000	5640	0	0	0
2019/03/27 14:08:00	BASE	16.75	352	19.09	350	2.7	100	2.7	94	0	975.1	NA	0.0000	BR	8000	5710	0	0	0
2019/03/27 14:09:00	BASE	15.39	351	19.09	350	2.7	100	2.7	94	0	975.1	NA	0.0000	BR	9000	5770	0	0	0
2019/03/27 14:10:00	BASE	14.91	349	19.09	350	2.7	100	2.7	93	0	975.1	NA	0.0000	BR	8000	5740	0	0	0
2019/03/27 14:11:00	BASE	15.07	344	19.09	350	2.7	100	2.7	91	0	975.2	NA	0.0000	BR	7000	5710	0	0	0
2019/03/27 14:12:00	BASE	14.53	345	19.09	350	2.7	100	2.7	91	0	975.2	NA	0.0000	BR	7000	5770	0	0	0
2019/03/27 14:13:00	BASE	13.40	348	19.09	350	2.7	100	2.7	91	0	975.2	NA	0.0000	BR	7000	6170	0	0	0
2019/03/27 14:14:00	BASE	14.03	348	19.09	350	2.7	100	2.7	92	0	975.1	NA	0.0000	BR	8000	5770	0	0	0
2019/03/27 14:15:00	BASE	14.69	349	19.09	350	2.7	100	2.7	97	0	975.1	NA	0.0000	BR	8000	5940	0	0	0
2019/03/27 14:16:00	BASE	14.88	354	19.09	350	2.7	100	2.7	106	0	975.1	NA	0.0000	BR	8000	5840	0	0	0
2019/03/27 14:17:00	BASE	14.32	354	18.47	349	2.7	100	2.7	113	0	975.2	NA	0.0000	BR	8000	6100	22180	0	0
2019/03/27 14:18:00	BASE	13.61	347	17.85	352	2.7	100	2.7	117	0	975.2	NA	0.0000	BR	9000	5970	0	0	0
2019/03/27 14:19:00	BASE	13.98	347	17.85	352	2.8	100	2.8	119	0	975.2	NA	0.0000	BR	8000	6000	0	0	0
2019/03/27 14:20:00	BASE	15.55	344	18.78	335	2.8	100	2.8	127	0	975.1	NA	0.0000	BR	8000	5940	0	0	0
2019/03/27 14:21:00	BASE	15.99	343	18.78	335	2.8	100	2.8	137	0	975.2	NA	0.0000	BR	9000	5840	0	0	0
2019/03/27 14:22:01	BASE	14.81	350	18.78	335	2.8	100	2.8	137	0	975.2	NA	0.0000	BR	8000	5810	0	0	0
2019/03/27 14:23:01	BASE	15.47	353	18.78	335	2.8	100	2.8	133	0	975.2	NA	0.0000	BR	9000	1510	5870	0	0
2019/03/27 14:24:01	BASE	15.56	351	18.78	335	2.8	100	2.8	124	0	975.2	NA	0.0000	BR	9000	5840	0	0	0
2019/03/27 14:25:01	BASE	15.08	352	18.78	335	2.8	100	2.8	122	0	975.2	NA	0.0000	BR	9000	5580	0	0	0
2019/03/27 14:26:01	BASE	15.07	352	18.78	335	2.8	100	2.8	125	0	975.2	NA	0.0000	BR	9000	5770	0	0	0
2019/03/27 14:27:01	BASE	16.02	352	18.88	354	2.8	100	2.8	127	0	975.2	NA	0.0000	BR	9000	1610	5610	0	0
2019/03/27 14:28:01	BASE	17.07	355	20.17	353	2.9	100	2.9	128	0	975.2	NA	0.0000	BR	9000	5510	0	0	0
2019/03/27 14:29:01	BASE	16.68	354	20.17	353	2.9	100	2.9	128	0	975.2	NA	0.0000	BR	8000	5480	0	0	0
2019/03/27 14:30:01	BASE	16.02	353	20.17	353	2.9	100	2.9	125	0	975.2	NA	0.0000	BR	8000	5280	0	0	0
2019/03/27 14:31:01	BASE	16.19	354	20.17	353	2.9	100	2.9	123	0	975.2	NA	0.0000	BR	9000	5150	0	0	0
2019/03/27 14:32:01	BASE	15.77	356	20.17	353	2.9	100	2.9	124	0	975.2	NA	0.0000	BR	9000	5120	0	0	0
2019/03/27 14:33:01	BASE	15.25	359	20.17	353	2.9	100	2.9	126	0	975.2	NA	0.0000	BR	8000	5450	0	0	0
2019/03/27 14:34:01	BASE	15.17	357	20.17	353	2.9	100	2.9	130	0	975.3	NA	0.0000	BR	8000	5380	0	0	0
2019/03/27 14:35:01	BASE	14.79	355	20.17	353	2.9	100	2.9	135	0	975.2	NA	0.0000	BR	8000	5280	0	0	0
2019/03/27 14:36:01	BASE	14.56	355	20.17	353	2.9	100	2.9	138	0	975.2	NA	0.0000	BR	8000	5540	0	0	0
2019/03/27 14:37:01	BASE	15.79	356	20.17	353	2.8	100	2.8	136	0	975.2	NA	0.0000	BR	8000	5610	0	0	0
2019/03/27 14:38:01	BASE	16.99	354	20.01	344	2.8	100	2.8	127	0	975.2	NA	0.0000	BR	8000	5480	0	0	0
2019/03/27 14:39:01	BASE	15.82	355	20.01	344	2.8	100	2.8	118	0	975.3	NA	0.0000	BR	8000	5320	0	0	0
2019/03/27 14:40:01	BASE	14.58	356	20.01	344	2.8	100	2.8	110	0	975.3	NA	0.0000	BR	8000	5220	21560	0	0
2019/03/27 14:41:01	BASE	14.30	351	19.70	352	2.8	100	2.8	104	0	975.3	NA	0.0000	BR	8000	5280	0	0	0
2019/03/27 14:42:00	BASE	14.25	350	19.70	352	2.8	100	2.8	99	0	975.3	NA	0.0000	BR	8000	5120	0	0	0
2019/03/27 14:43:00	BASE	15.11	351	19.70	352	2.8	100	2.8	95	0	975.3	NA	0.0000	BR	8000	5220	0	0	0
2019/03/27 14:44:00	BASE	16.59	349	19.70	352	2.8	100	2.8	93	0	975.3	NA	0.0000	BR	8000	5090	20970	0	0
2019/03/27 14:45:00	BASE	16.24	346	19.70	352	2.8	100	2.8	97	0	975.3	NA	0.0000	BR	8000	4950	0	0	0
2019/03/27 14:46:00	BASE	16.06	348	19.70	352	2.8	100	2.8	99	0	975.3	NA	0.0000	BR	8000	4720	0	0	0
2019/03/27 14:47:00	BASE	16.68	351	19.24	346	2.8	100	2.8	99	0	975.3	NA	0.0000	BR	8000	4860	0	0	0
2019/03/27 14:48:00	BASE	16.63	350	18.57	352	2.8	100	2.8	98	0	975.3	NA	0.0000	BR	8000	4920	0	0	0
2019/03/27 14:49:00	BASE	16.08	353	18.78	348	2.8	100	2.8	100	0	975.3	NA	0.0000	BR	8000	4890	0	0	0
2019/03/27 14:50:00	BASE	15.98	353	18.78	348	2.8	100	2.8	101	0	975.3	NA	0.0000	BR	8000	4890	0	0	0
2019/03/27 14:51:00	BASE	16.34	351	18.78	348	2.8	100	2.8	99	0	975.3	NA	0.0000	BR	7000	4890	0	0	0
2019/03/27 14:52:00	BASE	16.24	349	18.88	352	2.8	100	2.8	95	0	975.4	NA	0.0000	BR	8000	4860	0	0	0
2019/03/27 14:53:00	BASE	17.18	349	20.89	349	2.8	100	2.8	95	0	975.3	NA	0.0000	BR	8000	4890	0	0	0
2019/03/27 14:54:00	BASE	17.17	347	20.89	349	2.8	100	2.8	97	0	975.4	NA	0.0000	BR	8000	4950	0	0	0
2019/03/27 14:55:00	BASE	15.63	348	20.89	349	2.8	100	2.8	97	0	975.4	NA	0.0000	BR	8000	5020	0	0	0
2019/03/27 14:56:00	BASE	15.96	349	20.89	349	2.8	100	2.8	97	0	975.3	NA	0.0000	BR	8000	5120	0	0	0
2019/03/27 14:57:00	BASE	16.72	350	20.89	349	2.8	100	2.8	96	0	975.3	NA	0.0000	BR	9000	5020	0	0	0
2019/03/27 14:58:00	BASE	17.22	353	20.89	349	2.8	100	2.8	96	0	975.3	NA	0.0000	BR	8000	4950	0	0	0
2019/03/27 14:59:00	BASE	17.57	356	21.50	345	2.8	100	2.8	98	0	975.3	NA	0.0000	BR	8000	4990	0	0	0
2019/03/27 15:00:00	BASE	17.06	353	21.50	345	2.8	100	2.8	100	0	975.3	NA	0.0000	BR	8000	4820	0	0	0
2019/03/27 15:01:00	BASE	16.47	347	21.50	345	2.8	100	2.8	101	0	975.4	NA	0.0000	BR	9000	4760	0	0	0
2019/03/27 15:02:00	BASE	15.40	347	21.50	345	2.8	100	2.8	100	0	975.4	NA	0.0000	BR	9999	4890	0	0	0
2019/03/27 15:03:00	BASE	14.95	351	21.50	345	2.8	100	2.8	99	0	975.4	NA	0.0000	BR	9000	4720	0	0	0
2019/03/27 15:04:00	BASE	16.01	353	21.50	345	2.8	100	2.8	98	0	975.4	NA	0.0000	BR	9000	4690	0	0	0
2019/03/27 15:05:00	BASE	17.21	352	21.50	345	2.8	100	2.8	99	0	975.3	NA	0.0000	BR	8000	4660	0	0	0
2019/03/27 15:06:00	BASE	16.46	352	21.50	345	2.8	100	2.8	99	0	975.4	NA	0.0000	BR	8000	1710	4720	0	0
2019/03/27 15:07:00	BASE	16.15	350	21.50	345	2.8	100	2.8	101	0	975.4	NA	0.0000	BR	8000	4630	0	0	0
2019/03/27 15:08:00	BASE	15.84	348	21.50	345	2.8	100	2.8	100	0	975.4	NA	0.0000	BR	8000	4560	0	0	0
2019/03/27 15:09:00	BASE	14.60	350	21.30	347	2.8	100	2.8	96	0	975.5	NA	0.0000	BR	8000	4720	0	0	0
2019/03/27 15:10:00	BASE	14.88	351	21.30	347	2.8	100	2.8	92	0	975.4	NA	0.0000	BR	8000	4860	0	0	0
2019/03/27 15:11:00	BASE	15.56	347	21.30	347	2.8	100	2.8	90	0	975.4	NA	0.0000	BR	8000	4660	0	0	0
2019/03/27 15:12:00	BASE	15.30	346	21.30	347	2.8	100	2.8	89	0	975.5	NA	0.0000	BR	9000	4660	0	0	0
2019/03/27 15:13:00	BASE	14.12	349	21.30	347	2.7	100	2.7	91	0	975.5	NA	0.0000	BR	9000	4660	0	0	0
2019/03/27 15:14:00	BASE	13.60	350	21.30	347	2.7	100	2.7	94	0	975.6	NA	0.0000	BR	9000	4720	0	0	0
2019/03/27 15:15:00	BASE	13.66	354	19.86	347	2.7	100	2.7	97	0	975.5	NA	0.0000	BR	8000	4660	0	0	0
2019/03/27 15:16:00	BASE	14.71	355	19.96	345	2.7	100	2.7	96	0	975.5	NA	0.0000	BR	9000	4820	0	0	0
2019/03/27 15:17:00	BASE	15.33	350	19.96	345	2.7	100	2.7	96	0	975.5	NA	0.0000	BR	9000	4790	0	0	0
2019/03/27 15:18:00	BASE	14.47	350	19.96	345	2.7	100	2.7	95	0	975.5	NA	0.0000	BR	8000	4820	0	0	0
2019/03/27 15:19:00	BASE	13.87	354	19.96	345	2.8	100	2.8	92	0	975.6	NA	0.0000	BR	8000	3250	4950	0	0
2019/03/27 15:20:00	BASE	15.02	351	19.96	345	2.8	100	2.8	87	0	975.5	NA	0.0000	BR	8000	3220	4890	0	0
2019/03/27 15:21:00	BASE	15.62	348	19.96	345	2.8	100	2.8	82	0	975.5	NA	0.0000	BR	8000	3150	0	0	0
2019/03/27 15:22:00	BASE	15.01	346	19.96	345	2.9	100	2.9	79	0	975.5	NA	0.0000	BR	9000	3250	5050	0	0
2019/03/27 15:23:00	BASE	15.06	342	19.96	345	2.9	100	2.9	78	0	975.5	NA	0.0000	BR	9000	3220	0	0	0
2019/03/27 15:24:00	BASE	14.64	341	19.96	345	2.9	100	2.9	76	0	975.6	NA	0.0000	BR	8000	3250	0	0	0
2019/03/27 15:25:00	BASE	14.55	340	19.96	345	2.8	100	2.8	74	0	975.6	NA	0.0000	BR	8000	3220	0	0	0
2019/03/27 15:26:00	BASE	15.37	340	19.14	349	2.8	100	2.8	74	0	975.6	NA	0.0000	BR	8000	3250	0	0	0
2019/03/27 15:27:00	BASE	15.44	340	19.14	349	2.8	100	2.8	77	0	975.6	NA	0.0000	BR	8000	3280	0	0	0
2019/03/27 15:28:00	BASE	14.79	340	19.14	349	2.8	100	2.8	79	0	975.6	NA	0.0000	BR	8000	3310	0	0	0
2019/03/27 15:29:00	BASE	15.06	342	19.14	349	2.8	100	2.8	76	0	975.5	NA	0.0000	BR	8000	3870	5350	0	0
2019/03/27 15:30:00	BASE	16.42	345	19.60	348	2.8	100	2.8	73	0	975.5	NA	0.0000	BR	9000	3180	0	0	0
2019/03/27 15:31:00	BASE	16.71	351	19.60	348	2.8	100	2.8	70	0	975.5	NA	0.0000	BR	9999	2530	3150	0	0
2019/03/27 15:32:00	BASE	17.34	355	21.66	348	2.8	100	2.8	65	0	975.4	NA	0.0000	BR	9000	3120	0	0	0
2019/03/27 15:33:00	BASE	18.08	350	21.66	348	2.8	100	2.8	61	0	975.4	NA	0.0000	BR	8000	3020	0	0	0
2019/03/27 15:34:01	BASE	17.40	347	21.66	348	2.9	100	2.9	60	0	975.5	NA	0.0000	BR	9000	3020	0	0	0
2019/03/27 15:35:01	BASE	17.18	353	21.66	348	2.9	100	2.9	62	0	975.4	NA	0.0000	BR	9000	2990	0	0	0
2019/03/27 15:36:01	BASE	17.19	353	21.66	348	2.9	100	2.9	64	0	975.4	NA	0.0000	BR	8000	3250	0	0	0
2019/03/27 15:37:01	BASE	17.02	352	21.66	348	3.0	100	3.0	68	0	975.5	NA	0.0000	BR	9000	3250	4400	0	0
2019/03/27 15:38:01	BASE	17.52	351	21.66	348	3.0	100	3.0	80	0	975.4	NA	0.0000	BR	8000	3020	0	0	0
2019/03/27 15:39:01	BASE	17.64	350	21.66	348	3.0	100	3.0	93	0	975.4	NA	0.0000	BR	9000	3310	0	0	0
2019/03/27 15:40:01	BASE	17.46	354	21.66	348	2.9	100	2.9	97	0	975.4	NA	0.0000	BR	9000	3510	0	0	0
2019/03/27 15:41:01	BASE	18.04	349	21.66	348	2.9	100	2.9	96	0	975.4	NA	0.0000	BR	9000	3280	4130	0	0
2019/03/27 15:42:01	BASE	18.04	348	21.35	285	2.9	100	2.9	93	0	975.4	NA	0.0000	BR	9000	3480	0	0	0
2019/03/27 15:43:01	BASE	17.40	353	21.35	285	2.9	100	2.9	92	0	975.4	NA	0.0000	BR	9000	3250	0	0	0
2019/03/27 15:44:01	BASE	17.05	356	21.35	285	2.9	100	2.9	93	0	975.5	NA	0.0000	BR	9000	3480	5510	0	0
2019/03/27 15:45:01	BASE	16.08	359	21.35	285	2.9	100	2.9	98	0	975.5	NA	0.0000	BR	8000	3380	0	0	0
2019/03/27 15:46:01	BASE	16.13	353	21.71	345	2.9	100	2.9	106	0	975.4	NA	0.0000	BR	9000	4330	4890	0	0
2019/03/27 15:47:01	BASE	17.49	353	21.71	345	2.9	100	2.9	112	0	975.4	NA	0.0000	BR	9000	4820	0	0	0
2019/03/27 15:48:01	BASE	18.79	356	24.28	354	2.9	100	2.9	115	0	975.3	NA	0.0000	BR	9000	3610	0	0	0
2019/03/27 15:49:01	BASE	18.52	0	24.28	354	2.9	100	2.9	117	0	975.4	NA	0.0000	BR	9000	3540	4430	0	0
2019/03/27 15:50:00	BASE	16.93	0	24.28	354	2.9	100	2.9	117	0	975.5	NA	0.0000	BR	9000	3250	4330	0	0
2019/03/27 15:51:00	BASE	17.07	357	24.28	354	2.9	100	2.9	113	0	975.5	NA	0.0000	BR	9000	3150	0	0	0
2019/03/27 15:52:00	BASE	16.07	355	24.28	354	3.0	100	3.0	104	0	975.5	NA	0.0000	BR	8000	3540	0	0	0
2019/03/27 15:53:00	BASE	16.20	349	24.28	354	3.0	100	3.0	98	0	975.5	NA	0.0000	BR	8000	3280	0	0	0
2019/03/27 15:54:00	BASE	16.59	343	24.28	354	3.0	100	3.0	98	0	975.5	NA	0.0000	BR	8000	2560	3380	0	0
2019/03/27 15:55:00	BASE	14.61	345	24.28	354	3.0	100	2.9	99	0	975.6	NA	0.0000	BR	9000	3640	0	0	0
2019/03/27 15:56:00	BASE	15.08	352	24.28	354	2.9	100	2.9	102	0	975.6	NA	0.0000	BR	9000	3220	0	0	0
2019/03/27 15:57:00	BASE	16.00	354	24.28	354	2.9	100	2.9	107	0	975.6	NA	0.0000	BR	8000	3180	23390	0	0
2019/03/27 15:58:00	BASE	16.27	351	20.68	345	2.9	100	2.9	109	0	975.6	NA	0.0000	BR	8000	3940	0	0	0
2019/03/27 15:59:00	BASE	17.30	352	20.68	345	2.9	100	2.9	112	0	975.5	NA	0.0000	BR	8000	3280	0	0	0
2019/03/27 16:00:00	BASE	16.76	357	20.68	345	2.9	100	2.9	113	0	975.6	NA	0.0000	BR	8000	3080	0	0	0
2019/03/27 16:01:00	BASE	15.36	357	20.68	345	2.9	100	2.9	104	0	975.6	NA	0.0000	BR	8000	3280	0	0	0
2019/03/27 16:02:00	BASE	15.06	358	20.68	345	2.9	100	2.9	93	0	975.6	NA	0.0000	BR	8000	2530	0	0	0
2019/03/27 16:03:00	BASE	14.82	355	18.98	349	2.8	100	2.8	88	0	975.6	NA	0.0000	BR	8000	2590	0	0	0
2019/03/27 16:04:00	BASE	14.29	356	18.98	349	2.8	100	2.8	89	0	975.7	NA	0.0000	BR	9000	3280	0	0	0
2019/03/27 16:05:00	BASE	14.33	1	18.98	349	2.8	100	2.8	93	0	975.7	NA	0.0000	BR	9000	3080	0	0	0
2019/03/27 16:06:00	BASE	14.23	1	18.98	349	2.8	100	2.8	100	0	975.6	NA	0.0000	BR	8000	3580	0	0	0
2019/03/27 16:07:00	BASE	14.29	358	18.98	349	2.8	100	2.8	108	0	975.6	NA	0.0000	BR	8000	2820	3740	0	0
2019/03/27 16:08:00	BASE	15.01	354	18.98	349	2.8	100	2.8	116	0	975.6	NA	0.0000	BR	8000	3580	0	0	0
2019/03/27 16:09:00	BASE	15.54	352	18.01	360	2.8	100	2.8	120	0	975.6	NA	0.0000	BR	8000	3280	3970	0	0
2019/03/27 16:10:00	BASE	16.11	352	18.01	360	2.8	100	2.8	123	0	975.6	NA	0.0000	BR	8000	3350	0	0	0
2019/03/27 16:11:00	BASE	16.36	356	18.73	341	2.8	100	2.8	127	0	975.6	NA	0.0000	BR	8000	3310	0	0	0
2019/03/27 16:12:00	BASE	15.84	354	18.73	341	2.9	100	2.9	128	0	975.5	NA	0.0000	BR	8000	3640	0	0	0
2019/03/27 16:13:00	BASE	15.16	353	18.73	341	2.9	100	2.9	127	0	975.5	NA	0.0000	BR	8000	3540	0	0	0
2019/03/27 16:14:00	BASE	14.83	354	18.73	341	2.9	100	2.9	128	0	975.6	NA	0.0000	BR	8000	3900	0	0	0
2019/03/27 16:15:00	BASE	15.57	353	19.24	354	2.9	100	2.9	128	0	975.5	NA	0.0000	BR	9000	3970	4430	0	0
2019/03/27 16:16:00	BASE	17.01	355	21.20	349	2.9	100	2.9	124	0	975.5	NA	0.0000	BR	9000	3810	0	0	0
2019/03/27 16:17:00	BASE	16.02	358	21.20	349	2.9	100	2.9	121	0	975.6	NA	0.0000	BR	8000	3970	0	0	0
2019/03/27 16:18:00	BASE	14.82	359	21.20	349	2.9	100	2.9	122	0	975.5	NA	0.0000	BR	8000	3870	0	0	0
2019/03/27 16:19:00	BASE	16.35	2	21.20	349	2.9	100	2.9	125	0	975.5	NA	0.0000	BR	8000	4430	0	0	0
2019/03/27 16:20:00	BASE	17.70	1	21.20	349	2.9	100	2.9	129	0	975.5	NA	0.0000	BR	8000	4230	0	0	0
2019/03/27 16:21:00	BASE	17.49	359	21.20	349	2.9	100	2.8	134	0	975.5	NA	0.0000	BR	9000	4170	0	0	0
2019/03/27 16:22:00	BASE	16.71	0	21.20	349	2.8	100	2.8	139	0	975.6	NA	0.0000	BR	9000	3640	0	0	0
2019/03/27 16:23:00	BASE	15.70	359	21.20	349	2.8	100	2.8	145	0	975.6	NA	0.0000	BR	9000	3670	5480	0	0
2019/03/27 16:24:00	BASE	14.50	358	21.20	349	2.8	100	2.8	150	0	975.7	NA	0.0000	BR	8000	3480	5450	0	0
2019/03/27 16:25:00	BASE	13.98	357	21.20	349	2.8	100	2.8	153	0	975.7	NA	0.0000	BR	8000	3710	5380	0	0
2019/03/27 16:26:00	BASE	14.55	359	19.60	354	2.8	100	2.8	154	0	975.6	NA	0.0000	BR	8000	3540	0	0	0
2019/03/27 16:27:00	BASE	14.81	2	19.60	354	2.7	100	2.7	154	0	975.6	NA	0.0000	BR	9000	3580	5320	0	0
2019/03/27 16:28:00	BASE	14.93	3	19.60	354	2.7	100	2.7	154	0	975.7	NA	0.0000	BR	8000	5250	0	0	0
2019/03/27 16:29:00	BASE	14.72	4	19.60	354	2.7	100	2.7	153	0	975.6	NA	0.0000	BR	8000	3970	0	0	0
2019/03/27 16:30:00	BASE	14.87	360	19.60	354	2.7	100	2.7	153	0	975.6	NA	0.0000	BR	8000	5120	0	0	0
2019/03/27 16:31:00	BASE	14.83	359	18.21	350	2.7	100	2.7	152	0	975.7	NA	0.0000	BR	8000	4040	5050	0	0
2019/03/27 16:32:01	BASE	14.74	0	17.54	360	2.7	100	2.7	153	0	975.6	NA	0.0000	BR	8000	4200	0	0	0
2019/03/27 16:33:01	BASE	15.79	358	18.52	326	2.7	100	2.7	153	0	975.6	NA	0.0000	BR	8000	5180	0	0	0
2019/03/27 16:34:01	BASE	16.31	359	19.34	360	2.7	100	2.7	149	0	975.6	NA	0.0000	BR	8000	5120	0	0	0
2019/03/27 16:35:01	BASE	16.10	359	19.34	360	2.7	100	2.7	144	0	975.6	NA	0.0000	BR	8000	3410	0	0	0
2019/03/27 16:36:01	BASE	15.48	358	19.34	360	2.7	100	2.7	140	0	975.6	NA	0.0000	BR	8000	3120	0	0	0
2019/03/27 16:37:01	BASE	15.04	360	19.34	360	2.7	100	2.7	142	0	975.6	NA	0.0000	BR	8000	3250	18310	0	0
2019/03/27 16:38:01	BASE	14.45	357	19.34	360	2.7	100	2.7	141	0	975.6	NA	0.0000	BR	8000	3610	0	0	0
2019/03/27 16:39:01	BASE	14.31	358	19.34	360	2.7	100	2.7	136	0	975.6	NA	0.0000	BR	7000	3710	0	0	0
2019/03/27 16:40:01	BASE	15.23	358	19.34	360	2.7	100	2.7	129	0	975.6	NA	0.0000	BR	8000	3050	3940	0	0
2019/03/27 16:41:01	BASE	16.11	353	19.34	360	2.7	100	2.7	128	0	975.6	NA	0.0000	BR	8000	3640	0	0	0
2019/03/27 16:42:01	BASE	15.50	355	19.34	360	2.7	100	2.7	124	0	975.6	NA	0.0000	BR	8000	3150	3810	0	0
2019/03/27 16:43:01	BASE	14.29	356	19.34	360	2.8	100	2.8	119	0	975.6	NA	0.0000	BR	9000	3380	3870	0	0
2019/03/27 16:44:01	BASE	14.72	354	18.83	352	2.8	100	2.8	112	0	975.6	NA	0.0000	BR	8000	4430	0	0	0
2019/03/27 16:45:01	BASE	15.68	358	18.83	352	2.8	100	2.8	104	0	975.6	NA	0.0000	BR	8000	3840	0	0	0
2019/03/27 16:46:01	BASE	15.96	1	18.83	352	2.8	100	2.8	100	0	975.6	NA	0.0000	BR	8000	3220	0	0	0
2019/03/27 16:47:01	BASE	15.83	2	18.83	352	2.7	100	2.7	101	0	975.6	NA	0.0000	BR	8000	3410	0	0	0
2019/03/27 16:48:01	BASE	15.45	5	18.83	352	2.7	100	2.7	101	0	975.7	NA	0.0000	BR	8000	3050	4000	0	0
2019/03/27 16:49:01	BASE	14.46	1	18.83	352	2.7	100	2.7	99	0	975.7	NA	0.0000	BR	8000	4300	0	0	0
2019/03/27 16:50:01	BASE	14.30	359	18.83	352	2.7	100	2.7	99	0	975.7	NA	0.0000	BR	8000	3510	0	0	0
2019/03/27 16:51:01	BASE	15.43	1	18.83	352	2.7	100	2.7	99	0	975.6	NA	0.0000	BR	8000	3740	0	0	0
2019/03/27 16:52:01	BASE	15.36	2	18.83	352	2.6	100	2.6	97	0	975.7	NA	0.0000	BR	8000	3870	0	0	0
2019/03/27 16:53:01	BASE	15.26	3	18.83	352	2.6	100	2.6	93	0	975.7	NA	0.0000	BR	8000	4200	0	0	0
2019/03/27 16:54:01	BASE	16.10	1	19.81	354	2.6	100	2.6	88	0	975.6	NA	0.0000	BR	9000	3580	4300	0	0
2019/03/27 16:55:01	BASE	15.14	0	19.81	354	2.6	100	2.6	87	0	975.7	NA	0.0000	BR	8000	3310	0	0	0
2019/03/27 16:56:01	BASE	14.45	359	19.81	354	2.6	100	2.6	88	0	975.6	NA	0.0000	BR	8000	3540	4130	0	0
2019/03/27 16:57:01	BASE	15.15	360	19.81	354	2.6	100	2.6	89	0	975.6	NA	0.0000	BR	8000	3350	4040	0	0
2019/03/27 16:58:01	BASE	15.68	3	19.81	354	2.6	100	2.6	90	0	975.6	NA	0.0000	BR	8000	4130	0	0	0
2019/03/27 16:59:01	BASE	16.14	3	19.81	354	2.6	100	2.6	88	0	975.6	NA	0.0000	BR	8000	3580	4170	0	0
2019/03/27 17:00:01	BASE	16.34	358	19.81	354	2.6	100	2.6	85	0	975.6	NA	0.0000	BR	8000	3510	4230	0	0
2019/03/27 17:01:00	BASE	16.10	353	19.81	354	2.6	100	2.6	81	0	975.6	NA	0.0000	BR	9000	2760	3510	0	0
2019/03/27 17:02:00	BASE	16.25	355	20.68	1	2.6	100	2.6	80	0	975.6	NA	0.0000	BR	9000	2760	3480	0	0
2019/03/27 17:03:00	BASE	16.21	357	20.68	1	2.6	100	2.6	83	0	975.6	NA	0.0000	BR	8000	3020	20800	0	0
2019/03/27 17:04:00	BASE	17.01	355	20.68	1	2.7	100	2.7	86	0	975.6	NA	0.0000	BR	8000	3050	0	0	0
2019/03/27 17:05:00	BASE	17.87	354	20.68	1	2.7	100	2.7	85	0	975.6	NA	0.0000	BR	8000	3870	0	0	0
2019/03/27 17:06:00	BASE	16.07	350	20.68	1	2.7	100	2.7	82	0	975.6	NA	0.0000	BR	8000	2950	3900	0	0
2019/03/27 17:07:00	BASE	14.65	350	20.68	1	2.7	100	2.7	82	0	975.6	NA	0.0000	BR	7000	4130	0	0	0
2019/03/27 17:08:00	BASE	15.42	353	20.68	1	2.7	100	2.7	79	0	975.6	NA	0.0000	BR	7000	4130	0	0	0
2019/03/27 17:09:00	BASE	16.52	352	20.68	1	2.7	100	2.7	78	0	975.6	NA	0.0000	BR	8000	2720	0	0	0
2019/03/27 17:10:00	BASE	16.76	355	20.68	1	2.7	100	2.7	79	0	975.6	NA	0.0000	BR	8000	950	3640	0	0
2019/03/27 17:11:00	BASE	16.86	360	20.68	1	2.7	100	2.7	82	0	975.6	NA	0.0000	BR	8000	2170	3280	0	0
2019/03/27 17:12:00	BASE	17.02	349	19.60	354	2.7	100	2.7	86	0	975.6	NA	0.0000	BR	8000	3480	0	0	0
2019/03/27 17:13:00	BASE	17.48	347	19.60	354	2.7	100	2.7	84	0	975.6	NA	0.0000	BR	7000	3940	0	0	0
2019/03/27 17:14:00	BASE	18.04	356	20.42	350	2.7	100	2.7	82	0	975.5	NA	0.0000	BR	8000	360	0	0	0
2019/03/27 17:15:00	BASE	17.85	353	20.58	352	2.7	100	2.7	82	0	975.5	NA	0.0000	UP BR	9000	390	2300	0	0
2019/03/27 17:16:00	BASE	16.63	354	20.58	352	2.7	100	2.7	82	0	975.6	NA	0.0000	UP BR	9000	2430	2950	0	0
2019/03/27 17:17:00	BASE	16.48	357	20.58	352	2.7	100	2.7	78	0	975.5	NA	0.0000	UP BR	9000	2560	3610	0	0
2019/03/27 17:18:00	BASE	16.02	357	20.58	352	2.7	100	2.7	72	0	975.6	NA	0.0000	UP BR	8000	620	0	0	0
2019/03/27 17:19:00	BASE	16.18	357	20.58	352	2.7	100	2.7	67	0	975.5	NA	0.0000	UP BR	8000	2620	0	0	0
2019/03/27 17:20:00	BASE	16.16	356	20.58	352	2.7	100	2.7	65	0	975.6	NA	0.0000	UP BR	8000	2620	0	0	0
2019/03/27 17:21:00	BASE	15.28	359	20.58	352	2.7	100	2.7	67	0	975.5	NA	0.0000	UP BR	8000	1870	0	0	0
2019/03/27 17:22:00	BASE	16.02	357	20.58	352	2.6	100	2.6	69	0	975.5	NA	0.0000	UP BR	8000	2130	0	0	0
2019/03/27 17:23:00	BASE	16.68	355	20.58	352	2.6	100	2.6	72	0	975.5	NA	0.0000	UP BR	8000	2100	3080	0	0
2019/03/27 17:24:00	BASE	15.89	353	20.58	352	2.6	100	2.6	77	0	975.6	NA	0.0000	BR	8000	3120	0	0	0
2019/03/27 17:25:01	BASE	15.28	351	18.31	3	2.6	100	2.6	81	0	975.6	NA	0.0000	BR	7000	3310	0	0	0
2019/03/27 17:26:01	BASE	16.57	356	18.47	1	2.6	100	2.6	90	0	975.5	NA	0.0000	BR	7000	1900	3310	0	0
2019/03/27 17:27:01	BASE	16.89	357	18.47	1	2.6	100	2.6	101	0	975.5	NA	0.0000	BR	7000	3150	0	0	0
2019/03/27 17:28:01	BASE	16.21	358	18.47	1	2.6	100	2.6	110	0	975.5	NA	0.0000	BR	8000	3870	0	0	0
2019/03/27 17:29:01	BASE	16.18	356	18.47	1	2.6	100	2.6	116	0	975.5	NA	0.0000	BR	8000	3900	0	0	0
2019/03/27 17:30:01	BASE	17.44	354	20.58	354	2.6	100	2.6	113	0	975.5	NA	0.0000	BR	8000	3810	0	0	0
2019/03/27 17:31:01	BASE	17.72	353	20.58	354	2.6	100	2.6	106	0	975.5	NA	0.0000	BR	8000	3180	3710	0	0
2019/03/27 17:32:01	BASE	17.12	353	20.58	354	2.7	100	2.7	103	0	975.5	NA	0.0000	BR	8000	2560	3710	0	0
2019/03/27 17:33:01	BASE	17.21	355	20.58	354	2.7	100	2.7	105	0	975.5	NA	0.0000	BR	7000	3670	0	0	0
2019/03/27 17:34:01	BASE	17.16	355	20.58	354	2.7	100	2.7	107	0	975.5	NA	0.0000	BR	7000	3540	3900	0	0
2019/03/27 17:35:01	BASE	18.03	354	20.58	354	2.7	100	2.7	109	0	975.4	NA	0.0000	BR	8000	4070	0	0	0
2019/03/27 17:36:01	BASE	18.78	356	20.58	354	2.8	100	2.8	115	0	975.5	NA	0.0000	BR	8000	3150	0	0	0
2019/03/27 17:37:01	BASE	18.42	355	20.63	343	2.8	100	2.8	120	0	975.5	NA	0.0000	BR	8000	3410	0	0	0
2019/03/27 17:38:01	BASE	17.21	359	20.63	343	2.8	100	2.8	123	0	975.5	NA	0.0000	BR	7000	3250	4860	0	0
2019/03/27 17:39:01	BASE	16.94	3	20.63	343	2.8	100	2.8	127	0	975.5	NA	0.0000	BR	8000	0	0	0	2300
2019/03/27 17:40:01	BASE	18.11	359	20.63	343	2.8	100	2.8	127	0	975.4	NA	0.0000	BR	8000	3540	4820	0	0
2019/03/27 17:41:01	BASE	18.33	359	20.63	343	2.8	100	2.8	127	0	975.5	NA	0.0000	BR	9000	4460	0	0	0
2019/03/27 17:42:01	BASE	17.23	354	20.63	343	2.8	100	2.8	127	0	975.5	NA	0.0000	BR	8000	3870	0	0	0
2019/03/27 17:43:01	BASE	16.15	355	20.63	343	2.8	100	2.8	126	0	975.6	NA	0.0000	BR	7000	4200	0	0	0
2019/03/27 17:44:01	BASE	16.52	360	20.63	343	2.8	100	2.8	129	0	975.6	NA	0.0000	BR	7000	3640	0	0	0
2019/03/27 17:45:01	BASE	17.54	0	20.63	343	2.7	100	2.7	130	0	975.5	NA	0.0000	BR	7000	3380	0	0	0
2019/03/27 17:46:01	BASE	18.11	1	20.63	343	2.7	100	2.7	127	0	975.5	NA	0.0000	BR	7000	3410	0	0	0
2019/03/27 17:47:01	BASE	17.22	2	20.47	360	2.7	100	2.7	125	0	975.6	NA	0.0000	BR	8000	3610	0	0	0
2019/03/27 17:48:01	BASE	16.31	360	20.47	360	2.7	100	2.7	127	0	975.5	NA	0.0000	BR	8000	3900	0	0	0
2019/03/27 17:49:01	BASE	16.25	357	20.47	360	2.7	100	2.7	131	0	975.6	NA	0.0000	BR	7000	3940	0	0	0
2019/03/27 17:50:01	BASE	15.58	356	20.47	360	2.7	100	2.7	133	0	975.6	NA	0.0000	BR	7000	4070	0	0	0
2019/03/27 17:51:01	BASE	15.96	354	20.47	360	2.7	100	2.7	133	0	975.5	NA	0.0000	BR	8000	4460	0	0	0
2019/03/27 17:52:01	BASE	16.58	351	20.47	360	2.7	100	2.7	134	0	975.6	NA	0.0000	BR	8000	4490	0	0	0
2019/03/27 17:53:01	BASE	16.85	352	20.47	360	2.7	100	2.7	137	0	975.5	NA	0.0000	BR	8000	4400	0	0	0
2019/03/27 17:54:01	BASE	17.04	354	20.47	360	2.7	100	2.7	139	0	975.5	NA	0.0000	BR	8000	4530	0	0	0
2019/03/27 17:55:01	BASE	16.45	356	20.42	360	2.7	100	2.7	141	0	975.5	NA	0.0000	BR	8000	4530	0	0	0
2019/03/27 17:56:01	BASE	16.28	360	19.29	294	2.7	100	2.7	144	0	975.5	NA	0.0000	BR	8000	4330	22540	0	0
2019/03/27 17:57:01	BASE	16.44	2	19.29	294	2.7	100	2.7	144	0	975.5	NA	0.0000	BR	8000	4400	0	0	0
2019/03/27 17:58:01	BASE	17.04	3	19.70	7	2.7	100	2.7	142	0	975.5	NA	0.0000	BR	8000	0	0	0	1410
2019/03/27 17:59:01	BASE	17.51	0	19.70	7	2.7	100	2.7	140	0	975.5	NA	0.0000	BR	8000	0	0	0	1410
2019/03/27 18:00:01	BASE	16.97	358	19.70	7	2.7	100	2.7	138	0	975.5	NA	0.0000	BR	8000	4660	0	0	0
2019/03/27 18:01:01	BASE	16.15	359	19.70	7	2.7	100	2.7	136	0	975.6	NA	0.0000	BR	8000	4950	0	0	0
2019/03/27 18:02:01	BASE	15.88	1	19.70	7	2.7	100	2.7	132	0	975.5	NA	0.0000	BR	7000	4660	0	0	0
2019/03/27 18:03:01	BASE	16.59	358	19.91	348	2.7	100	2.7	127	0	975.5	NA	0.0000	BR	8000	4590	0	0	0
2019/03/27 18:04:01	BASE	15.99	353	19.91	348	2.7	100	2.7	122	0	975.6	NA	0.0000	BR	8000	4660	0	0	0
2019/03/27 18:05:01	BASE	14.98	356	19.91	348	2.7	100	2.7	117	0	975.5	NA	0.0000	BR	8000	4590	0	0	0
2019/03/27 18:06:01	BASE	15.27	357	19.91	348	2.7	100	2.7	114	0	975.6	NA	0.0000	BR	8000	4560	0	0	0
2019/03/27 18:07:01	BASE	16.01	353	19.96	341	2.7	100	2.7	115	0	975.5	NA	0.0000	BR	8000	4560	0	0	0
2019/03/27 18:08:01	BASE	15.82	353	19.96	341	2.7	100	2.7	119	0	975.6	NA	0.0000	BR	8000	4430	0	0	0
2019/03/27 18:09:01	BASE	16.17	354	19.96	341	2.7	100	2.7	123	0	975.5	NA	0.0000	BR	8000	4490	0	0	0
2019/03/27 18:10:01	BASE	17.20	353	19.96	341	2.7	100	2.7	127	0	975.5	NA	0.0000	BR	8000	4460	0	0	0
2019/03/27 18:11:01	BASE	17.06	360	19.96	341	2.7	100	2.7	129	0	975.5	NA	0.0000	BR	9000	4530	0	0	0
2019/03/27 18:12:01	BASE	17.61	357	21.50	354	2.7	100	2.7	127	0	975.5	NA	0.0000	BR	9000	0	0	0	1080
2019/03/27 18:13:01	BASE	17.25	354	21.50	354	2.8	100	2.8	124	0	975.6	NA	0.0000	BR	8000	23130	0	0	0
2019/03/27 18:14:01	BASE	16.17	359	21.50	354	2.8	100	2.8	118	0	975.6	NA	0.0000	BR	8000	0	0	0	4690
2019/03/27 18:15:01	BASE	17.25	354	21.50	354	2.8	100	2.8	113	0	975.5	NA	0.0000	BR	8000	0	0	0	4360
2019/03/27 18:16:01	BASE	18.00	351	21.50	354	2.8	100	2.8	109	0	975.5	NA	0.0000	BR	8000	0	0	0	3900
2019/03/27 18:17:01	BASE	17.32	356	21.50	354	2.8	100	2.8	102	0	975.5	NA	0.0000	BR	8000	0	0	0	4070
2019/03/27 18:18:01	BASE	17.75	353	21.50	354	2.8	100	2.8	95	0	975.5	NA	0.0000	BR	8000	0	0	0	3870
2019/03/27 18:19:01	BASE	18.54	348	21.50	354	2.8	100	2.8	91	0	975.5	NA	0.0000	BR	7000	0	0	0	3310
2019/03/27 18:20:01	BASE	18.05	351	21.50	354	2.8	100	2.8	87	0	975.6	NA	0.0000	BR	7000	0	0	0	3180
2019/03/27 18:21:01	BASE	17.97	356	21.92	349	2.8	100	2.8	83	0	975.5	NA	0.0000	BR	8000	0	0	0	2890
2019/03/27 18:24:15	BASE	M	M	21.92	349	2.8	100	2.8	80	0	975.6	NA	0.0000	BR	8000	0	0	0	2690
2019/03/27 18:24:27	BASE	M	M	21.92	349	2.8	100	2.8	80	0	M	NA	0.0000	BR	M	0	0	0	2690
2019/03/27 18:25:01	BASE	M	M	22.64	2	2.8	100	2.8	80	0	975.5	NA	0.0000	BR	9000	0	0	0	2560
2019/03/27 18:26:01	BASE	19.00	359	22.64	2	2.7	100	2.7	83	0	975.5	NA	0.0000	UP BR	9000	0	0	0	2400
2019/03/27 18:27:01	BASE	18.40	353	22.64	2	2.7	100	2.7	87	0	975.5	NA	0.0000	UP BR	9999	0	0	0	2660
2019/03/27 18:28:01	BASE	18.22	357	22.64	2	2.6	100	2.6	92	0	975.5	NA	0.0000	UP BR	9999	2330	0	0	0
2019/03/27 18:29:00	BASE	18.61	359	22.64	2	2.6	100	2.6	96	0	975.5	NA	0.0000	UP BR	9000	0	0	0	3900
2019/03/27 18:30:00	BASE	18.63	357	22.64	2	2.6	100	2.6	100	0	975.6	NA	0.0000	UP BR	9999	0	0	0	4820
2019/03/27 18:31:00	BASE	17.85	357	22.64	2	2.6	100	2.6	102	0	975.6	NA	0.0000	UP BR	9999	0	0	0	4430
2019/03/27 18:32:00	BASE	17.11	356	22.64	2	2.6	100	2.6	102	0	975.6	NA	0.0000	UP BR	9999	2430	0	0	0
2019/03/27 18:33:00	BASE	17.29	349	22.64	2	2.6	100	2.6	100	0	975.6	NA	0.0000	UP BR	9999	21290	22770	0	0
2019/03/27 18:34:00	BASE	17.26	350	22.64	2	2.6	100	2.6	95	0	975.6	NA	0.0000	UP BR	9999	0	0	0	3250
2019/03/27 18:35:00	BASE	16.53	356	20.99	354	2.6	100	2.6	91	0	975.6	NA	0.0000	UP BR	9999	0	0	0	3120
2019/03/27 18:36:00	BASE	16.02	353	20.68	351	2.6	100	2.6	88	0	975.6	NA	0.0000	UP BR	9999	0	0	0	2760
2019/03/27 18:37:00	BASE	16.74	351	20.58	5	2.6	100	2.6	88	0	975.6	NA	0.0000	UP BR	9000	0	0	0	3180
2019/03/27 18:38:00	BASE	17.23	354	19.91	353	2.6	100	2.6	91	0	975.6	NA	0.0000	UP BR	9000	0	0	0	2920
2019/03/27 18:39:00	BASE	16.44	351	19.91	353	2.5	100	2.5	91	0	975.6	NA	0.0000	UP BR	9000	0	0	0	3050
2019/03/27 18:40:00	BASE	17.18	350	19.91	353	2.5	100	2.5	88	0	975.6	NA	0.0000	UP BR	9000	1510	0	0	0
2019/03/27 18:41:00	BASE	18.18	350	22.02	348	2.5	100	2.5	88	0	975.6	NA	0.0000	UP BR	9000	0	0	0	2820
2019/03/27 18:42:00	BASE	18.09	348	22.02	348	2.6	100	2.6	79	0	975.6	NA	0.0000	UP BR	9000	2130	0	0	0
2019/03/27 18:43:00	BASE	16.32	354	22.02	348	2.6	100	2.6	72	0	975.8	NA	0.0000	UP BR	9000	850	0	0	0
2019/03/27 18:44:00	BASE	15.47	349	22.02	348	2.5	100	2.5	75	0	975.7	NA	0.0000	UP BR	9000	1120	0	0	0
2019/03/27 18:45:00	BASE	16.37	343	22.02	348	2.5	100	2.5	83	0	975.7	NA	0.0000	UP BR	9000	1210	0	0	0
2019/03/27 18:46:00	BASE	16.97	346	22.02	348	2.5	100	2.5	85	0	975.7	NA	0.0000	UP BR	9000	1180	0	0	0
2019/03/27 18:47:00	BASE	16.33	354	22.02	348	2.5	100	2.5	86	0	975.7	NA	0.0000	UP BR	9000	1120	0	0	0
2019/03/27 18:48:00	BASE	15.54	354	22.02	348	2.5	100	2.5	79	0	975.7	NA	0.0000	UP BR	9000	1150	0	0	0
2019/03/27 18:49:00	BASE	16.58	352	22.02	348	2.5	100	2.5	78	0	975.7	NA	0.0000	UP BR	9999	1120	0	0	0
2019/03/27 18:50:00	BASE	17.38	357	22.02	348	2.5	100	2.5	72	0	975.7	NA	0.0000	UP BR	9999	1050	0	0	0
2019/03/27 18:51:00	BASE	17.08	356	21.61	350	2.5	100	2.5	72	0	975.8	NA	0.0000	UP BR	9999	790	0	0	0
2019/03/27 18:52:00	BASE	16.15	350	19.65	360	2.4	100	2.4	71	0	975.8	NA	0.0000	UP BR	9999	1210	1900	0	0
2019/03/27 18:53:00	BASE	16.44	349	19.65	360	2.4	100	2.4	67	0	975.8	NA	0.0000	UP BR	9999	1120	0	0	0
2019/03/27 18:54:00	BASE	17.21	351	19.65	360	2.4	100	2.4	68	0	975.8	NA	0.0000	UP BR	9999	720	0	0	0
2019/03/27 18:55:00	BASE	17.97	353	20.58	1	2.4	100	2.4	74	0	975.7	NA	0.0000	UP BR	9999	750	0	0	0
2019/03/27 18:56:00	BASE	18.66	350	20.58	1	2.4	100	2.4	73	0	975.7	NA	0.0000	UP BR	9000	820	0	0	0
2019/03/27 18:57:00	BASE	18.95	351	21.45	346	2.4	100	2.4	73	0	975.7	NA	0.0000	UP BR	9999	750	0	0	0
2019/03/27 18:58:00	BASE	18.85	350	21.45	346	2.4	100	2.4	77	0	975.7	NA	0.0000	UP BR	9999	790	0	0	0
2019/03/27 18:59:00	BASE	18.74	349	21.45	346	2.4	100	2.4	79	0	975.7	NA	0.0000	UP BR	9999	0	0	0	2690
2019/03/27 19:00:00	BASE	18.13	348	21.45	346	2.4	100	2.4	81	0	975.8	NA	0.0000	UP BR	9999	0	0	0	2330
2019/03/27 19:01:00	BASE	17.82	345	21.45	346	2.3	100	2.3	77	0	975.8	NA	0.0000	UP BR	9999	0	0	0	2820
2019/03/27 19:02:00	BASE	17.18	349	21.45	346	2.3	100	2.3	73	0	975.8	NA	0.0000	UP BR	9999	790	0	0	0
2019/03/27 19:03:00	BASE	16.89	353	21.45	346	2.3	100	2.3	71	0	975.8	NA	0.0000	UP	9999	1050	0	0	0
2019/03/27 19:04:00	BASE	16.54	352	21.45	346	2.3	100	2.3	70	0	975.8	NA	0.0000	UP	9999	720	0	0	0
2019/03/27 19:05:00	BASE	14.95	350	21.45	346	2.3	100	2.3	72	0	975.8	NA	0.0000	UP	9999	820	0	0	0
2019/03/27 19:06:00	BASE	16.01	350	21.45	346	2.3	100	2.3	76	0	975.7	NA	0.0000	UP	9999	0	0	0	2300
2019/03/27 19:07:00	BASE	17.09	351	20.99	360	2.2	100	2.2	76	0	975.8	NA	0.0000	UP	9999	820	0	0	0
2019/03/27 19:08:00	BASE	15.92	348	20.99	360	2.2	100	2.2	73	0	975.8	NA	0.0000	UP	9999	0	0	0	2330
2019/03/27 19:09:00	BASE	15.41	350	20.11	355	2.2	100	2.2	73	0	975.8	NA	0.0000	UP	9999	0	0	0	2330
2019/03/27 19:10:00	BASE	15.90	351	20.11	355	2.2	100	2.2	75	0	975.7	NA	0.0000	UP	9999	0	0	0	2760
2019/03/27 19:11:00	BASE	15.74	353	20.11	355	2.2	100	2.2	72	0	975.8	NA	0.0000	UP	9999	0	0	0	2820
2019/03/27 19:12:00	BASE	15.89	356	20.11	355	2.2	100	2.2	66	0	975.7	NA	0.0000	UP	9999	0	0	0	3120
2019/03/27 19:13:00	BASE	16.24	351	19.60	351	2.2	100	2.2	57	0	975.7	NA	0.2540	UP	9999	0	0	0	2620
2019/03/27 19:14:00	BASE	16.22	354	19.60	351	2.2	100	2.2	45	0	975.7	NA	0.0000	UP	9999	690	0	0	0
2019/03/27 19:15:00	BASE	15.80	355	19.60	351	2.2	100	2.2	41	0	975.8	NA	0.0000	UP	9999	520	0	0	0
2019/03/27 19:16:00	BASE	15.68	354	19.09	347	2.1	100	2.1	44	0	975.7	NA	0.0000	UP	9999	620	0	0	0
2019/03/27 19:17:00	BASE	17.22	353	20.58	340	2.1	100	2.1	42	0	975.6	NA	0.0000	UP	9999	690	0	0	0
2019/03/27 19:18:00	BASE	17.83	351	20.58	340	2.1	100	2.1	45	0	975.6	NA	0.0000	UP	9999	590	0	0	0
2019/03/27 19:19:00	BASE	17.13	351	20.58	340	2.1	100	2.1	50	0	975.6	NA	0.0000	UP	9999	0	0	0	2660
2019/03/27 19:20:00	BASE	16.02	349	20.58	340	2.1	100	2.1	47	0	975.7	NA	0.0000	UP	9999	750	0	0	0
2019/03/27 19:21:00	BASE	14.56	350	20.58	340	2.1	100	2.1	41	0	975.6	NA	0.0000	UP	9999	0	0	0	3080
2019/03/27 19:22:00	BASE	14.60	347	20.58	340	2.1	100	2.1	39	0	975.6	NA	0.0000	UP	9999	620	0	0	0
2019/03/27 19:23:00	BASE	15.89	351	20.58	340	2.1	100	2.1	39	0	975.6	NA	0.0000	UP	9999	590	0	0	0
2019/03/27 19:24:00	BASE	18.00	356	20.58	340	2.1	100	2.1	36	0	975.5	NA	0.0000	UP	9999	660	0	0	0
2019/03/27 19:25:00	BASE	17.69	355	20.58	340	2.1	100	2.1	34	0	975.6	NA	0.0000	UP	9999	690	0	0	0
2019/03/27 19:26:00	BASE	15.54	358	20.58	340	2.1	100	2.1	36	0	975.6	NA	0.0000	UP	9999	690	0	0	0
2019/03/27 19:27:00	BASE	15.96	359	20.37	354	2.1	100	2.1	37	0	975.6	NA	0.0000	UP	9999	690	0	0	0
2019/03/27 19:28:00	BASE	16.34	358	20.37	354	2.1	100	2.1	38	0	975.5	NA	0.0000	UP	9999	690	0	0	0
2019/03/27 19:29:00	BASE	15.84	357	20.37	354	2.1	100	2.1	37	0	975.5	NA	0.0000	UP	9999	690	0	0	0
2019/03/27 19:30:00	BASE	16.55	357	20.37	354	2.1	100	2.1	38	0	975.5	NA	0.0000	UP	9999	0	0	0	2760
2019/03/27 19:31:00	BASE	16.75	356	20.37	354	2.1	100	2.1	38	0	975.5	NA	0.0000	UP	9999	0	0	0	2820
2019/03/27 19:32:00	BASE	16.35	358	20.37	354	2.1	100	2.1	41	0	975.5	NA	0.0000	UP	9999	0	0	0	2690
2019/03/27 19:33:00	BASE	17.13	356	20.37	354	2.1	100	2.1	44	0	975.4	NA	0.0000	UP	9999	0	0	0	3050
2019/03/27 19:34:00	BASE	17.89	354	20.17	1	2.1	100	2.1	44	0	975.4	NA	0.0000	UP	9999	0	0	0	4660
2019/03/27 19:35:00	BASE	18.23	359	20.17	1	2.1	100	2.1	43	0	975.4	NA	0.0000	UP	9999	0	0	0	5150
2019/03/27 19:36:00	BASE	17.95	1	20.17	173	2.1	100	2.1	39	0	975.4	NA	0.0000	UP	9999	0	0	0	4590
2019/03/27 19:37:00	BASE	17.59	2	20.32	360	2.1	100	2.1	37	0	975.4	NA	0.0000	UP	9999	0	0	0	3710
2019/03/27 19:38:01	BASE	18.01	1	20.32	360	2.1	100	2.1	35	0	975.4	NA	0.0000	UP	9999	0	0	0	3450
2019/03/27 19:39:00	BASE	17.84	360	20.32	360	2.1	100	2.1	35	0	975.4	NA	0.0000	UP	9999	0	0	0	3280
2019/03/27 19:40:00	BASE	17.78	0	20.32	360	2.1	100	2.1	35	0	975.4	NA	0.0000	UP	9999	0	0	0	2990
2019/03/27 19:41:00	BASE	17.80	360	20.94	360	2.2	100	2.2	36	0	975.4	NA	0.0000	UP	9999	0	0	0	2890
2019/03/27 19:42:00	BASE	17.35	355	20.94	360	2.2	100	2.2	37	0	975.4	NA	0.0000		9999	0	0	0	3480
2019/03/27 19:43:00	BASE	17.44	355	20.94	360	2.2	100	2.2	38	0	975.3	NA	0.0000		9999	0	0	0	4200
2019/03/27 19:44:00	BASE	18.15	5	21.09	3	2.2	100	2.2	39	0	975.3	NA	0.0000		9999	0	0	0	3870
2019/03/27 19:45:00	BASE	18.41	8	21.09	3	2.2	100	2.2	40	0	975.3	NA	0.0000		9999	0	0	0	4230
2019/03/27 19:46:00	BASE	17.75	3	21.09	3	2.2	100	2.2	40	0	975.3	NA	0.0000		9999	0	0	0	4360
2019/03/27 19:47:00	BASE	17.91	5	21.09	3	2.2	100	2.2	41	0	975.2	NA	0.0000		9999	0	0	0	3810
2019/03/27 19:48:00	BASE	18.83	6	21.09	3	2.2	100	2.2	40	0	975.2	NA	0.0000		9999	0	0	0	4100
2019/03/27 19:49:00	BASE	19.58	7	21.40	4	2.3	100	2.3	39	0	975.1	NA	0.0000		9999	0	0	0	3940
2019/03/27 19:50:00	BASE	20.14	8	21.61	9	2.3	100	2.3	40	0	975.1	NA	0.0000		9999	0	0	0	4170
2019/03/27 19:51:00	BASE	20.50	8	22.58	6	2.3	100	2.3	36	0	975.1	NA	0.0000		9999	0	0	0	4170
2019/03/27 19:52:00	BASE	21.08	9	22.58	6	2.4	100	2.4	32	0	975.0	NA	0.0000	UP	9000	0	0	0	4100
2019/03/27 19:53:00	BASE	21.14	9	23.10	7	2.4	100	2.4	30	0	975.0	NA	0.0000	UP	9999	0	0	0	3450
2019/03/27 19:54:00	BASE	20.83	11	23.10	7	2.4	100	2.4	29	0	975.0	NA	0.0000	UP	9999	0	0	0	3540
2019/03/27 19:55:00	BASE	21.59	12	24.80	7	2.4	100	2.4	27	0	975.0	NA	0.0000	UP	9000	0	0	0	3410
2019/03/27 19:56:00	BASE	22.29	10	24.80	7	2.4	100	2.4	26	0	975.1	NA	0.0000	UP	9000	0	0	0	2820
2019/03/27 19:57:00	BASE	22.15	11	24.80	7	2.4	100	2.4	26	0	975.0	NA	0.0000	UP	9999	750	0	0	0
2019/03/27 19:58:00	BASE	21.74	12	24.80	7	2.4	100	2.4	25	0	975.1	NA	0.0000	UP	9999	0	0	0	2360
2019/03/27 19:59:00	BASE	21.02	12	24.80	7	2.4	100	2.4	27	0	975.1	NA	0.0000	UP	9999	750	0	0	0
2019/03/27 20:00:00	BASE	21.21	14	24.80	7	2.3	100	2.3	32	0	975.1	NA	0.0000	UP	9999	690	0	0	0
2019/03/27 20:01:00	BASE	21.31	14	24.80	7	2.3	100	2.3	33	0	975.1	NA	0.0000	UP BR	7000	750	0	0	0
2019/03/27 20:02:00	BASE	20.91	12	24.80	7	2.4	100	2.4	32	0	975.1	NA	0.0000	-SN BR	7000	750	0	0	0
2019/03/27 20:03:00	BASE	20.33	12	24.80	7	2.3	100	2.3	28	0	975.1	NA	0.0000	-SN BR	9000	0	0	0	2790
2019/03/27 20:04:00	BASE	20.32	14	24.80	7	2.3	100	2.3	27	0	975.0	NA	0.2540	-SN BR	7000	790	0	0	0
2019/03/27 20:05:00	BASE	20.56	16	24.28	8	2.3	100	2.3	26	0	975.0	NA	0.0000	-SN BR	8000	750	0	0	0
2019/03/27 20:06:00	BASE	19.30	18	24.28	8	2.3	100	2.3	26	0	975.1	NA	0.0000	-SN BR	8000	0	0	0	2920
2019/03/27 20:07:00	BASE	18.43	20	23.61	17	2.3	100	2.3	30	0	975.1	NA	0.0000	-SN BR	7000	0	0	0	2690
2019/03/27 20:08:00	BASE	19.09	23	23.61	17	2.3	100	2.3	35	0	975.0	NA	0.0000	-SN BR	8000	720	0	0	0
2019/03/27 20:09:00	BASE	19.27	25	23.61	17	2.3	100	2.3	33	0	975.0	NA	0.0000	-SN BR	9999	2820	0	0	0
2019/03/27 20:10:00	BASE	17.88	24	22.02	9	2.3	100	2.3	31	0	975.0	NA	0.0000	-SN BR	9999	0	0	0	5510
2019/03/27 20:11:00	BASE	17.37	22	22.02	9	2.3	100	2.3	31	0	975.0	NA	0.0000	-SN BR	9999	0	0	0	5410
2019/03/27 20:12:00	BASE	17.11	21	21.86	11	2.3	100	2.3	31	0	975.0	NA	0.0000	-SN BR	9999	4230	21980	0	0
2019/03/27 20:13:00	BASE	15.68	22	21.86	11	2.4	100	2.4	32	0	974.9	NA	0.0000	-SN BR	9999	4040	0	0	0
2019/03/27 20:14:00	BASE	16.16	21	21.40	15	2.4	100	2.4	33	0	974.9	NA	0.0000	-SN	9999	4040	0	0	0
2019/03/27 20:15:00	BASE	17.58	19	20.94	17	2.5	100	2.5	34	0	974.8	NA	0.0000	-SN	9999	4070	0	0	0
2019/03/27 20:16:00	BASE	18.58	19	21.40	25	2.5	100	2.5	34	0	974.8	NA	0.0000	-SN	9999	3810	0	0	0
2019/03/27 20:17:00	BASE	18.92	17	21.40	25	2.6	100	2.6	35	0	974.8	NA	0.0000		9999	3510	0	0	0
2019/03/27 20:18:01	BASE	18.53	13	21.40	25	2.6	100	2.6	38	0	974.8	NA	0.0000		9999	3640	0	0	0
2019/03/27 20:19:00	BASE	18.12	14	21.40	25	2.6	100	2.6	40	0	974.7	NA	0.0000		9999	3710	0	0	0
2019/03/27 20:20:00	BASE	18.34	14	21.45	5	2.6	100	2.6	41	0	974.7	NA	0.0000		9999	3580	4490	0	0
2019/03/27 20:21:00	BASE	19.09	14	21.45	5	2.6	100	2.6	42	0	974.7	NA	0.0000		9999	4040	0	0	0
2019/03/27 20:22:01	BASE	18.92	13	22.69	11	2.6	100	2.6	42	0	974.6	NA	0.0000		9999	3940	0	0	0
2019/03/27 20:23:00	BASE	19.83	12	22.74	11	2.6	100	2.6	40	0	974.6	NA	0.0000		9999	2850	3940	0	0
2019/03/27 20:24:00	BASE	20.30	13	22.74	11	2.6	100	2.6	40	0	974.6	NA	0.0000		9999	0	0	0	3310
2019/03/27 20:25:00	BASE	20.52	13	24.08	20	2.7	100	2.7	41	0	974.6	NA	0.0000		9999	620	2690	0	0
2019/03/27 20:26:00	BASE	21.46	14	24.08	20	2.7	100	2.7	37	0	974.6	NA	0.0000	-SN	9000	950	0	0	0
2019/03/27 20:27:00	BASE	22.70	13	25.98	11	2.6	100	2.6	36	0	974.5	NA	0.0000	-SN	8000	390	3280	0	0
2019/03/27 20:28:00	BASE	22.92	11	25.98	11	2.6	100	2.6	39	0	974.5	NA	0.0000	-SN	6000	360	0	0	0
2019/03/27 20:29:00	BASE	22.01	9	25.98	11	2.6	100	2.6	45	0	974.5	NA	0.0000	-SN	6000	0	0	0	3540
2019/03/27 20:30:00	BASE	21.48	9	25.98	11	2.5	100	2.5	42	0	974.5	NA	0.0000	-SN BR	9000	0	0	0	4430
2019/03/27 20:31:00	BASE	22.08	10	25.98	11	2.5	100	2.5	35	0	974.4	NA	0.0000	-SN BR	9999	980	0	0	0
2019/03/27 20:32:00	BASE	22.66	10	25.98	11	2.5	100	2.5	35	0	974.5	NA	0.0000	-SN BR	9999	390	0	0	0
2019/03/27 20:33:00	BASE	21.82	10	25.98	11	2.5	100	2.5	31	0	974.5	NA	0.0000	-SN BR	9999	720	0	0	0
2019/03/27 20:34:00	BASE	21.80	12	25.98	11	2.5	100	2.5	34	0	974.4	NA	0.0000	-SN BR	9999	360	0	0	0
2019/03/27 20:35:00	BASE	21.61	13	25.98	11	2.6	100	2.6	38	0	974.4	NA	0.0000	-SN BR	7000	0	0	0	4170
2019/03/27 20:36:00	BASE	21.94	13	27.21	8	2.6	100	2.6	39	0	974.3	NA	0.0000	-SN BR	9999	4560	0	0	0
2019/03/27 20:37:00	BASE	21.84	13	27.21	8	2.6	100	2.6	39	0	974.4	NA	0.0000	-SN BR	9999	4950	0	0	0
2019/03/27 20:38:01	BASE	22.03	14	27.21	8	2.6	100	2.6	39	0	974.3	NA	0.0000	-SN	9999	4360	0	0	0
2019/03/27 20:39:00	BASE	22.56	15	27.21	8	2.7	100	2.7	38	0	974.3	NA	0.0000	-SN	9999	0	0	0	5250
2019/03/27 20:40:00	BASE	23.22	14	27.21	8	2.7	100	2.7	36	0	974.3	NA	0.0000	-SN	9999	0	0	0	5020
2019/03/27 20:41:00	BASE	23.62	14	27.21	8	2.7	100	2.7	34	0	974.3	NA	0.0000	-SN	9999	0	0	0	4860
2019/03/27 20:42:00	BASE	22.78	13	27.21	8	2.7	100	2.7	34	0	974.4	NA	0.0000	-SN	9999	0	0	0	4820
2019/03/27 20:43:00	BASE	22.81	12	27.21	8	2.7	100	2.7	30	0	974.3	NA	0.0000	-SN	9999	4590	0	0	0
2019/03/27 20:44:00	BASE	22.56	11	27.21	8	2.7	100	2.7	27	0	974.3	NA	0.0000	-SN	9999	4690	0	0	0
2019/03/27 20:45:00	BASE	21.98	10	27.21	8	2.7	100	2.7	25	0	974.2	NA	0.0000	-SN	9999	4760	0	0	0
2019/03/27 20:46:00	BASE	22.00	8	25.88	6	2.7	100	2.7	23	0	974.3	NA	0.0000	-SN	9999	0	0	0	5150
2019/03/27 20:47:00	BASE	22.16	7	25.88	6	2.7	100	2.7	20	0	974.3	NA	0.0000	-SN	9999	0	0	0	5540
2019/03/27 20:48:00	BASE	21.80	7	25.88	6	2.7	100	2.7	18	0	974.3	NA	0.0000	-SN	9999	0	0	0	4000
2019/03/27 20:49:00	BASE	21.78	7	25.88	6	2.7	100	2.7	16	0	974.3	NA	0.0000	-SN	9999	0	0	0	4070
2019/03/27 20:50:00	BASE	21.98	6	25.88	6	2.7	100	2.7	16	0	974.3	NA	0.2540	-SN	9999	390	0	0	0
2019/03/27 20:51:00	BASE	21.60	5	24.64	5	2.7	100	2.7	18	0	974.3	NA	0.0000	-SN	8000	390	0	0	0
2019/03/27 20:52:00	BASE	21.43	6	24.64	5	2.7	100	2.7	20	0	974.2	NA	0.0000	-SN	9000	360	4630	0	0
2019/03/27 20:53:00	BASE	22.24	5	24.64	5	2.7	100	2.7	21	0	974.2	NA	0.0000	-SN	9999	3900	0	0	0
2019/03/27 20:54:00	BASE	22.54	5	24.64	5	2.6	100	2.6	21	0	974.1	NA	0.0000	-SN	9000	3540	0	0	0
2019/03/27 20:55:00	BASE	22.46	6	24.64	5	2.6	100	2.6	21	0	974.1	NA	0.0000	-SN	9999	3410	0	0	0
2019/03/27 20:56:00	BASE	23.02	6	25.21	6	2.6	100	2.6	21	0	974.1	NA	0.0000	-SN	9999	3380	0	0	0
2019/03/27 20:57:00	BASE	23.74	4	28.35	10	2.6	100	2.6	21	0	974.1	NA	0.0000	-SN	9999	3310	0	0	0
2019/03/27 20:58:00	BASE	23.38	359	28.35	10	2.6	100	2.6	19	0	974.2	NA	0.0000	-SN	9999	3310	0	0	0
2019/03/27 20:59:00	BASE	23.06	0	28.81	5	2.7	100	2.7	17	0	974.1	NA	0.0000	-SN	9999	1740	3220	0	0
2019/03/27 21:00:01	BASE	22.30	2	28.81	5	2.7	100	2.7	16	0	974.2	NA	0.0000	-SN	9999	1250	3250	0	0
2019/03/27 21:01:00	BASE	21.51	358	28.81	5	2.8	100	2.8	14	0	974.2	NA	0.0000	-SN	9999	1210	0	0	0
2019/03/27 21:02:00	BASE	20.48	360	28.81	5	2.8	100	2.8	13	0	974.3	NA	0.0000	-SN	9999	1120	0	0	0
2019/03/27 21:03:00	BASE	22.03	3	28.81	5	2.8	100	2.8	14	0	974.0	NA	0.0000		9999	890	0	0	0
2019/03/27 21:04:00	BASE	25.92	4	28.81	5	2.8	100	2.8	16	0	973.9	NA	0.0000		9999	0	0	0	3480
2019/03/27 21:05:01	BASE	26.43	3	28.86	354	2.8	100	2.8	16	0	973.9	NA	0.0000		9999	3740	0	0	0
2019/03/27 21:06:00	BASE	26.99	3	32.00	360	2.8	100	2.8	16	0	973.8	NA	0.0000		9000	3810	0	0	0
2019/03/27 21:07:00	BASE	27.22	5	32.00	360	2.8	100	2.8	15	0	973.9	NA	0.0000		9000	0	0	0	720
2019/03/27 21:08:00	BASE	25.83	5	32.00	360	2.8	100	2.8	15	0	973.9	NA	0.0000		9000	0	0	0	890
2019/03/27 21:09:00	BASE	26.50	5	32.00	360	2.7	100	2.7	14	0	973.8	NA	0.0000		9000	0	0	0	3740
2019/03/27 21:10:00	BASE	27.95	4	32.00	360	2.7	100	2.7	12	0	973.9	NA	0.0000		9000	0	0	0	3450
2019/03/27 21:11:00	BASE	28.07	3	32.00	360	2.6	100	2.6	10	0	973.9	NA	0.0000		9000	0	0	0	3380
2019/03/27 21:12:00	BASE	27.57	3	32.00	360	2.6	100	2.6	8	0	974.0	NA	0.0000	BR	8000	0	0	0	2950
2019/03/27 21:13:00	BASE	27.54	4	32.00	360	2.6	100	2.6	8	0	973.9	NA	0.0000	-SN BR	6000	430	0	0	0
2019/03/27 21:14:00	BASE	27.92	4	32.00	360	2.6	100	2.6	8	0	973.9	NA	0.0000	-SN BR	6000	390	0	0	0
2019/03/27 21:15:00	BASE	27.62	4	32.00	360	2.5	100	2.5	8	0	973.9	NA	0.0000	-SN BR	4300	0	0	0	3180
2019/03/27 21:16:00	BASE	26.92	6	31.48	5	2.5	100	2.5	9	0	973.9	NA	0.0000	-SN BR	3400	0	0	0	3350
2019/03/27 21:17:00	BASE	26.11	6	31.48	5	2.5	100	2.5	10	0	973.9	NA	0.0000	-SN BR	5000	0	0	0	3310
2019/03/27 21:18:00	BASE	25.67	5	31.48	5	2.4	100	2.4	10	0	974.0	NA	0.0000	-SN BR	7000	920	0	0	0
2019/03/27 21:19:00	BASE	25.57	6	30.87	2	2.4	100	2.4	9	0	974.0	NA	0.0000	-SN BR	9999	0	0	0	4230
2019/03/27 21:20:00	BASE	26.19	7	30.04	3	2.4	100	2.4	9	0	973.9	NA	0.0000	-SN BR	9000	920	0	0	0
2019/03/27 21:21:00	BASE	27.08	8	30.46	3	2.4	100	2.4	7	0	974.0	NA	0.0000	-SN BR	9000	1250	0	0	0
2019/03/27 21:22:00	BASE	26.65	6	30.46	3	2.4	100	2.4	5	0	974.1	NA	0.0000	-SN BR	9999	820	0	0	0
2019/03/27 21:23:00	BASE	25.04	5	30.46	3	2.5	100	2.5	5	0	974.2	NA	0.0000	-SN BR	9999	980	0	0	0
2019/03/27 21:24:00	BASE	22.03	5	30.46	3	2.5	100	2.5	5	0	974.3	NA	0.0000	-SN BR	9999	750	0	0	0
2019/03/27 21:25:00	BASE	18.74	2	30.46	3	2.5	100	2.5	4	0	974.4	NA	0.0000	-SN BR	9999	660	0	0	0
2019/03/27 21:26:01	BASE	18.62	360	30.46	3	2.4	100	2.4	4	0	974.3	NA	0.0000	-SN BR	9999	720	0	0	0
2019/03/27 21:27:01	BASE	20.93	2	30.46	3	2.4	100	2.4	4	0	974.2	NA	0.0000	-SN	9999	690	0	0	0
2019/03/27 21:28:00	BASE	22.54	3	30.46	3	2.4	100	2.4	3	0	974.2	NA	0.0000	-SN	9999	0	0	0	2530
2019/03/27 21:29:00	BASE	25.28	4	30.46	3	2.4	100	2.4	3	0	974.0	NA	0.0000	-SN	7000	660	0	0	0
2019/03/27 21:30:00	BASE	27.51	6	30.46	3	2.4	100	2.4	3	0	973.9	NA	0.0000	-SN BR	5000	820	0	0	0
2019/03/27 21:31:00	BASE	26.76	8	29.37	6	2.4	100	2.4	3	0	974.0	NA	0.0000	-SN BR	4700	820	0	0	0
2019/03/27 21:32:00	BASE	26.76	7	29.37	6	2.3	100	2.3	2	0	974.0	NA	0.2540	-SN BR	3100	360	0	0	0
2019/03/27 21:33:00	BASE	27.23	7	29.58	10	2.3	100	2.3	2	0	974.0	NA	0.0000	-SN BR	2100	330	0	0	0
2019/03/27 21:34:00	BASE	26.07	8	29.58	10	2.2	100	2.2	2	0	974.1	NA	0.0000	-SN BR	1600	260	0	0	0
2019/03/27 21:35:00	BASE	25.45	8	29.58	10	2.1	100	2.1	2	0	974.1	NA	0.2540	-SN BR	1500	330	0	0	0
2019/03/27 21:36:00	BASE	25.33	8	29.58	10	2.0	100	2.0	2	0	974.2	NA	0.0000	-SN BR	2300	330	0	0	0
2019/03/27 21:37:00	BASE	24.01	8	29.58	10	2.0	100	2.0	2	0	974.3	NA	0.2540	-SN BR	2200	300	0	0	0
2019/03/27 21:38:01	BASE	23.20	9	29.58	10	1.9	100	1.9	2	0	974.3	NA	0.0000	-SN BR	2300	300	0	0	0
2019/03/27 21:39:01	BASE	23.10	10	29.58	10	1.8	100	1.8	2	0	974.3	NA	0.2540	-SN BR	1500	330	0	0	0
2019/03/27 21:40:01	BASE	24.29	12	29.58	10	1.7	100	1.7	2	0	974.2	NA	0.0000	-SN BR	1800	360	0	0	0
2019/03/27 21:41:00	BASE	25.71	13	29.58	10	1.7	100	1.7	2	0	974.2	NA	0.0000	-SN BR	1700	390	0	0	0
2019/03/27 21:42:00	BASE	25.27	14	30.15	15	1.7	100	1.7	2	0	974.2	NA	0.0000	-SN BR	1800	390	0	0	0
2019/03/27 21:43:00	BASE	24.23	12	30.15	15	1.7	100	1.7	2	0	974.2	NA	0.2540	-SN BR	2100	360	0	0	0
2019/03/27 21:44:01	BASE	25.02	10	30.15	15	1.7	100	1.7	2	0	974.2	NA	0.0000	-SN BR	1900	330	0	0	0
2019/03/27 21:45:01	BASE	24.50	7	30.15	15	1.7	100	1.7	2	0	974.4	NA	0.0000	-SN BR	2600	390	0	0	0
2019/03/27 21:46:00	BASE	23.51	6	30.15	15	1.7	100	1.7	2	0	974.3	NA	0.0000	-SN BR	3300	520	0	0	0
2019/03/27 21:47:00	BASE	25.77	8	30.15	15	1.8	100	1.8	2	0	974.2	NA	0.0000	-SN BR	3300	560	0	0	0
2019/03/27 21:48:00	BASE	25.72	7	30.15	15	1.8	100	1.8	2	0	974.4	NA	0.0000	-SN BR	5000	390	0	0	0
2019/03/27 21:49:00	BASE	24.00	2	30.15	15	1.8	100	1.8	1	0	974.3	NA	0.0000	-SN BR	4500	520	0	0	0
2019/03/27 21:50:00	BASE	23.82	0	30.15	15	1.8	100	1.8	1	0	974.3	NA	0.2540	-SN BR	3700	360	0	0	0
2019/03/27 21:51:00	BASE	24.60	3	30.15	15	1.8	100	1.8	1	0	974.3	NA	0.0000	-SN BR	4100	390	0	0	0
2019/03/27 21:52:00	BASE	24.00	3	29.53	8	1.8	100	1.8	1	0	974.4	NA	0.0000	-SN BR	3900	360	0	0	0
2019/03/27 21:53:00	BASE	22.95	359	29.53	8	1.8	100	1.8	1	0	974.3	NA	0.0000	-SN BR	6000	390	0	0	0
2019/03/27 21:54:00	BASE	21.99	357	29.53	8	1.8	100	1.8	1	0	974.5	NA	0.0000	-SN BR	7000	390	0	0	0
2019/03/27 21:55:00	BASE	21.11	360	29.53	8	1.7	100	1.7	1	0	974.4	NA	0.0000	-SN BR	5000	430	0	0	0
2019/03/27 21:56:00	BASE	22.78	1	29.53	8	1.7	100	1.7	1	0	974.3	NA	0.0000	-SN BR	6000	330	0	0	0
2019/03/27 21:57:00	BASE	23.43	358	27.68	360	1.7	100	1.7	1	0	974.3	NA	0.0000	-SN BR	8000	360	0	0	0
2019/03/27 21:58:01	BASE	24.03	2	27.68	360	1.7	100	1.7	1	0	974.2	NA	0.2540	-SN BR	7000	360	0	0	0
2019/03/27 21:59:00	BASE	24.37	2	27.68	360	1.6	100	1.6	1	0	974.3	NA	0.0000	-SN BR	7000	330	0	0	0
2019/03/27 22:00:00	BASE	23.95	355	27.68	360	1.6	100	1.6	1	0	974.3	NA	0.0000	-SN BR	9999	360	0	0	0
2019/03/27 22:01:00	BASE	25.18	0	27.47	7	1.6	100	1.6	1	0	974.2	NA	0.0000	-SN BR	5000	360	0	0	0
2019/03/27 22:04:19	BASE	M	M	M	M	1.5	100	1.5	M	M	M	NA	0.0000	BR	M	M	M	M	M
2019/03/27 22:05:00	BASE	M	M	M	M	1.5	100	1.5	1	0	974.2	NA	0.0000	BR	5000	390	0	0	0
2019/03/27 22:06:00	BASE	25.26	7	M	M	1.5	100	1.5	1	0	974.1	NA	0.0000	-SN BR	5000	390	0	0	0
2019/03/27 22:07:00	BASE	25.59	7	M	M	1.5	100	1.5	1	0	974.1	NA	0.2540	-SN BR	4400	390	0	0	0
2019/03/27 22:08:00	BASE	24.98	8	M	M	1.5	100	1.5	1	0	974.2	NA	0.0000	-SN BR	4800	390	0	0	0
2019/03/27 22:09:00	BASE	24.55	8	M	M	1.5	100	1.5	1	0	974.2	NA	0.0000	-SN BR	4900	460	0	0	0
2019/03/27 22:10:01	BASE	23.54	7	M	M	1.5	100	1.5	1	0	974.3	NA	0.0000	-SN BR	9999	430	0	0	0
2019/03/27 22:11:00	BASE	23.11	2	M	M	1.6	100	1.6	1	0	974.3	NA	0.0000	-SN BR	9999	0	0	0	2100
2019/03/27 22:12:00	BASE	23.89	359	27.93	11	1.6	100	1.6	1	0	974.3	NA	0.0000	-SN BR	9999	0	0	0	2200
2019/03/27 22:13:00	BASE	23.16	359	27.93	11	1.6	100	1.6	1	0	974.3	NA	0.0000	-SN BR	8000	0	0	0	2330
2019/03/27 22:14:00	BASE	22.37	355	27.93	11	1.6	100	1.6	1	0	974.4	NA	0.0000	-SN BR	9999	430	0	0	0
2019/03/27 22:15:00	BASE	22.10	356	27.93	11	1.6	100	1.6	1	0	974.4	NA	0.0000	-SN BR	9000	460	0	0	0
2019/03/27 22:16:01	BASE	21.82	358	27.93	11	1.6	100	1.6	1	0	974.4	NA	0.0000	-SN BR	9999	430	0	0	0
2019/03/27 22:17:00	BASE	20.69	358	27.11	5	1.6	100	1.6	1	0	974.4	NA	0.0000	-SN BR	9999	390	1410	0	0
2019/03/27 22:18:00	BASE	20.83	358	27.11	5	1.6	100	1.6	0	0	974.4	NA	0.0000	-SN BR	9999	360	1480	0	0
2019/03/27 22:19:01	BASE	21.66	353	27.11	5	1.5	100	1.5	0	0	974.5	NA	0.0000	-SN	9999	330	0	0	0
2019/03/27 22:20:00	BASE	21.43	355	27.11	5	1.5	100	1.5	0	0	974.5	NA	0.0000	-SN	9999	360	0	0	0
2019/03/27 22:21:00	BASE	21.32	356	27.11	5	1.5	100	1.5	0	0	974.5	NA	0.0000	-SN	9999	360	0	0	0
2019/03/27 22:22:00	BASE	21.27	355	26.34	9	1.5	100	1.5	0	0	974.5	NA	0.0000	-SN	9999	360	0	0	0
2019/03/27 22:23:00	BASE	20.59	354	26.34	9	1.5	100	1.5	0	0	974.6	NA	0.0000	-SN	9999	360	1510	0	0
2019/03/27 22:24:00	BASE	20.29	353	24.90	5	1.5	100	1.5	0	0	974.5	NA	0.0000	-SN	9999	330	1510	0	0
2019/03/27 22:25:00	BASE	19.75	355	24.80	355	1.5	100	1.5	0	0	974.6	NA	0.0000	-SN	9999	360	0	0	0
2019/03/27 22:26:00	BASE	20.32	356	24.74	2	1.5	100	1.5	0	0	974.6	NA	0.2540	-SN	9999	390	0	0	0
2019/03/27 22:27:00	BASE	21.05	355	24.74	2	1.5	100	1.5	0	0	974.6	NA	0.0000	-SN	9999	330	0	0	0
2019/03/27 22:28:00	BASE	19.81	348	24.74	2	1.5	100	1.5	0	0	974.7	NA	0.0000	-SN	9999	360	1570	0	0
2019/03/27 22:29:00	BASE	19.95	348	24.74	2	1.4	100	1.4	0	0	974.6	NA	0.0000	-SN	9999	330	1640	0	0
2019/03/27 22:30:00	BASE	19.78	354	24.74	2	1.4	100	1.4	0	0	974.7	NA	0.0000	-SN	9999	360	1610	0	0
2019/03/27 22:31:00	BASE	19.69	353	24.74	2	1.4	100	1.4	0	0	974.7	NA	0.0000	-SN	9999	360	1510	0	0
2019/03/27 22:32:00	BASE	20.10	347	24.74	2	1.4	100	1.4	0	0	974.7	NA	0.0000	-SN	9999	330	1440	0	0
2019/03/27 22:33:00	BASE	20.59	351	25.10	360	1.4	100	1.4	0	0	974.7	NA	0.0000	-SN	9999	360	0	0	0
2019/03/27 22:34:00	BASE	21.27	358	25.10	360	1.4	100	1.4	0	0	974.7	NA	0.0000	-SN	9999	360	0	0	0
2019/03/27 22:35:00	BASE	20.43	355	25.10	360	1.4	100	1.4	0	0	974.7	NA	0.0000	-SN	9999	360	1480	0	0
2019/03/27 22:36:00	BASE	19.78	354	25.10	360	1.4	100	1.4	0	0	974.8	NA	0.0000	-SN	9999	330	1280	0	0
2019/03/27 22:37:00	BASE	20.07	355	25.10	360	1.4	100	1.4	0	0	974.8	NA	0.0000	-SN	9999	360	0	0	0
2019/03/27 22:38:00	BASE	20.15	350	25.10	360	1.4	100	1.4	0	0	974.8	NA	0.0000	-SN	9999	360	1440	0	0
2019/03/27 22:39:01	BASE	19.75	345	25.10	360	1.4	100	1.4	0	0	974.8	NA	0.0000	-SN	9999	390	1440	0	0
2019/03/27 22:40:01	BASE	19.15	346	25.10	360	1.4	100	1.4	0	0	974.8	NA	0.0000	-SN	9999	360	1310	0	0
2019/03/27 22:41:01	BASE	19.63	347	25.10	360	1.4	100	1.4	0	0	974.8	NA	0.0000	-SN	9999	330	0	0	0
2019/03/27 22:42:01	BASE	19.59	351	25.10	360	1.4	100	1.4	0	0	974.9	NA	0.0000	-SN	9999	330	1510	0	0
2019/03/27 22:43:00	BASE	20.43	351	25.00	347	1.4	100	1.4	0	0	974.8	NA	0.2540	-SN	9999	330	0	0	0
2019/03/27 22:44:00	BASE	22.15	345	25.00	347	1.3	100	1.3	0	0	974.8	NA	0.0000	-SN	9999	330	0	0	0
2019/03/27 22:45:00	BASE	22.41	347	25.88	350	1.3	100	1.3	0	0	974.8	NA	0.0000		9999	330	0	0	0
2019/03/27 22:46:00	BASE	21.93	349	25.88	350	1.3	100	1.3	0	0	974.9	NA	0.0000		9999	330	0	0	0
2019/03/27 22:47:01	BASE	20.64	348	25.88	350	1.3	100	1.3	0	0	974.9	NA	0.0000		9999	330	0	0	0
2019/03/27 22:48:00	BASE	21.16	350	25.88	350	1.3	100	1.3	0	0	974.9	NA	0.0000		9999	330	0	0	0
2019/03/27 22:49:00	BASE	21.90	350	25.88	350	1.3	100	1.3	0	0	974.9	NA	0.0000		9999	360	0	0	0
2019/03/27 22:50:00	BASE	21.60	346	25.88	350	1.3	100	1.3	0	0	974.9	NA	0.0000		9999	360	0	0	0
2019/03/27 22:51:00	BASE	20.22	347	25.88	350	1.3	100	1.3	0	0	975.0	NA	0.0000		9999	330	0	0	0
2019/03/27 22:52:00	BASE	18.86	350	25.88	350	1.3	100	1.3	0	0	975.0	NA	0.0000		9999	360	0	0	0
2019/03/27 22:53:00	BASE	20.68	350	25.88	350	1.3	100	1.3	0	0	974.9	NA	0.0000		9999	330	0	0	0
2019/03/27 22:54:00	BASE	21.45	347	25.88	350	1.2	100	1.2	0	0	975.0	NA	0.0000		9999	330	0	0	0
2019/03/27 22:55:00	BASE	20.22	347	24.64	347	1.2	100	1.2	0	0	975.0	NA	0.0000		9999	330	0	0	0
2019/03/27 22:56:00	BASE	19.57	349	24.64	347	1.2	100	1.2	0	0	975.1	NA	0.0000		9999	300	0	0	0
2019/03/27 22:57:00	BASE	19.38	348	24.64	347	1.2	100	1.2	0	0	975.1	NA	0.0000		9999	300	0	0	0
2019/03/27 22:58:00	BASE	19.55	345	24.64	347	1.2	100	1.2	0	0	975.1	NA	0.0000		9999	330	0	0	0
2019/03/27 22:59:00	BASE	20.22	347	24.64	347	1.2	100	1.2	0	0	975.0	NA	0.0000		9999	300	0	0	0
2019/03/27 23:00:00	BASE	19.85	349	24.64	347	1.2	100	1.2	0	0	975.1	NA	0.0000		9999	300	0	0	0
2019/03/27 23:01:00	BASE	17.93	348	24.64	347	1.1	100	1.1	0	0	975.2	NA	0.0000		9999	300	0	0	0
2019/03/27 23:02:00	BASE	16.69	352	24.64	347	1.1	100	1.1	0	0	975.2	NA	0.0000		9999	260	0	0	0
2019/03/27 23:03:00	BASE	15.95	354	22.94	351	1.1	100	1.1	0	0	975.2	NA	0.2540		9999	300	0	0	0
2019/03/27 23:04:00	BASE	15.91	354	22.94	351	1.1	100	1.1	0	0	975.2	NA	0.0000		9999	260	0	0	0
2019/03/27 23:05:00	BASE	17.80	353	22.94	351	1.1	100	1.1	0	0	975.1	NA	0.0000		9999	230	0	0	0
2019/03/27 23:06:00	BASE	17.60	351	22.94	351	1.1	100	1.1	0	0	975.3	NA	0.0000		9999	260	0	0	0
2019/03/27 23:07:00	BASE	17.01	349	22.94	351	1.1	100	1.1	0	0	975.2	NA	0.0000		9999	300	0	0	0
2019/03/27 23:08:00	BASE	17.58	350	22.94	351	1.1	100	1.1	0	0	975.2	NA	0.0000		9999	330	0	0	0
2019/03/27 23:09:00	BASE	16.32	351	22.89	349	1.1	100	1.1	0	0	975.3	NA	0.0000		9999	330	0	0	0
2019/03/27 23:10:00	BASE	16.12	351	22.89	349	1.1	100	1.1	0	0	975.3	NA	0.0000		9999	300	0	0	0
2019/03/27 23:11:00	BASE	17.39	350	22.89	349	1.1	100	1.1	0	0	975.2	NA	0.0000		9999	330	0	0	0
2019/03/27 23:12:00	BASE	18.12	348	22.89	349	1.1	100	1.1	0	0	975.2	NA	0.0000		9999	360	0	0	0
2019/03/27 23:13:00	BASE	17.01	347	22.89	349	1.1	100	1.1	0	0	975.3	NA	0.0000		9999	360	2070	0	0
2019/03/27 23:14:00	BASE	15.72	345	22.89	349	1.1	100	1.1	0	0	975.3	NA	0.0000		9999	330	1540	0	0
2019/03/27 23:15:00	BASE	15.05	344	20.73	341	1.1	100	1.1	0	0	975.3	NA	0.0000		9999	360	0	0	0
2019/03/27 23:16:00	BASE	15.26	352	20.73	341	1.1	100	1.1	0	0	975.3	NA	0.0000		9999	330	0	0	0
2019/03/27 23:17:00	BASE	16.16	353	20.73	341	1.1	100	1.1	0	0	975.2	NA	0.0000		9999	330	1640	0	0
2019/03/27 23:18:00	BASE	16.04	351	20.73	341	1.1	100	1.1	0	0	975.2	NA	0.0000		9999	330	0	0	0
2019/03/27 23:19:00	BASE	15.39	351	20.73	341	1.1	100	1.1	0	0	975.3	NA	0.0000		9999	360	0	0	0
2019/03/27 23:20:00	BASE	16.00	350	20.73	341	1.1	100	1.1	0	0	975.2	NA	0.0000		9999	390	2400	0	0
2019/03/27 23:21:00	BASE	15.86	351	20.01	347	1.1	100	1.1	0	0	975.3	NA	0.0000		9999	360	1970	0	0
2019/03/27 23:22:00	BASE	15.81	351	18.42	352	1.1	100	1.1	0	0	975.2	NA	0.0000		9999	330	1870	0	0
2019/03/27 23:23:00	BASE	17.22	350	19.91	354	1.1	100	1.1	0	0	975.2	NA	0.0000		9999	360	0	0	0
2019/03/27 23:24:00	BASE	16.32	347	19.91	354	1.1	100	1.1	0	0	975.3	NA	0.0000		9999	330	0	0	0
2019/03/27 23:25:00	BASE	14.15	350	19.91	354	1.2	100	1.2	0	0	975.3	NA	0.0000		9999	360	0	0	0
2019/03/27 23:26:00	BASE	14.58	352	19.91	354	1.2	100	1.2	0	0	975.3	NA	0.0000		9999	330	2430	0	0
2019/03/27 23:27:00	BASE	15.03	350	19.91	354	1.2	100	1.2	0	0	975.3	NA	0.0000		9999	360	0	0	0
2019/03/27 23:28:00	BASE	14.06	354	19.91	354	1.2	100	1.2	0	0	975.3	NA	0.0000		9999	330	0	0	0
2019/03/27 23:29:00	BASE	13.77	358	19.91	354	1.2	100	1.2	0	0	975.3	NA	0.0000		9999	330	2660	0	0
2019/03/27 23:30:00	BASE	13.97	356	19.91	354	1.2	100	1.2	0	0	975.3	NA	0.0000		9999	330	0	0	0
2019/03/27 23:31:00	BASE	14.49	356	19.91	354	1.2	100	1.2	0	0	975.3	NA	0.0000		9999	330	0	0	0
2019/03/27 23:32:00	BASE	14.44	354	19.91	354	1.2	100	1.2	0	0	975.3	NA	0.0000		9999	330	0	0	0
2019/03/27 23:33:00	BASE	13.84	352	16.77	353	1.2	100	1.2	0	0	975.4	NA	0.2540		9999	0	0	0	3810
2019/03/27 23:34:00	BASE	14.07	353	16.77	353	1.2	100	1.2	0	0	975.4	NA	0.0000		9999	330	0	0	0
2019/03/27 23:35:00	BASE	14.18	354	16.77	353	1.2	100	1.2	0	0	975.3	NA	0.0000		9999	330	0	0	0
2019/03/27 23:36:00	BASE	13.97	353	17.44	355	1.2	100	1.2	0	0	975.4	NA	0.0000		9999	330	0	0	0
2019/03/27 23:37:00	BASE	14.52	351	17.44	355	1.2	100	1.2	0	0	975.4	NA	0.0000		9999	330	0	0	0
2019/03/27 23:38:00	BASE	14.55	352	17.44	355	1.2	100	1.2	0	0	975.4	NA	0.0000		9999	330	0	0	0
2019/03/27 23:39:00	BASE	14.97	353	17.44	355	1.2	100	1.2	0	0	975.3	NA	0.0000		9999	260	0	0	0
2019/03/27 23:40:00	BASE	16.13	350	18.57	351	1.2	100	1.2	0	0	975.3	NA	0.0000		9999	260	0	0	0
2019/03/27 23:41:00	BASE	16.09	350	18.57	351	1.2	100	1.2	0	0	975.4	NA	0.0000		9999	260	0	0	0
2019/03/27 23:42:00	BASE	15.48	355	18.57	351	1.2	100	1.2	0	0	975.4	NA	0.0000		9999	300	0	0	0
2019/03/27 23:43:00	BASE	15.24	352	18.57	351	1.2	100	1.2	0	0	975.4	NA	0.0000		9999	330	0	0	0
2019/03/27 23:44:00	BASE	14.60	349	18.57	351	1.2	100	1.2	0	0	975.4	NA	0.0000		9999	330	2300	0	0
2019/03/27 23:45:00	BASE	13.89	350	18.57	351	1.2	100	1.2	0	0	975.4	NA	0.0000		9999	360	0	0	0
2019/03/27 23:46:00	BASE	14.10	349	18.57	351	1.2	100	1.2	0	0	975.4	NA	0.0000		9999	390	0	0	0
2019/03/27 23:47:00	BASE	15.03	347	18.57	351	1.2	100	1.2	0	0	975.4	NA	0.0000		9999	360	0	0	0
2019/03/27 23:48:00	BASE	15.19	349	18.57	351	1.2	100	1.2	0	0	975.3	NA	0.0000		9999	660	0	0	0
2019/03/27 23:49:00	BASE	14.79	354	18.57	351	1.2	100	1.2	0	0	975.4	NA	0.0000		9999	2590	0	0	0
2019/03/27 23:50:00	BASE	14.37	355	17.75	348	1.2	100	1.2	0	0	975.4	NA	0.0000		9999	430	0	0	0
2019/03/27 23:51:00	BASE	14.48	359	17.75	348	1.2	100	1.2	0	0	975.3	NA	0.0000		9999	1740	2460	0	0
2019/03/27 23:52:00	BASE	15.29	359	18.57	352	1.3	100	1.3	0	0	975.3	NA	0.0000		9999	1640	0	0	0
2019/03/27 23:53:00	BASE	15.70	353	18.57	352	1.3	100	1.3	0	0	975.3	NA	0.0000		9999	1480	2460	0	0
2019/03/27 23:54:00	BASE	16.23	352	18.57	352	1.3	100	1.3	0	0	975.3	NA	0.0000		9999	1380	2490	0	0
2019/03/27 23:55:00	BASE	17.08	355	18.57	352	1.3	100	1.3	0	0	975.3	NA	0.0000		9999	1380	0	0	0
2019/03/27 23:56:00	BASE	16.71	356	18.57	352	1.3	100	1.3	0	0	975.4	NA	0.0000		9999	1380	2530	0	0
2019/03/27 23:57:00	BASE	16.01	353	18.57	352	1.3	100	1.3	0	0	975.4	NA	0.0000		9999	1350	0	0	0
2019/03/27 23:58:00	BASE	16.31	351	18.57	352	1.3	100	1.3	0	0	975.4	NA	0.0000		9999	1280	0	0	0
2019/03/27 23:59:01	BASE	16.10	353	18.57	352	1.3	100	1.3	0	0	975.4	NA	0.0000		9999	1210	0	0	0